GFSGL_con_3kmhel_000.txt.gz
Helicity
402 358 175 162 135 126 132 244 255 227 173 164 145 126 118 130 130 110 87 92 115 109 104 97 101 80 105 109 98 100 109 109 73 41 59 45 37 39 69 85 74 121 112
226 193 161 144 165 185 208 215 183 111 80 121 99 97 116 108 106 89 89 72 82 85 105 94 78 53 46 67 94 121 135 128 109 52 31 33 26 47 64 62 72 69 90
164 136 140 174 221 215 166 158 125 105 113 129 144 131 108 99 95 101 113 132 180 148 111 105 112 91 94 90 82 101 129 145 145 133 99 85 71 51 64 79 101 82 86
148 150 132 227 257 175 141 184 196 152 148 137 128 118 118 115 117 176 166 137 112 96 73 65 51 86 72 68 55 93 108 101 91 100 107 99 64 59 48 46 60 66 79
115 128 172 255 299 237 287 236 218 163 150 155 123 103 91 99 198 167 154 122 96 90 82 69 70 64 84 81 78 94 101 68 33 -19 -4 41 62 54 64 62 80 93 124
167 143 191 220 183 341 258 213 204 172 180 143 122 119 124 169 246 226 181 111 95 85 66 60 82 76 73 86 73 40 70 80 56 60 57 54 61 82 85 88 101 110 109
135 182 278 260 178 186 116 170 223 158 164 135 120 134 209 239 261 235 179 95 63 66 82 93 85 90 97 96 131 167 117 78 60 56 37 43 36 24 11 15 43 88 101
57 111 206 210 171 48 217 216 165 131 156 117 130 186 226 252 244 184 190 121 91 60 78 59 49 47 48 71 52 32 39 43 49 46 33 44 71 68 85 86 82 77 71
52 175 122 175 65 191 203 180 108 140 119 142 178 187 172 158 131 184 146 134 99 75 71 65 53 45 35 52 50 19 9 14 28 14 8 17 28 31 43 67 62 65 58
89 109 187 178 96 164 138 159 158 127 131 170 170 117 110 152 159 181 184 156 108 79 52 29 14 42 105 93 69 27 -2 -0 11 -0 -1 22 33 28 27 61 91 103 99
140 130 136 91 87 101 127 170 133 146 142 171 146 125 153 142 207 160 158 139 99 67 60 38 34 37 3 -12 -21 -45 -45 -23 -16 -15 -8 2 6 11 27 44 73 105 82
122 127 91 58 61 109 171 161 142 126 204 184 122 148 169 189 190 169 161 69 17 38 32 15 -59 -32 -31 -17 -26 -32 -23 -21 -9 5 11 23 22 32 30 7 -13 15 80
118 104 86 91 121 167 119 90 109 193 188 127 136 136 153 148 138 166 36 -10 15 40 41 12 35 -20 -9 -13 -14 -8 10 19 38 1 4 5 -8 -8 -3 -12 -5 13 10
141 105 87 102 117 84 92 97 161 167 136 137 129 141 145 122 133 80 47 46 39 48 34 53 -16 -21 16 60 -27 -3 13 -1 6 14 4 19 20 22 22 9 21 45 28
109 91 95 102 77 71 70 110 136 146 129 127 133 143 143 125 115 60 36 43 43 48 47 8 -18 5 52 2 1 10 12 2 -0 7 28 27 21 11 13 7 -1 1 12
103 103 83 70 68 61 75 91 124 126 107 117 128 117 124 103 84 -12 -6 -3 5 16 11 -19 -3 18 23 25 -0 14 31 8 18 31 27 17 26 30 31 40 38 6 29
112 94 66 65 70 77 89 99 85 96 94 121 120 96 100 130 84 -18 -21 -4 -8 -26 -28 -14 -16 -5 18 26 6 17 43 2 19 61 30 28 31 51 45 8 23 -2 -16
135 76 78 75 68 72 74 76 86 86 84 91 127 109 144 110 55 21 -35 -2 -22 -19 -36 -23 -29 -8 6 3 5 17 54 -12 3 39 59 61 55 62 10 9 20 27 30
116 121 101 73 76 79 77 82 81 81 75 76 84 134 168 83 59 60 -22 -21 -29 -25 -23 -22 -19 -0 4 -0 1 8 26 5 -7 10 46 100 74 27 13 13 19 37 40
111 150 100 79 81 78 79 78 81 79 77 78 78 117 126 70 85 41 -15 -28 -37 -29 -21 -8 -4 -3 -1 -1 -2 5 14 -0 1 12 35 77 90 48 33 12 25 30 34
107 137 99 88 80 82 81 78 79 85 87 84 84 138 112 77 74 76 14 -19 -40 -36 -26 -13 -5 -5 -4 9 5 5 8 2 8 18 35 67 83 39 48 11 16 18 10
118 99 89 78 75 84 85 74 71 86 96 97 95 114 114 89 101 91 85 49 -16 -21 -21 -18 -11 -3 2 10 15 15 13 11 18 27 34 63 67 36 56 33 9 7 16
101 98 85 72 65 87 76 68 69 76 88 108 104 101 97 99 111 114 92 88 54 5 -3 -10 -17 -10 -4 3 11 14 19 23 25 26 27 58 54 28 42 36 31 23 18
98 104 78 64 59 77 74 61 70 73 83 101 110 108 104 107 101 105 105 89 95 57 33 21 -10 -11 -8 -7 1 12 16 13 16 20 27 51 26 27 30 32 18 59 17
96 103 84 67 60 57 61 64 75 75 79 85 107 104 108 108 101 99 112 106 98 79 62 47 15 10 -4 -13 -0 5 9 21 23 25 27 33 25 29 30 40 25 53 24
157 134 92 62 56 50 57 66 83 79 81 89 93 98 102 118 117 108 122 122 106 97 64 74 45 25 4 -5 27 11 9 12 15 26 35 18 25 28 26 43 41 39 42

GFSGL_con_3kmhel_003.txt.gz
Helicity
224 154 114 86 135 234 232 279 255 177 153 135 75 92 95 97 81 79 69 74 71 73 71 66 73 89 79 90 64 -3 93 110 115 45 66 41 17 2 19 25 42 169 162
105 103 111 138 244 197 240 340 378 199 122 69 104 114 103 88 63 53 42 54 89 89 79 62 46 21 23 39 60 58 52 8 79 122 64 71 96 85 39 78 -7 79 95
102 140 173 232 230 166 293 333 381 171 119 159 166 111 102 85 85 98 121 126 112 89 69 55 45 43 45 41 70 75 66 108 95 72 49 45 56 100 103 77 90 52 23
103 161 151 126 162 256 460 447 291 152 145 188 166 126 148 113 151 174 179 171 136 94 55 56 49 53 66 71 63 75 51 67 43 12 4 7 -5 28 36 -3 6 82 87
62 98 186 197 231 392 402 358 199 63 146 174 168 130 137 164 192 213 213 179 119 72 38 17 20 43 70 96 87 80 84 68 37 31 -19 -41 -57 -74 -12 -23 -33 28 111
94 85 92 214 230 173 170 156 57 111 155 182 148 124 142 201 228 218 217 180 113 75 65 43 43 71 117 161 154 160 168 115 64 37 -10 -22 -20 -7 -4 -26 -39 -41 -24
107 83 68 79 44 49 97 34 159 130 154 132 129 140 160 185 166 189 183 187 118 110 81 62 68 72 74 62 46 29 54 91 84 16 -25 -12 13 20 36 19 -5 -40 -45
109 95 48 59 48 84 102 52 129 119 121 123 140 162 165 129 111 188 170 153 143 100 79 56 53 56 62 64 54 42 8 -4 7 -7 -23 -1 9 21 35 57 65 46 10
138 110 74 65 95 125 141 69 103 125 128 135 160 147 104 70 131 215 182 162 140 108 75 46 37 30 31 56 74 46 19 22 34 30 29 34 47 42 48 58 37 29 20
160 137 124 92 119 118 27 74 115 138 130 191 164 105 76 116 211 201 185 183 126 95 62 43 20 28 41 15 2 -27 -23 -20 -27 -26 -16 -5 4 1 27 40 49 40 74
167 133 107 109 127 135 104 120 124 112 181 167 139 114 116 146 187 239 211 146 94 93 84 72 42 -12 1 -20 -19 -43 -35 -32 -27 -31 -19 -12 -9 0 12 25 35 59 33
141 132 116 96 116 97 103 104 99 156 153 137 117 63 51 109 159 166 128 77 70 99 93 70 64 16 13 -15 -15 -2 -21 -23 -20 11 16 29 30 23 27 34 23 21 45
108 123 114 106 101 85 93 93 101 112 110 86 65 50 67 87 109 85 70 49 50 82 81 41 15 -14 -1 30 19 0 -1 2 2 8 13 22 13 19 18 9 5 6 12
118 95 92 100 89 79 62 61 85 81 68 69 63 76 87 86 90 83 76 69 66 70 54 49 24 35 66 42 -4 10 7 0 3 8 24 43 50 42 49 36 18 4 16
112 87 83 81 72 62 85 95 66 52 49 60 71 97 106 76 73 45 13 16 36 58 36 44 21 18 13 12 -7 13 32 14 26 37 44 47 47 45 43 43 39 16 -10
113 86 80 76 73 84 100 95 68 48 60 94 96 103 76 71 43 42 25 -13 14 16 -11 -21 -18 -1 4 10 5 30 46 7 28 63 68 51 51 65 69 46 28 22 4
122 87 73 60 70 81 63 45 32 59 58 80 88 83 76 62 23 99 46 -1 -3 -2 -27 -30 -30 -20 2 9 1 19 50 21 16 49 60 86 87 74 46 11 16 12 17
120 90 88 91 70 83 84 67 69 71 68 63 60 99 76 33 57 87 55 31 -45 -24 -32 -22 -16 -19 -8 -1 -8 -6 11 10 5 22 70 101 109 57 19 15 21 17 36
85 103 133 100 60 76 77 73 67 66 65 63 78 100 66 46 64 72 90 64 -25 -50 -40 -21 -12 -16 -8 -3 -11 -13 -3 -2 -2 13 47 90 119 82 48 24 20 30 19
51 107 130 101 74 73 74 75 65 60 60 63 76 102 107 105 70 47 63 80 37 -44 -48 -37 -19 -5 -7 2 0 -7 -8 -3 7 17 41 67 92 93 80 29 18 21 14
108 114 106 92 80 77 76 74 63 52 64 73 81 105 111 108 80 69 74 77 71 20 -37 -37 -27 -17 -16 -9 5 11 2 -1 15 26 43 63 69 88 77 68 30 4 5
106 98 108 99 79 62 69 85 56 55 67 81 83 109 118 116 97 93 94 83 67 73 55 -1 -26 -22 -15 -12 -2 5 15 14 20 33 44 57 64 81 51 52 37 29 20
96 85 93 103 80 63 69 69 57 63 65 76 97 108 136 122 111 127 117 81 89 79 72 74 10 -13 -15 -21 -15 -8 10 28 26 23 31 43 49 49 36 34 40 36 26
94 88 91 88 70 64 74 67 53 58 64 71 81 100 107 115 113 107 117 105 115 97 87 94 63 18 -1 -15 -14 -10 -10 -2 12 26 30 30 35 33 31 35 58 52 27
104 94 86 98 77 61 53 58 65 72 75 70 67 78 99 114 118 109 112 127 125 118 86 87 79 50 27 -3 10 1 4 12 9 19 28 36 38 37 40 32 37 32 35
121 125 137 145 99 67 67 65 67 81 78 71 71 66 72 87 107 107 109 131 135 125 114 93 91 61 35 38 28 15 16 15 16 24 25 29 34 35 39 43 41 29 41

GFSGL_con_3kmhel_006.txt.gz
Helicity
130 156 110 97 103 129 185 250 257 283 155 210 238 134 35 61 93 84 94 105 104 89 71 63 45 37 39 29 17 19 30 20 29 35 118 65 64 80 112 121 84 52 31
110 93 94 99 108 164 241 272 228 198 232 282 271 94 75 58 77 100 139 156 137 130 105 83 54 31 7 28 38 45 49 53 56 17 7 55 61 73 73 99 121 98 -57
62 54 48 85 143 185 217 243 322 349 470 209 33 78 65 79 98 137 158 162 163 137 114 96 72 51 39 40 49 65 64 76 101 81 43 59 16 10 67 48 97 131 83
61 47 48 43 67 132 251 298 315 199 98 66 70 70 91 111 141 172 164 169 161 142 101 83 75 61 57 65 82 91 98 108 131 113 70 35 33 14 35 56 18 46 117
72 52 42 58 93 100 127 174 148 58 74 75 103 110 123 130 170 176 173 139 119 109 121 119 100 73 55 92 143 127 120 115 106 93 69 7 -20 -18 -36 -28 -20 -33 31
67 76 77 81 100 102 107 108 86 100 106 153 94 104 100 154 185 128 122 124 132 127 124 118 111 73 84 88 96 115 99 88 107 67 50 22 -0 -9 -11 -34 -42 -32 -16
74 61 71 76 82 78 77 72 94 83 78 74 87 128 159 146 98 76 87 138 146 140 136 108 87 84 64 82 60 64 71 60 30 38 32 27 -5 -7 -6 -2 -2 11 2
79 81 88 88 79 87 117 126 104 74 76 91 139 182 143 110 58 81 157 165 153 153 108 85 81 64 65 58 55 62 55 54 60 55 27 -2 -14 -7 4 21 23 30 48
105 102 94 90 89 117 108 137 93 96 113 149 171 165 138 105 108 119 172 172 154 109 76 77 78 75 44 47 81 60 45 38 52 62 58 69 25 7 13 38 49 38 39
108 95 97 83 99 112 136 107 90 106 142 167 182 142 130 83 97 125 141 137 122 82 78 78 53 45 16 3 39 40 8 -23 -13 -1 4 3 2 -2 29 27 43 34 51
122 108 113 113 104 105 104 116 119 133 180 141 113 79 74 52 78 110 111 140 121 81 89 90 84 30 9 -20 -12 7 -15 -24 -18 -18 -8 -8 -6 -5 1 8 14 33 34
128 104 105 115 111 109 100 112 135 127 110 82 74 65 44 43 96 70 77 100 83 92 90 96 74 9 10 19 24 -4 -1 -29 -12 -0 11 20 24 22 18 19 23 25 39
131 108 106 105 103 103 107 108 110 99 73 43 53 57 53 59 60 33 32 57 55 74 80 57 28 20 22 43 18 16 13 7 7 1 14 24 30 39 36 22 16 12 20
157 125 114 105 85 84 89 103 99 77 51 44 51 68 64 69 52 42 45 64 35 38 53 70 54 40 57 59 34 38 25 22 21 26 31 47 48 41 39 32 28 26 18
162 139 107 91 85 81 103 106 77 49 46 53 68 76 91 74 52 16 37 53 28 8 26 45 39 42 30 11 7 21 20 28 36 51 54 55 57 59 58 60 35 29 2
131 108 102 89 76 79 88 89 55 35 43 59 90 93 66 57 22 7 49 52 37 20 5 3 -6 -32 -37 -14 -16 7 10 22 33 57 62 62 82 83 56 46 38 37 26
87 101 101 86 83 74 77 76 56 81 71 51 75 70 80 49 24 50 39 53 48 15 -20 -12 -10 -26 -42 -27 -27 -15 -5 7 15 43 69 91 95 75 48 32 41 31 31
86 83 96 89 92 86 72 75 76 66 58 53 50 79 69 51 31 60 41 67 26 14 -31 -30 -18 -21 -34 -23 -19 -26 -20 -14 -7 23 70 87 91 70 40 29 23 20 24
66 73 69 90 94 68 60 71 83 69 64 57 66 75 73 64 42 61 92 80 44 14 9 -44 -35 -25 -32 -26 -16 -18 -21 -11 -3 6 33 66 78 70 55 43 29 14 12
82 60 85 102 93 74 69 85 73 74 55 60 74 82 102 117 93 83 78 90 69 29 19 4 -45 -29 -27 -23 -20 -12 -17 -16 -2 14 28 40 60 76 80 53 37 23 10
74 94 92 89 87 91 92 85 74 69 50 53 72 91 116 137 103 93 80 94 82 50 29 30 8 -30 -32 -32 -21 -14 -14 -4 -2 11 25 39 43 56 66 50 38 28 13
94 98 110 116 101 81 65 54 78 53 51 57 65 88 112 121 112 95 85 91 93 81 65 63 36 24 -7 -24 -23 -17 -9 -4 5 15 22 31 38 47 49 42 44 29 16
88 84 87 82 93 95 65 60 67 53 53 60 63 74 119 117 104 89 90 93 100 96 84 92 63 33 20 12 -6 -13 -15 -6 -0 11 21 27 31 38 43 35 44 34 37
97 88 85 75 83 80 67 61 65 61 63 63 61 60 77 88 92 93 93 96 98 97 104 101 88 61 35 22 18 8 -5 -10 -8 -0 13 25 36 40 31 35 43 43 38
98 88 91 91 88 109 92 63 63 68 73 89 80 74 71 76 79 85 93 95 110 121 109 107 99 84 48 37 32 25 10 15 7 7 8 13 27 46 51 43 32 30 32
95 93 99 100 103 120 141 118 91 78 88 97 83 83 79 77 75 84 94 114 126 132 124 131 114 87 66 52 41 33 26 22 17 16 14 15 24 26 34 46 56 47 40

GFSGL_con_3kmhel_009.txt.gz
Helicity
162 144 147 136 123 119 142 162 177 229 273 231 269 254 151 81 68 36 33 67 111 111 146 142 115 104 102 96 91 91 96 120 131 86 73 82 65 84 152 153 145 132 52
96 84 78 62 66 82 94 148 250 278 314 279 228 97 54 78 53 58 60 113 125 147 154 137 116 109 109 96 88 75 88 110 135 120 90 73 84 65 59 89 162 126 105
87 75 54 43 58 83 96 167 247 212 164 164 131 102 84 87 82 90 115 147 178 165 136 139 132 131 127 111 98 96 100 99 119 130 126 119 111 119 79 57 53 72 107
73 77 66 52 65 81 91 111 154 180 181 160 131 121 115 95 100 141 194 194 148 144 158 169 167 164 147 130 106 107 90 118 108 107 130 123 113 88 60 52 77 38 54
91 57 48 45 50 78 101 118 137 128 126 109 135 136 94 94 121 161 154 144 147 159 159 159 159 146 95 100 113 107 96 109 120 125 115 125 127 88 58 54 31 39 59
73 58 51 68 81 99 106 104 98 112 105 117 100 93 50 128 121 122 138 150 153 147 155 162 155 103 99 73 66 63 72 96 94 85 84 105 104 79 63 44 32 17 27
96 78 84 102 103 108 110 105 109 114 145 84 115 120 137 124 125 121 117 152 146 159 167 150 121 122 94 104 74 64 54 47 60 77 62 53 55 73 61 54 36 18 21
119 118 126 125 130 117 115 115 120 113 88 80 137 163 147 147 156 139 148 141 129 146 144 117 110 109 98 75 77 79 81 59 64 71 51 38 44 49 50 48 40 28 30
164 158 150 135 141 130 117 109 119 110 107 144 166 160 152 112 104 106 99 106 115 122 116 91 89 82 52 34 68 64 54 35 34 21 30 42 61 64 35 58 59 34 34
179 163 143 138 134 116 104 92 112 132 148 160 163 142 122 96 80 82 80 108 119 123 109 73 57 55 31 30 58 55 41 7 -14 -48 -3 8 28 30 29 39 37 45 60
175 149 152 125 119 107 111 108 107 134 169 139 113 115 108 86 76 72 69 87 103 113 101 73 84 35 33 36 47 55 28 -24 -43 -37 -21 -7 1 9 1 -4 5 25 33
155 161 155 131 130 122 112 102 117 135 145 132 119 95 86 75 71 58 60 49 63 115 91 74 78 29 32 34 45 29 13 2 -19 -17 -11 -4 -3 -2 1 1 4 17 30
153 169 168 153 131 112 109 119 126 130 121 99 85 86 75 72 59 50 43 41 59 77 75 43 37 34 44 53 31 26 24 12 7 6 11 22 27 32 32 18 17 20 27
130 144 166 149 109 101 104 120 127 119 102 89 87 77 81 76 68 64 61 52 53 48 52 37 37 42 59 68 78 61 40 24 24 28 40 56 57 51 47 34 33 36 43
124 126 135 135 110 98 86 92 88 83 99 96 85 91 112 84 78 53 62 65 53 50 65 28 15 17 37 40 63 62 12 -5 31 49 52 59 66 71 54 47 37 30 25
111 98 118 125 119 104 90 81 56 53 66 68 77 102 90 72 58 37 59 62 46 49 57 45 1 -2 -2 21 -3 -43 -38 -24 17 51 58 64 77 80 56 49 41 37 29
111 101 103 106 103 100 106 99 78 68 82 69 70 73 85 83 65 45 57 65 54 55 50 40 10 -16 -19 -16 -13 -31 -39 -22 -3 23 48 63 69 63 45 34 38 33 38
114 95 102 110 106 106 103 90 83 83 74 66 63 69 75 72 66 64 56 87 64 52 51 41 34 -23 -28 -24 -21 -21 -37 -32 -27 -15 19 39 55 52 39 41 27 26 29
119 102 97 91 106 102 99 90 93 86 77 66 60 67 80 70 75 77 102 100 87 68 56 46 31 22 -34 -36 -33 -28 -22 -21 -22 -8 4 25 47 45 43 30 32 22 20
122 106 101 111 110 105 103 98 102 92 74 60 57 69 97 125 109 96 99 107 102 83 70 59 36 31 25 -32 -37 -32 -23 -17 -4 -3 9 16 26 32 38 42 32 15 10
132 120 121 128 116 111 104 100 93 89 79 58 54 71 100 132 114 107 90 98 102 93 85 80 61 44 43 35 -13 -30 -29 -22 -11 4 9 12 23 29 35 30 25 17 9
142 140 136 116 105 109 118 104 95 87 81 52 53 63 85 113 117 105 96 93 104 116 116 112 91 77 53 45 33 9 -22 -24 -20 -11 2 14 13 20 28 30 30 20 14
109 132 139 101 100 92 96 98 91 84 82 62 63 65 77 89 113 97 86 86 99 108 114 133 121 84 67 57 46 39 14 -8 -14 -12 -9 0 9 22 22 21 27 32 35
113 116 124 95 93 89 100 84 79 82 83 81 79 78 78 81 84 79 82 85 94 104 126 141 146 127 104 78 57 40 31 17 8 -3 -8 -6 0 15 18 26 31 29 37
108 114 124 111 104 99 103 109 101 100 101 106 106 113 101 90 84 77 73 80 88 103 115 145 152 151 137 102 73 55 41 26 18 7 5 -3 -3 2 10 17 26 38 39
91 116 125 132 128 118 116 111 115 126 120 117 129 155 129 109 94 84 80 86 88 99 104 127 152 161 159 123 84 67 50 38 28 18 16 12 9 12 15 20 30 30 38

GFSGL_con_3kmhel_012.txt.gz
Helicity
165 127 125 108 97 85 90 86 95 119 162 239 242 215 162 134 117 111 89 85 98 112 141 153 127 123 129 142 139 143 139 138 147 122 121 95 76 84 98 95 102 256 157
118 90 82 81 70 59 59 68 80 108 157 201 232 200 165 124 138 127 103 102 126 132 135 139 137 147 159 170 176 156 144 125 128 108 106 99 89 104 113 110 59 78 213
101 81 62 43 48 48 57 73 93 128 176 180 178 153 140 140 160 114 115 141 142 129 132 154 163 177 187 186 171 147 120 104 113 126 94 99 95 119 127 91 84 85 34
87 74 70 62 44 47 72 90 110 129 145 148 135 122 129 176 134 109 134 121 125 142 154 176 188 189 183 169 138 122 117 118 95 101 103 72 83 85 132 111 98 71 48
96 93 80 67 62 79 95 104 116 126 125 124 113 133 115 132 109 123 113 132 136 145 156 160 165 163 123 118 136 136 129 133 113 96 84 48 88 89 124 112 96 85 44
112 103 109 111 107 113 128 129 134 124 116 108 148 108 91 127 152 126 137 124 139 138 133 135 151 135 109 84 75 64 76 93 87 78 71 66 27 88 97 81 80 65 77
150 148 150 142 143 139 141 133 133 125 113 89 90 102 158 166 146 152 159 140 128 115 120 131 137 115 81 107 80 53 57 54 51 65 74 59 45 56 41 75 51 49 63
175 170 168 173 165 155 143 126 119 121 110 113 133 156 161 151 156 141 115 104 102 94 96 117 133 90 88 68 92 90 72 63 60 65 66 67 45 33 37 32 23 23 36
170 187 184 180 169 152 138 116 105 104 118 132 141 160 153 149 131 101 99 89 80 76 81 121 121 79 54 35 70 73 77 68 45 23 23 27 13 13 32 37 40 30 36
184 183 178 178 169 158 135 114 119 113 116 143 156 152 138 118 111 96 89 84 79 85 97 104 86 60 37 39 67 79 92 66 29 6 17 8 -20 2 14 24 16 47 47
184 180 171 171 183 171 147 124 103 117 154 154 157 129 129 121 97 81 72 76 79 86 91 98 96 32 28 29 41 80 74 52 34 11 -8 -11 -19 -14 -5 -11 -4 15 22
174 162 152 164 195 175 135 105 108 133 146 142 145 128 116 104 79 68 61 62 64 95 82 84 87 21 26 32 46 31 45 45 45 24 5 -1 -2 1 1 0 -4 -2 9
163 148 132 136 159 150 109 87 119 132 132 117 118 114 100 96 86 57 60 65 71 82 80 57 45 28 26 42 35 40 62 65 24 22 22 25 27 33 35 24 22 13 11
153 134 121 134 144 142 118 100 109 114 116 111 120 111 100 97 83 80 87 82 70 75 67 65 58 32 17 37 57 61 77 69 23 15 32 53 59 53 55 43 40 38 39
144 127 116 120 136 136 119 104 99 100 112 113 103 110 117 94 94 100 79 92 77 70 72 64 60 43 10 6 25 53 64 64 20 30 42 58 72 73 62 59 45 46 42
122 127 115 114 133 144 129 104 87 76 55 62 80 117 108 103 100 86 69 80 67 71 73 63 58 49 11 -6 -9 -10 27 -48 11 33 40 44 53 64 63 55 50 52 35
119 109 110 117 128 139 140 124 116 93 84 72 69 84 99 104 96 93 90 87 87 92 81 69 68 57 38 -18 -22 -20 -14 -36 -36 -1 20 34 43 36 43 42 42 33 32
110 101 116 115 126 133 134 125 134 131 123 86 74 73 78 88 91 94 94 132 104 101 99 88 72 64 37 17 -30 -30 -26 -20 -32 -42 -25 6 16 10 11 26 26 15 24
111 117 119 125 127 116 136 126 123 123 140 106 80 67 64 74 84 100 98 148 122 108 105 96 89 75 65 22 6 -37 -38 -27 -17 -17 -26 -19 5 14 15 12 15 16 14
105 101 111 127 137 138 123 122 116 119 122 104 82 75 76 105 118 129 123 134 134 124 120 113 96 88 78 59 10 5 -33 -36 -30 -21 -6 -8 -5 -5 4 16 16 9 14
110 133 128 154 155 152 134 126 123 119 102 96 82 71 83 120 108 118 116 122 127 129 131 138 122 109 97 80 56 17 1 -21 -29 -27 -16 -3 6 1 10 10 8 11 15
109 139 121 125 159 170 126 133 127 129 123 111 88 61 69 103 98 100 111 104 111 129 136 155 149 144 126 111 89 58 19 -3 -11 -17 -17 -11 -1 14 18 12 19 17 25
108 114 121 138 131 150 117 110 120 116 113 107 113 91 94 97 101 103 111 92 98 103 119 157 160 145 144 138 126 102 63 21 5 -3 -8 -9 -5 5 13 22 24 21 32
101 104 115 137 125 133 130 110 117 114 111 111 109 117 114 111 106 102 102 98 98 94 115 135 153 158 151 155 139 112 80 54 34 10 -3 -5 -5 0 4 11 23 28 32
97 95 111 122 117 134 135 134 137 139 137 134 111 126 131 137 138 121 108 110 108 108 101 118 133 142 146 155 148 117 91 61 47 25 17 3 -6 -4 4 4 10 24 28
87 77 88 103 121 131 152 158 162 162 159 156 157 158 135 152 193 168 137 122 106 106 100 109 120 130 143 153 148 126 107 74 58 39 36 19 4 2 6 8 12 14 24

GFSGL_con_3kmhel_015.txt.gz
Helicity
87 140 125 94 72 67 66 72 83 87 106 109 132 165 172 182 130 96 109 114 100 96 122 131 120 130 146 160 168 168 175 169 151 109 90 54 39 49 58 70 74 62 64
129 120 106 98 84 65 62 71 81 88 97 122 152 181 177 134 93 93 135 135 100 102 126 121 118 146 143 161 165 160 168 143 130 83 73 72 58 63 65 83 59 82 65
107 111 116 103 77 76 74 76 79 95 104 116 133 139 107 82 93 125 141 123 119 120 131 123 128 136 135 147 154 155 129 113 116 120 93 84 71 59 85 75 105 49 65
98 116 113 105 105 97 86 86 99 104 112 118 119 110 89 100 116 115 126 135 132 131 118 127 131 137 142 142 146 119 111 128 106 103 91 83 66 52 76 77 64 63 58
109 117 116 141 128 115 115 112 110 120 125 126 109 116 134 114 99 122 152 148 128 104 103 102 112 123 101 118 116 94 105 106 96 92 95 82 62 59 73 92 95 60 64
119 119 144 163 153 147 144 131 126 125 118 125 118 103 104 111 148 169 151 124 103 88 93 87 95 90 101 83 58 59 57 74 77 84 87 80 36 37 44 44 78 83 84
130 138 159 174 176 166 159 129 121 121 112 108 120 124 136 155 174 169 138 104 84 89 83 85 88 88 91 83 56 58 57 61 60 70 83 65 43 30 39 61 86 70 81
137 148 166 179 176 182 160 133 131 130 120 115 121 126 132 153 149 139 99 79 79 76 71 72 74 72 94 64 52 65 63 71 71 66 56 47 28 25 26 39 64 52 53
153 149 160 180 187 180 160 147 141 144 121 106 108 122 130 136 138 106 79 75 71 60 64 63 68 79 73 35 50 63 70 64 72 45 33 15 6 -1 -8 -3 14 22 14
167 160 170 177 175 163 161 149 148 117 92 108 132 140 143 128 119 103 85 72 61 60 53 56 65 72 44 28 42 58 68 66 52 33 31 16 9 9 -3 -17 -21 -10 25
144 144 149 158 146 133 147 143 124 95 98 127 142 141 134 124 121 105 84 66 64 60 62 61 61 43 34 24 26 57 65 53 53 42 35 30 25 17 -5 -21 -14 -8 -5
138 139 169 158 131 129 131 133 118 94 105 124 133 124 122 126 118 98 66 61 63 68 65 63 56 32 32 23 31 32 44 65 61 33 34 31 29 29 17 5 1 -6 -0
139 160 175 142 116 116 116 120 117 112 105 117 116 110 115 120 110 90 63 58 64 74 72 49 36 36 34 34 22 28 50 76 55 26 24 33 39 48 54 49 37 23 15
159 159 134 135 116 99 119 119 117 110 106 103 99 103 99 99 97 94 89 80 84 70 69 60 56 47 56 43 16 17 42 63 60 25 26 42 52 52 51 42 50 47 40
148 113 107 115 100 90 101 110 123 111 98 94 87 92 89 81 87 101 101 86 78 78 65 64 58 52 46 40 9 -3 14 32 57 26 19 30 35 40 45 57 50 44 43
114 102 110 101 99 93 95 99 111 88 91 91 82 94 91 85 99 109 94 76 85 86 68 62 57 54 44 39 19 -17 -15 -14 6 40 12 16 27 36 45 43 52 54 35
98 83 100 92 89 92 106 114 100 101 110 84 95 84 87 78 83 93 94 84 103 105 73 68 67 61 55 45 30 4 -26 -18 -20 -7 -9 2 10 14 26 32 41 42 35
80 88 97 96 93 98 112 113 104 106 104 90 107 93 69 77 77 90 94 89 100 106 96 83 76 73 63 53 44 16 -15 -28 -21 -17 -17 -12 1 10 11 12 16 25 28
83 98 97 97 98 105 114 114 103 106 104 95 91 88 81 64 63 65 87 98 78 80 94 99 96 91 82 69 58 46 13 -16 -27 -20 -13 -10 -6 -3 4 8 10 15 25
97 96 76 106 108 97 119 128 118 100 83 81 82 78 90 96 84 89 102 100 98 92 92 105 105 108 101 91 80 59 34 4 -8 -23 -20 -15 -2 -4 1 7 11 18 24
99 90 77 107 118 89 94 128 124 106 91 84 80 91 113 101 76 75 91 102 100 94 94 98 106 115 117 115 107 89 59 27 7 -6 -14 -17 -13 -3 6 2 8 11 21
123 101 83 85 94 96 94 84 117 114 91 89 89 83 105 118 91 79 84 90 96 100 99 101 104 114 123 125 123 113 90 61 30 10 -3 -9 -11 -9 -2 7 12 14 20
120 107 95 82 80 83 75 69 92 118 101 99 98 90 94 115 114 100 92 86 87 98 111 114 106 112 121 133 144 130 103 78 56 35 8 -2 -5 -2 -1 4 13 27 34
114 103 89 79 70 80 72 70 83 104 108 107 110 110 110 106 112 118 111 99 99 106 122 124 116 106 112 123 145 143 115 92 74 50 28 5 -2 -0 4 6 11 21 26
113 100 86 83 72 69 59 54 69 97 125 138 137 144 152 147 129 120 132 149 135 126 129 132 124 106 105 110 126 139 121 107 85 63 45 27 3 -3 -3 3 10 15 25
96 93 97 80 69 51 39 42 53 72 87 104 111 109 112 121 141 149 155 141 183 166 133 139 123 107 105 108 111 129 133 115 90 75 52 37 26 15 5 2 3 6 15

GFSGL_con_3kmhel_018.txt.gz
Helicity
1 89 105 142 94 92 93 80 70 69 77 84 95 101 129 147 122 87 67 64 73 84 74 82 97 88 89 94 98 114 121 125 142 132 94 64 62 73 60 64 49 55 63
98 138 172 109 111 102 88 76 81 77 81 85 91 97 112 103 58 52 62 93 101 73 88 93 95 100 84 84 96 104 132 142 177 105 76 77 68 58 56 59 68 56 39
132 145 132 107 93 98 91 94 90 89 85 90 98 99 105 105 76 68 112 109 93 111 121 108 94 77 72 85 98 113 150 160 138 122 96 83 73 60 64 65 56 57 20
129 108 108 94 106 104 112 102 115 108 102 107 96 122 123 115 107 89 90 89 107 123 109 98 82 82 89 104 110 115 137 125 100 106 94 81 73 62 59 63 54 49 39
119 95 98 114 119 122 118 122 137 117 103 110 127 131 130 101 107 84 73 93 115 106 98 87 89 122 94 90 113 110 104 86 100 93 89 90 77 63 58 60 60 47 101
118 98 111 128 134 131 136 146 137 123 126 133 121 91 80 130 187 156 123 107 92 78 76 82 81 90 103 82 58 74 54 69 76 77 88 98 59 47 27 32 35 25 64
120 114 128 145 139 134 141 135 144 145 133 135 120 93 116 143 147 136 103 77 72 78 81 79 76 84 74 90 79 45 38 58 75 77 75 68 35 21 29 33 51 35 29
126 136 146 132 127 130 137 141 143 148 138 138 126 107 108 163 139 118 79 65 68 74 76 70 71 69 89 95 64 40 43 45 62 70 72 48 26 -10 -3 17 41 51 61
130 146 135 130 126 127 137 145 132 141 123 123 114 102 100 142 132 112 59 67 68 61 65 66 79 59 82 50 47 32 27 39 70 75 43 25 20 -11 -8 -5 12 25 27
145 130 117 114 122 132 133 124 130 123 116 111 103 110 150 135 152 112 69 64 65 57 59 65 86 87 43 33 43 36 35 36 43 39 19 20 27 28 38 30 1 -14 3
109 103 110 122 144 131 116 128 116 108 123 114 109 111 117 120 142 118 89 65 61 63 64 65 64 68 32 26 30 36 37 31 45 39 20 18 16 16 20 25 15 -2 -9
93 105 115 135 137 124 125 123 100 102 118 112 109 102 105 110 109 120 89 68 68 66 60 58 49 33 22 27 30 32 1 38 56 35 16 13 11 16 14 15 14 12 0
84 91 104 117 116 124 122 104 103 111 111 109 101 83 73 102 91 108 81 70 63 71 60 47 32 31 30 36 73 27 -3 27 41 30 10 7 16 42 60 101 72 44 25
75 77 99 112 130 117 116 103 99 115 117 107 81 68 67 84 86 76 75 72 87 63 67 49 50 59 52 57 50 48 15 7 30 36 12 6 10 28 42 36 24 44 51
72 74 96 108 99 99 94 92 80 102 119 95 79 81 82 76 74 83 70 71 73 79 63 49 49 49 51 55 52 45 24 -5 -5 18 12 -4 14 24 35 47 63 53 42
66 79 101 98 93 99 88 88 115 88 127 98 81 88 88 90 73 74 79 73 55 75 51 38 44 46 48 51 52 42 30 0 -13 -8 1 2 -6 23 37 44 52 66 53
68 77 89 92 94 82 84 94 89 121 99 88 90 87 93 77 82 61 69 67 57 92 53 41 44 47 47 53 58 51 34 19 -13 -18 -15 -14 0 12 33 30 37 42 37
66 93 87 87 93 95 86 90 99 104 97 84 89 89 96 89 75 67 64 74 63 90 62 46 45 49 53 61 64 62 48 24 3 -16 -24 -10 -8 4 11 17 28 35 44
87 85 101 114 108 101 100 99 92 97 96 75 60 82 95 87 73 68 70 73 54 43 43 46 54 61 62 77 87 83 67 44 17 -7 -16 -20 -8 -6 2 11 15 19 31
95 102 93 86 91 103 103 101 89 108 113 88 70 55 55 131 99 80 85 82 84 56 43 45 50 55 69 81 92 99 89 68 44 10 -1 -14 -16 -13 -1 3 10 21 21
108 109 111 101 89 78 90 82 81 91 96 105 74 84 78 73 82 78 77 96 101 62 68 60 62 70 75 79 85 94 98 88 70 38 6 -3 -11 -16 -8 2 9 17 24
133 140 131 122 119 100 81 76 79 65 72 87 91 76 107 102 84 72 82 84 90 88 70 77 79 77 79 75 82 91 96 94 84 61 28 4 -8 -11 -11 -8 0 14 17
141 135 118 114 113 98 95 92 81 73 66 77 94 83 88 111 100 84 91 102 105 103 104 94 107 96 92 93 87 87 87 88 84 79 54 24 0 -5 -8 -7 -2 5 17
121 124 114 125 122 99 93 91 76 54 56 61 81 97 104 114 121 123 119 115 131 138 148 122 118 104 102 110 99 88 84 94 89 85 75 51 20 4 -6 -7 -6 2 5
134 108 100 99 99 92 81 75 72 64 54 51 65 82 91 110 124 120 123 137 152 149 165 182 151 117 119 125 109 94 93 120 95 84 74 63 43 21 4 -5 -4 -7 4
101 89 89 85 104 89 81 83 75 68 46 48 60 63 65 71 83 93 99 96 113 155 176 189 201 142 126 121 110 119 125 120 110 92 65 55 49 37 26 17 9 -2 -1

GFSGL_con_3kmhel_024.txt.gz
Helicity
350 318 304 176 234 264 168 204 178 155 116 118 106 107 95 86 99 179 183 168 150 118 98 136 133 54 175 161 140 162 162 158 150 137 126 140 154 125 68 89 71 75 82
366 327 250 174 185 196 166 181 168 158 122 127 111 102 106 88 180 156 143 149 139 119 148 174 148 150 170 161 155 179 161 151 129 117 136 133 108 86 98 89 84 65 68
324 275 207 218 168 178 218 184 158 153 138 162 122 116 100 101 147 182 161 159 159 175 162 159 154 164 134 153 177 144 112 117 142 155 135 121 123 96 77 87 74 80 60
307 248 196 198 154 210 205 180 142 139 154 165 117 107 97 100 170 203 224 182 145 139 156 142 136 137 183 152 131 109 116 122 121 131 133 109 99 82 96 84 75 69 52
263 193 172 199 368 249 205 148 151 169 160 121 131 117 107 144 216 270 253 164 166 161 174 146 137 157 125 156 114 105 121 116 110 101 103 102 88 86 77 82 80 53 40
217 221 282 322 198 285 172 153 121 103 128 164 170 134 193 228 230 224 183 159 136 136 143 149 142 119 154 115 92 140 95 122 108 124 134 107 93 81 87 79 44 35 46
340 372 278 236 456 153 113 113 115 113 149 169 153 160 177 288 243 206 164 128 100 112 126 135 120 129 187 167 161 137 93 54 55 98 100 95 111 127 99 59 48 56 27
430 446 454 421 233 150 114 95 84 115 142 145 163 147 181 286 254 205 165 121 96 103 130 102 107 137 160 143 108 76 74 68 70 86 84 87 102 67 68 68 67 60 49
578 711 416 240 193 115 115 95 116 119 121 142 144 145 175 278 241 220 167 129 117 109 105 96 98 122 191 144 87 71 60 62 56 38 16 35 37 21 53 95 115 84 65
888 666 502 182 104 94 81 104 99 105 120 144 200 225 242 264 233 201 159 138 130 110 104 96 155 188 139 89 83 81 71 59 65 56 60 73 46 45 8 45 84 118 93
623 302 214 94 80 77 83 84 105 119 118 129 154 170 152 200 201 166 150 144 116 130 110 89 152 133 85 60 68 83 77 75 56 73 65 41 43 21 2 -12 3 65 114
338 152 59 56 74 76 119 121 116 103 106 121 181 200 189 170 232 180 154 120 124 126 96 87 100 82 49 56 64 53 52 56 90 81 52 47 22 19 19 24 31 60 115
36 35 20 14 55 103 112 114 111 101 114 130 157 195 179 143 164 217 174 143 118 118 87 77 67 46 41 68 52 89 82 82 77 73 71 40 21 24 10 7 11 28 47
7 -25 1 62 87 102 103 109 118 143 117 127 133 170 173 151 144 222 181 164 138 121 60 63 82 73 83 87 69 73 110 95 87 85 70 55 32 21 6 3 -0 2 36
-16 24 62 88 82 85 99 103 160 152 132 113 102 134 160 173 172 188 156 162 170 140 103 111 74 68 73 66 67 84 104 102 86 86 62 51 28 5 22 13 -5 -28 -35
54 78 94 99 99 105 104 128 130 111 118 122 120 128 146 152 165 135 122 123 143 171 138 100 79 57 70 68 67 71 100 115 142 82 71 56 28 5 9 45 -2 14 16
93 92 109 106 116 121 149 137 124 106 81 106 121 112 125 129 120 114 110 109 116 154 140 94 73 66 73 74 70 68 94 133 134 117 84 58 37 5 4 22 19 23 38
115 94 137 142 157 160 152 148 139 137 138 109 108 121 106 108 111 92 107 125 144 137 129 98 78 69 81 86 79 75 110 113 108 109 93 79 54 26 -9 -3 2 21 41
171 174 164 177 193 164 164 167 161 146 138 130 107 123 132 106 98 84 108 159 159 140 131 121 99 82 81 117 104 123 122 103 101 106 97 92 65 45 -5 -13 -9 5 27
156 176 192 221 232 238 197 167 165 178 161 127 118 120 118 135 172 148 158 154 151 130 123 120 109 98 100 131 155 139 124 106 97 102 102 92 79 61 32 -15 -17 -10 7
173 200 235 274 256 217 183 166 154 156 185 169 104 107 93 108 131 189 166 149 138 127 123 121 127 126 126 139 172 168 151 116 104 106 103 86 89 72 61 8 -17 -14 -9
186 199 226 241 223 200 181 155 144 132 133 130 117 89 73 97 92 148 173 147 146 148 143 133 135 150 159 168 192 183 152 142 120 121 104 98 86 76 59 43 -6 -15 -16
197 194 190 199 208 201 177 138 122 96 96 102 94 88 82 79 59 123 204 136 115 93 113 131 132 150 159 207 213 204 205 191 147 141 135 117 81 63 70 51 32 -4 -12
174 185 150 160 241 231 166 122 119 83 79 93 93 88 77 74 60 68 93 131 126 126 135 132 127 140 159 182 226 239 243 209 179 195 178 142 91 58 61 55 43 26 -7
128 134 111 65 23 128 151 143 161 106 87 96 130 132 110 81 61 58 70 71 69 82 85 91 96 100 133 185 238 250 239 246 223 214 171 126 84 71 65 45 42 35 23
172 164 141 99 82 115 242 260 146 129 114 98 80 75 80 89 84 89 76 56 47 63 65 60 67 62 74 149 222 265 264 233 260 220 188 127 85 63 62 51 50 50 30

GFSGL_con_3kmhel_027.txt.gz
Helicity
424 348 281 256 256 283 308 321 220 264 145 122 126 115 86 76 92 121 131 121 141 147 127 164 158 157 138 138 141 151 207 168 150 133 98 92 71 58 49 53 75 88 86
468 363 269 240 237 262 235 238 202 162 160 132 134 119 86 84 98 123 137 136 163 162 172 195 207 163 145 180 162 156 124 94 100 78 81 64 72 80 96 99 90 75 65
540 412 286 227 224 210 239 210 247 177 147 163 162 116 89 79 77 92 152 173 172 174 180 181 161 164 179 170 151 117 91 82 89 105 97 106 123 116 111 104 85 62 52
517 407 259 214 220 240 217 303 174 140 162 139 123 109 102 89 137 169 221 247 221 187 170 176 156 170 153 143 120 91 96 90 97 108 108 107 106 102 109 77 55 56 43
522 406 263 243 235 300 309 330 267 193 126 103 120 122 153 228 190 192 208 213 193 197 193 184 181 129 133 122 132 112 104 99 109 111 102 97 95 90 81 80 71 50 25
555 414 306 324 449 504 509 420 215 141 100 114 129 150 192 220 220 203 176 172 163 165 152 159 149 185 180 188 181 160 116 97 101 120 105 108 78 75 90 101 77 71 57
466 404 514 591 632 666 528 401 189 114 126 120 137 144 179 251 218 212 187 172 150 133 133 133 123 166 158 138 136 118 81 61 81 92 102 114 83 89 114 77 69 98 122
554 695 770 788 867 894 593 243 102 128 116 114 124 143 197 221 198 225 221 188 169 150 140 130 121 143 129 136 121 81 66 73 76 90 96 78 92 99 103 86 95 125 139
877 997 1020 1066 1078 577 280 103 91 82 78 116 138 159 198 205 208 241 230 203 181 143 129 128 131 150 139 144 103 69 67 72 56 46 41 42 50 50 32 53 50 62 91
1122 1134 1241 789 370 148 100 70 73 52 88 112 156 170 164 187 181 201 206 198 164 134 125 152 148 133 139 104 85 91 81 70 72 67 67 63 95 72 25 48 34 26 65
1022 713 250 23 47 73 57 34 77 100 111 113 127 153 199 196 171 156 171 194 152 131 117 116 122 122 93 60 69 116 118 95 83 81 71 71 56 47 35 34 46 54 48
249 55 83 119 69 32 60 88 98 92 110 115 123 152 179 200 185 163 176 174 148 151 120 103 96 93 65 55 70 73 67 85 109 93 96 61 61 50 33 24 24 33 66
111 147 137 71 59 63 82 83 101 100 129 132 127 137 168 170 194 180 189 170 157 168 140 101 61 62 42 46 44 57 76 117 117 111 90 74 65 58 30 18 14 9 38
154 119 101 81 71 78 86 93 112 124 147 138 133 144 145 142 133 209 210 188 177 165 131 124 92 69 71 68 58 58 93 122 140 136 104 86 70 45 41 51 35 9 1
131 101 64 71 79 90 99 106 115 128 158 173 165 180 166 149 150 173 190 189 177 161 163 167 129 86 69 62 70 67 70 100 138 151 108 81 64 49 42 40 52 19 5
77 86 93 105 105 111 126 131 126 117 119 116 104 128 142 146 149 172 141 106 104 126 186 207 164 107 78 65 68 63 63 87 142 134 110 91 76 57 41 25 25 39 42
116 117 126 121 139 154 159 164 152 138 106 112 91 94 104 133 142 156 139 148 126 204 211 192 165 110 75 67 86 83 81 116 119 118 118 85 78 70 48 20 9 13 50
147 140 161 167 174 191 224 203 184 169 175 165 135 104 98 90 107 114 134 136 187 176 191 168 146 111 84 70 80 95 129 134 116 92 101 82 77 87 56 29 -1 -6 6
140 186 206 243 249 267 270 228 230 221 187 178 164 152 119 75 67 95 121 165 181 171 180 175 142 115 92 81 79 104 153 134 113 97 92 84 78 95 67 48 1 -14 -12
150 166 188 225 231 233 266 275 245 200 187 174 156 146 148 127 125 113 107 177 192 149 157 162 151 126 101 96 95 134 157 142 116 110 91 92 91 100 79 58 42 -16 -19
170 184 191 203 191 197 209 204 197 205 183 145 137 139 115 125 100 96 96 161 173 178 140 144 138 136 126 115 147 184 181 169 137 122 126 114 111 87 76 71 53 5 -22
189 178 173 181 206 180 159 157 228 240 187 145 114 123 116 101 88 77 70 98 194 245 176 137 137 135 122 118 127 180 206 173 154 144 133 119 114 89 67 66 48 42 -5
146 150 143 140 146 131 116 54 136 285 173 129 88 94 142 95 87 75 54 40 101 276 209 143 129 129 142 149 161 171 189 189 169 168 155 138 124 95 74 63 52 47 28
165 176 156 136 131 138 119 81 35 111 158 107 160 149 154 152 113 99 75 51 40 64 101 120 121 119 137 139 166 186 190 188 201 187 186 168 136 107 83 60 50 47 36
126 158 139 113 131 157 150 159 186 281 314 252 172 113 124 145 126 105 90 78 59 83 131 129 93 100 88 65 111 177 222 233 233 220 210 204 155 132 109 79 56 43 32
124 118 98 110 123 130 134 111 76 116 135 100 112 130 113 100 89 70 53 39 39 48 58 75 73 62 94 48 42 77 181 281 319 282 243 206 163 126 111 69 54 47 37

GFSGL_con_3kmhel_030.txt.gz
Helicity
430 442 433 371 321 297 290 289 314 273 289 286 140 235 148 112 110 106 90 100 112 119 140 137 144 152 135 121 126 145 148 138 140 113 109 79 63 41 51 75 90 103 101
464 460 417 402 342 314 292 282 298 278 200 220 161 167 138 125 96 135 112 128 132 140 170 179 176 169 163 153 148 142 140 135 130 115 101 79 43 52 79 97 107 104 87
508 477 436 357 329 273 270 273 271 273 266 242 201 187 152 129 133 79 90 137 181 201 173 162 153 152 147 164 152 149 145 125 112 121 109 93 76 80 78 86 87 72 60
525 501 419 342 282 256 298 337 357 389 425 376 190 156 150 161 130 140 175 200 192 204 175 167 156 145 140 132 145 142 126 119 112 107 112 96 75 59 85 76 51 67 64
527 459 369 311 296 341 415 449 484 584 550 394 210 119 182 176 186 204 204 204 204 200 197 188 156 125 106 147 160 127 126 112 97 107 98 74 51 36 43 55 75 70 83
457 418 370 406 437 540 628 735 762 782 726 253 162 149 141 176 180 195 220 200 190 186 172 159 145 152 158 176 172 144 119 98 96 97 92 71 72 59 64 68 82 81 71
488 513 553 666 820 824 803 917 1062 528 178 149 141 99 109 147 188 203 210 208 197 183 173 154 133 149 149 148 137 125 107 98 91 107 94 94 55 56 59 64 84 99 90
686 718 823 911 1068 1097 1078 886 343 94 128 157 91 77 130 149 174 193 217 219 201 182 167 141 134 137 145 137 123 108 91 84 85 94 102 81 83 75 83 78 72 52 43
975 1046 985 890 844 829 624 154 120 183 159 79 92 107 126 145 173 189 223 225 219 176 159 139 130 148 134 123 110 88 70 77 79 68 62 42 31 30 55 70 50 30 3
1173 1196 1072 735 491 331 94 122 137 124 111 107 105 110 123 144 159 175 216 251 212 184 152 136 127 138 128 103 101 84 77 74 81 83 97 74 61 52 46 81 62 38 32
620 473 463 503 224 108 110 119 113 107 105 93 105 108 123 161 172 163 195 249 213 199 166 154 135 112 110 80 63 95 87 83 81 102 118 98 83 69 67 77 80 72 40
308 222 161 167 152 126 123 127 104 94 96 99 116 120 128 141 169 160 172 197 201 213 183 152 142 98 83 50 61 53 42 68 117 128 127 109 90 72 57 56 55 61 71
163 161 147 127 124 131 126 102 102 105 120 120 142 144 133 136 173 150 150 155 183 232 184 150 131 116 67 55 44 34 38 74 97 107 116 131 122 88 52 37 53 51 40
125 116 119 133 121 104 99 110 123 129 140 151 153 155 155 157 164 181 189 190 179 213 166 155 161 152 116 81 62 47 66 79 101 118 128 133 112 82 73 63 42 41 45
115 114 110 103 104 113 121 132 147 145 166 168 168 171 167 148 145 162 186 195 204 169 181 205 165 156 124 101 69 69 61 63 93 122 144 122 100 85 75 66 47 26 34
112 124 129 135 138 145 154 151 141 151 139 134 118 149 175 140 99 111 124 116 132 156 204 198 165 146 148 122 73 70 74 64 88 126 124 126 107 85 76 63 47 37 14
103 116 144 156 171 182 198 213 200 187 149 151 133 113 99 99 81 87 115 127 134 163 203 183 149 129 133 124 89 90 76 82 117 134 116 102 96 82 79 65 44 30 5
114 111 133 150 166 183 215 235 270 265 261 250 181 122 101 93 101 92 89 108 158 172 226 218 189 160 141 123 96 90 74 85 144 127 113 95 94 89 83 73 52 42 -4
114 128 148 156 180 199 209 215 261 263 287 250 200 176 132 74 80 91 71 116 141 192 219 219 195 170 147 123 105 95 91 111 153 138 121 110 99 98 85 73 60 36 -1
118 136 155 165 178 184 194 207 198 175 180 187 198 146 111 140 106 123 141 126 118 136 138 163 180 154 146 132 108 95 95 104 130 128 120 105 98 106 86 70 66 52 33
128 141 156 162 166 166 163 159 150 143 132 136 103 125 145 141 113 106 135 127 95 94 110 144 171 157 141 118 106 109 103 97 120 123 130 108 119 109 80 72 68 52 45
145 165 177 179 171 171 162 165 174 150 108 77 52 127 88 104 89 110 115 102 87 78 87 131 164 174 143 131 114 107 107 113 131 124 122 124 126 105 94 73 58 56 45
170 176 178 169 156 143 143 151 168 137 86 55 40 100 164 118 145 178 176 154 129 79 57 58 212 194 121 122 120 122 128 124 136 141 139 135 133 122 111 82 63 52 48
171 155 156 138 133 127 134 145 148 143 133 183 293 279 274 248 207 179 134 96 60 55 41 26 96 74 94 115 116 121 121 117 132 144 144 141 132 125 125 101 76 54 44
154 136 128 117 113 115 116 132 133 120 100 77 87 125 107 128 129 115 120 61 50 42 52 57 63 71 95 177 138 115 116 104 136 180 167 153 139 140 135 119 98 72 51
138 126 111 102 118 125 125 118 112 98 96 71 2 -6 19 22 37 49 68 56 56 60 48 54 76 95 111 96 96 97 70 94 131 169 231 193 170 147 146 137 105 79 65

GFSGL_con_3kmhel_033.txt.gz
Helicity
367 413 492 517 519 509 505 482 500 431 352 333 264 271 240 217 214 134 120 145 168 147 134 122 112 150 148 140 150 154 157 143 151 132 105 71 74 72 69 86 75 74 77
470 493 418 431 427 407 426 409 348 314 282 263 278 286 264 220 168 114 142 142 141 146 143 151 132 164 160 170 162 144 160 163 157 135 109 89 89 85 83 83 72 69 79
482 392 388 393 360 362 365 314 315 318 310 304 319 355 348 224 130 138 147 130 129 141 153 160 153 163 166 162 158 155 161 173 170 158 135 126 119 107 93 82 61 63 67
391 392 387 321 348 340 332 314 427 386 389 366 415 461 351 128 149 154 148 159 153 153 164 184 169 156 149 153 147 145 163 162 156 148 139 132 132 100 91 58 40 58 52
424 416 326 343 380 364 415 473 461 429 554 643 632 415 138 172 164 136 182 193 184 205 205 191 187 168 133 141 171 150 167 161 143 139 133 135 109 88 76 68 49 45 51
416 373 388 415 395 449 531 641 774 870 848 761 362 161 180 168 103 147 210 222 218 217 211 201 189 156 150 149 132 142 161 153 136 148 146 139 112 97 88 65 60 48 39
465 493 517 569 681 766 769 859 898 918 634 380 188 186 174 113 104 139 201 239 231 228 227 208 190 171 154 153 149 156 136 110 104 154 157 142 128 98 81 62 55 68 75
595 669 736 815 823 899 979 1102 1021 554 242 196 216 158 132 105 105 127 188 243 241 235 228 202 182 160 148 151 165 151 121 111 109 131 142 124 123 98 103 77 50 35 54
679 759 807 809 863 882 930 677 309 290 201 219 164 149 116 97 98 131 214 249 257 233 227 206 188 161 120 113 169 142 105 90 87 79 81 79 83 74 61 83 56 35 21
655 746 859 898 992 578 367 266 190 175 156 167 118 105 96 107 103 116 187 288 276 243 229 205 154 169 121 112 160 139 108 82 81 79 90 100 112 107 64 90 79 52 38
399 403 384 287 220 166 106 111 111 112 151 133 121 111 118 120 110 104 140 258 251 261 252 229 194 147 128 109 107 142 114 88 68 76 86 103 113 112 111 93 90 105 64
169 152 149 135 127 127 129 114 127 145 143 127 134 133 138 134 120 110 120 165 197 256 211 206 204 148 128 107 107 89 59 72 90 87 93 93 109 110 108 83 75 76 92
183 186 169 133 115 116 128 134 146 140 154 156 165 166 168 164 152 112 106 130 147 228 223 183 172 150 141 132 96 82 69 90 88 98 85 105 115 111 92 77 63 66 58
168 146 130 131 125 126 133 139 153 163 176 183 190 192 191 192 183 176 170 179 165 171 172 177 203 216 195 183 147 114 106 95 101 102 100 103 104 111 101 88 68 56 48
129 128 125 128 129 135 146 162 179 191 207 216 226 238 235 219 200 170 153 175 182 180 180 208 204 179 200 179 154 131 107 91 106 118 116 118 113 120 94 82 79 63 60
131 128 126 121 120 123 135 139 146 158 179 198 207 234 235 205 165 126 111 96 97 123 213 235 193 189 171 173 156 133 126 90 90 108 108 124 112 108 89 74 77 81 58
122 108 97 96 99 107 121 143 147 131 131 148 170 158 176 172 150 116 108 103 98 100 208 220 187 186 171 167 136 137 108 92 97 105 120 121 112 97 87 78 72 74 65
110 112 111 116 126 132 146 167 185 195 186 167 136 160 185 133 65 74 116 102 140 147 160 194 187 185 194 190 132 125 110 94 102 100 125 123 120 109 98 81 75 78 69
88 89 105 113 130 151 164 175 183 187 186 192 158 133 141 132 107 65 73 104 127 124 128 166 185 183 172 191 152 135 120 108 105 117 130 134 128 120 96 81 74 66 62
76 86 104 118 137 157 168 177 181 179 177 165 136 111 91 139 130 93 109 122 102 95 112 157 149 141 146 137 160 142 122 110 105 108 115 138 130 122 99 83 78 72 65
80 106 134 143 165 170 171 172 173 168 152 128 101 91 76 146 127 109 98 102 84 81 104 142 130 137 156 147 144 144 118 105 117 115 132 133 131 113 88 91 70 62 59
119 124 140 149 155 165 161 156 162 155 147 133 123 129 296 269 202 163 133 78 84 135 158 122 64 80 142 188 148 136 127 99 101 107 113 125 127 105 106 100 77 62 55
133 150 157 168 171 161 154 149 134 126 124 122 119 91 101 141 173 234 261 208 218 196 124 86 57 52 47 150 197 131 115 106 90 104 115 131 127 129 127 108 90 70 58
154 167 174 166 159 147 140 131 114 117 119 115 111 100 58 23 29 40 61 63 81 137 100 55 44 31 28 35 107 70 89 93 104 111 120 128 131 152 143 121 108 81 60
172 177 170 151 160 137 116 112 107 109 111 101 91 77 68 42 6 24 27 29 27 60 81 74 61 60 49 70 78 105 153 106 121 115 123 133 136 157 160 137 123 99 78
163 172 152 145 144 123 118 110 97 104 97 82 74 72 70 65 65 56 60 55 40 62 78 74 92 86 86 71 66 99 106 109 132 105 158 135 148 162 173 149 128 114 100

GFSGL_con_3kmhel_036.txt.gz
Helicity
211 208 235 249 303 363 353 369 422 470 477 325 276 218 180 227 306 283 208 129 118 139 145 144 130 137 153 193 206 218 218 238 246 188 168 154 140 103 94 95 91 100 97
242 278 287 304 318 281 277 346 448 444 362 246 298 326 306 352 291 278 122 120 157 165 144 142 130 178 162 176 207 200 210 232 250 195 181 150 120 103 97 93 92 91 99
320 313 294 301 298 260 317 362 397 468 374 293 400 402 274 362 466 174 123 164 178 153 139 156 146 172 174 201 202 203 219 214 217 229 179 151 123 108 92 91 84 86 84
313 332 304 269 273 319 364 389 405 308 354 393 394 368 472 645 170 126 186 194 166 162 158 171 165 191 187 191 202 198 211 215 214 198 171 142 130 111 101 90 76 81 79
286 280 270 294 333 355 387 419 492 465 579 656 515 812 959 168 140 164 184 187 189 182 188 181 187 178 155 189 223 197 221 219 198 180 154 138 123 111 95 96 90 82 63
290 299 308 342 367 374 416 488 577 725 840 660 828 751 207 167 166 124 151 184 206 225 213 192 194 176 168 148 152 168 194 208 188 183 148 128 114 110 120 108 101 67 58
334 365 392 418 455 481 563 674 748 841 806 796 679 244 194 181 139 88 106 190 221 227 228 227 220 204 184 184 169 181 167 148 151 161 135 130 124 118 113 102 91 90 85
380 396 403 445 545 601 731 857 793 874 652 259 236 212 193 123 107 88 99 167 208 225 236 233 239 212 201 202 198 193 167 157 143 128 144 107 106 100 123 127 124 112 107
349 377 407 479 560 588 835 576 490 249 200 212 191 157 129 114 93 86 124 173 197 206 224 239 238 224 171 151 207 178 160 138 125 79 79 62 50 54 81 130 116 111 88
328 346 336 286 299 326 246 182 182 174 177 138 116 133 119 127 101 114 136 197 202 207 220 229 197 212 168 158 213 194 176 134 140 110 96 69 63 79 73 126 128 130 108
183 178 185 172 129 124 137 148 135 122 112 114 134 128 135 144 142 131 142 184 196 207 233 236 239 182 158 155 173 219 180 146 126 113 94 78 68 77 89 107 115 139 122
183 180 192 161 132 127 112 105 104 112 128 131 150 145 162 162 149 148 138 145 166 229 227 220 215 170 144 157 201 175 128 141 152 126 107 85 81 83 83 96 89 104 108
185 170 154 132 121 114 114 115 125 135 152 156 167 170 166 187 202 164 155 148 140 184 207 189 159 142 113 170 166 175 167 185 170 151 113 99 107 95 89 93 83 75 67
187 176 152 140 130 125 123 125 136 143 160 167 182 195 205 222 245 222 221 216 182 176 159 155 169 170 156 156 227 215 180 191 179 155 125 107 94 108 112 97 96 75 75
167 147 136 122 121 114 112 113 132 150 174 194 216 225 223 220 217 212 238 246 223 201 191 154 201 212 190 169 182 157 161 186 182 163 135 114 102 108 101 93 90 79 91
144 127 116 105 100 97 93 91 81 88 119 144 164 203 212 206 157 155 164 142 123 138 174 182 184 176 171 155 168 171 175 175 166 155 131 112 101 109 93 85 87 84 74
117 105 90 90 88 88 88 88 85 83 88 106 112 107 120 136 140 129 109 120 72 90 162 195 168 146 154 135 167 182 173 154 154 152 132 110 110 108 103 84 81 81 69
100 117 104 94 92 100 108 113 120 129 123 111 112 125 135 139 109 82 90 101 126 116 133 113 101 120 147 144 164 166 116 144 149 130 133 119 123 122 105 91 79 82 68
89 77 79 76 83 95 107 121 131 143 156 163 139 109 117 116 95 52 57 122 129 145 81 100 89 113 122 139 115 156 127 144 147 142 124 125 126 136 99 87 75 69 67
71 84 78 78 94 106 114 126 149 166 172 162 139 117 72 47 27 121 119 152 147 108 108 117 102 71 108 144 144 132 126 130 139 129 107 119 134 142 106 87 83 69 56
52 66 94 97 112 126 135 149 160 158 151 141 113 95 96 78 63 80 128 178 206 235 231 187 92 84 89 100 131 134 133 110 120 129 124 116 138 129 102 80 73 66 48
84 95 98 113 127 149 157 161 151 139 138 125 103 98 94 83 69 51 55 57 110 165 195 194 188 133 85 69 45 102 161 135 111 127 125 119 123 117 112 83 74 67 51
99 116 123 145 159 161 152 155 143 131 124 111 105 97 93 89 78 53 -5 10 18 27 75 127 151 159 112 69 46 56 62 188 120 114 122 122 119 117 126 103 91 81 57
115 133 146 155 152 149 152 153 136 110 112 105 105 100 94 82 71 55 40 1 -62 -55 -12 30 68 75 90 67 53 60 45 116 111 94 105 118 120 129 136 133 116 90 71
142 150 149 141 156 162 149 139 127 113 116 108 100 93 77 66 60 59 56 49 41 39 41 73 67 89 96 118 84 75 60 69 94 66 101 98 118 139 144 148 143 114 100
137 149 147 149 167 154 138 128 117 115 114 103 93 86 71 63 61 65 61 67 77 70 59 106 108 115 133 134 103 86 90 91 81 133 126 124 121 141 152 153 156 129 113

GFSGL_con_3kmhel_042.txt.gz
Helicity
80 121 135 105 97 100 120 123 147 185 223 269 230 293 321 334 370 300 265 438 247 182 82 83 106 145 132 128 123 126 123 130 140 103 129 102 172 145 111 110 104 92 83
112 92 60 84 109 127 144 158 172 198 250 170 214 304 324 319 298 315 359 347 264 88 71 95 118 139 151 114 119 120 122 124 130 108 134 130 126 164 126 108 96 88 76
98 106 117 133 171 173 183 177 181 162 170 171 255 310 351 264 319 393 629 458 112 82 91 103 134 124 141 129 123 132 137 133 137 146 139 131 125 136 119 110 95 74 64
146 149 165 162 165 170 170 155 168 190 165 284 384 330 377 465 439 746 342 171 118 85 99 119 102 109 125 130 126 138 145 136 139 151 149 135 124 119 128 106 92 87 64
185 196 206 217 236 233 231 204 200 192 233 321 355 511 509 492 603 256 213 202 117 104 114 104 105 112 141 156 163 154 154 157 166 153 152 145 126 124 126 124 101 77 59
215 218 208 209 216 222 222 217 231 256 282 297 368 393 365 332 362 271 236 183 123 114 108 95 113 140 164 202 210 186 160 171 169 165 153 146 116 117 123 110 98 78 67
204 211 199 193 200 201 203 211 254 234 265 221 250 179 187 191 221 183 159 145 120 97 105 107 110 121 190 152 196 215 219 210 192 136 152 134 118 104 115 99 85 77 65
215 189 164 165 181 190 191 195 173 176 169 119 92 108 120 125 155 108 124 109 105 93 106 108 111 115 122 190 138 168 206 178 186 185 139 113 112 106 111 100 87 63 53
168 169 171 170 178 157 143 112 79 80 93 95 142 132 105 86 80 112 126 131 137 130 138 125 137 138 128 202 194 182 185 186 207 266 186 177 187 171 125 120 102 80 64
181 187 185 165 144 145 131 138 124 98 85 76 69 74 87 82 99 117 133 153 163 173 155 159 184 173 133 196 217 200 198 163 143 209 208 151 146 128 126 123 94 81 65
181 184 188 174 143 111 99 93 94 94 90 96 98 93 93 103 107 142 151 178 194 207 216 217 224 235 183 171 167 175 194 137 112 149 198 163 143 129 120 141 94 81 70
187 170 157 148 128 115 113 109 101 109 109 108 112 112 116 119 150 169 170 190 218 270 255 235 207 197 203 184 175 127 99 168 163 190 216 180 173 131 106 120 117 94 82
208 186 179 157 140 129 134 131 121 116 117 123 121 130 137 168 161 164 172 200 197 218 227 211 181 172 137 175 121 107 141 170 165 202 199 208 212 108 111 117 135 95 73
218 230 189 197 157 145 124 125 133 140 140 133 133 139 145 153 174 253 214 195 185 189 204 200 168 145 115 127 147 182 153 133 128 165 150 133 194 150 115 102 114 86 72
245 225 203 175 163 145 142 144 148 173 151 132 147 138 147 155 209 194 205 205 186 151 146 170 166 134 127 129 131 100 113 91 104 116 108 138 171 150 104 98 102 76 66
239 212 195 174 155 146 144 124 135 126 133 149 171 170 153 192 196 195 197 176 134 140 133 145 132 116 93 74 138 113 84 71 80 72 89 121 102 126 134 116 93 71 57
235 202 167 149 142 137 124 123 120 107 86 75 110 129 195 184 195 187 175 138 103 129 169 195 142 82 36 51 89 95 72 95 94 76 83 75 110 122 163 133 86 74 54
211 177 139 129 127 122 120 105 91 99 92 97 118 147 191 185 166 156 154 119 136 137 156 158 125 93 53 23 32 88 76 81 72 69 96 70 87 103 143 139 64 70 52
159 140 126 123 122 108 96 93 100 100 97 97 116 140 186 169 109 124 126 141 131 117 118 124 121 93 62 18 138 69 87 61 70 82 85 54 74 110 127 117 52 73 64
135 134 112 111 107 103 101 107 112 108 109 122 123 145 165 154 157 143 119 107 103 105 101 93 87 73 63 23 83 166 175 65 59 57 71 52 63 108 120 106 70 83 58
112 112 106 105 111 109 109 118 121 125 128 128 133 170 181 153 151 137 121 108 100 90 81 68 58 63 54 41 54 82 98 172 110 60 46 41 50 84 114 96 77 59 46
121 116 110 109 101 115 127 132 140 148 144 138 145 171 165 148 144 130 122 120 101 76 66 54 50 44 59 56 68 76 94 111 161 131 63 36 20 65 99 98 85 64 44
125 118 108 112 121 129 138 154 163 168 154 145 160 170 165 147 134 123 119 106 92 73 59 52 46 43 40 45 65 66 85 81 95 95 68 59 27 53 90 98 61 54 44
127 125 127 131 152 153 163 161 178 167 154 157 167 175 166 142 117 105 105 93 85 73 58 49 47 34 43 48 49 65 70 61 71 62 64 42 43 50 73 82 56 38 39
122 122 130 150 157 162 163 186 184 171 173 171 170 160 141 116 100 97 95 98 89 75 54 50 46 37 36 36 32 34 72 80 86 94 60 40 55 52 56 67 53 44 44
130 137 150 158 163 169 182 197 194 180 170 162 150 134 117 100 90 88 88 72 65 59 50 50 49 37 31 36 30 37 63 105 102 123 87 55 51 67 56 56 50 59 57

GFSGL_con_3kmhel_045.txt.gz
Helicity
136 101 126 155 130 154 143 128 166 253 197 182 197 235 323 334 282 280 285 270 346 432 352 228 57 77 117 142 176 175 179 185 193 159 120 96 115 140 131 155 177 148 133
211 152 129 144 138 149 150 183 203 183 172 194 254 311 221 292 336 286 407 366 487 407 172 91 54 93 115 161 194 163 149 161 173 150 140 156 153 124 138 190 186 120 116
125 148 193 175 180 206 228 251 261 248 283 286 268 245 417 306 303 478 530 482 324 187 125 94 88 80 148 180 165 174 174 157 174 184 181 164 153 151 152 159 156 164 118
160 157 202 181 182 195 219 233 231 227 233 256 325 387 265 366 367 439 490 230 169 157 138 91 105 115 118 118 139 160 172 170 188 204 202 182 151 139 171 170 160 136 160
184 197 224 235 235 223 176 191 204 208 231 269 236 238 297 332 304 280 184 129 192 162 144 102 111 104 103 114 120 143 183 193 210 204 233 202 199 168 179 148 196 164 130
254 292 269 278 264 267 274 269 254 242 259 233 235 257 240 166 162 211 185 219 198 162 132 93 89 104 121 151 160 155 150 170 178 197 221 216 188 183 160 191 194 170 134
253 256 245 242 251 250 258 252 235 224 202 201 181 159 149 135 170 148 158 147 149 136 88 110 117 118 126 126 155 212 199 188 213 227 208 195 155 163 167 176 153 142 125
216 220 236 246 252 231 230 221 207 185 174 159 158 161 166 162 140 116 119 117 113 102 104 110 130 140 141 155 174 184 199 209 202 218 205 187 138 114 155 154 151 140 125
241 256 238 213 220 228 243 232 208 199 187 195 175 133 104 82 89 101 119 117 135 127 120 127 149 174 178 203 211 221 192 172 181 210 212 218 319 242 220 201 180 164 163
217 193 185 190 211 223 226 218 165 141 127 114 105 100 118 95 135 123 123 165 161 171 168 169 179 184 172 200 240 217 235 197 124 117 201 203 221 231 194 244 144 159 139
216 218 212 214 201 174 170 173 159 157 147 142 125 119 119 132 162 283 260 207 215 217 210 205 217 199 240 245 246 237 229 158 127 112 102 180 173 161 151 177 173 124 82
200 183 180 189 198 209 186 169 154 156 164 157 154 145 137 148 229 248 266 268 234 199 194 209 220 216 170 135 143 127 135 165 192 139 130 151 169 185 214 174 249 105 98
214 230 232 230 237 212 199 188 196 182 175 181 155 154 145 155 150 259 221 187 177 192 198 182 131 109 102 145 113 104 110 130 148 194 212 184 139 167 160 246 195 85 112
235 257 271 267 235 212 197 189 214 201 182 161 155 157 153 155 190 202 164 151 150 154 156 148 137 126 112 126 137 108 124 125 151 112 93 79 84 177 214 183 181 128 106
285 293 288 268 244 214 226 230 196 188 176 168 183 162 166 150 194 154 132 129 135 134 131 146 142 138 125 108 94 76 70 150 151 102 100 74 97 128 151 183 162 99 95
315 306 285 258 240 212 199 151 172 179 149 159 165 159 143 182 154 129 115 114 108 103 144 169 163 155 131 113 88 17 57 182 148 77 52 52 67 116 151 143 132 126 113
348 306 280 242 217 205 178 165 154 107 72 79 110 117 142 129 130 120 130 133 107 154 171 172 161 153 135 106 53 4 -20 119 65 81 99 98 67 94 112 128 141 144 136
365 361 254 203 183 159 155 151 149 155 140 123 125 142 170 150 143 134 155 161 198 181 162 148 137 132 129 112 78 27 35 99 92 77 82 56 62 73 84 107 133 134 132
286 235 205 167 145 135 131 132 136 131 124 120 127 128 194 192 132 110 140 178 185 178 162 138 120 116 105 97 74 40 2 117 131 83 72 55 66 59 54 72 135 116 113
202 192 164 128 109 116 126 133 132 124 118 129 145 177 184 170 164 165 168 178 178 163 143 124 109 96 81 73 64 41 14 51 148 233 60 68 67 58 41 74 131 113 126
147 143 137 126 144 147 143 138 136 128 127 142 157 191 196 174 150 166 174 183 181 157 129 114 101 84 69 62 56 52 48 63 98 146 238 230 54 43 36 61 119 109 120
143 141 146 152 142 145 148 142 141 137 141 155 165 173 174 149 169 178 178 181 155 125 120 107 96 84 67 54 50 38 60 83 80 108 121 137 161 54 35 45 98 105 117
169 163 152 155 159 143 129 146 143 152 160 166 165 172 175 178 181 173 170 152 128 118 104 102 92 79 61 51 50 50 42 46 63 60 78 103 91 69 42 29 71 113 121
164 161 166 165 166 159 159 161 155 162 162 157 167 172 175 177 168 159 146 126 113 97 92 81 73 54 52 43 44 46 45 34 36 57 75 79 60 76 49 30 65 94 89
146 151 152 161 160 163 163 166 182 174 169 169 171 174 165 162 161 151 127 110 100 87 79 67 75 58 47 35 41 39 47 37 33 47 65 91 68 59 39 52 59 96 69
138 148 158 166 172 180 183 187 185 178 179 177 183 171 167 164 158 137 122 98 90 88 62 76 65 55 48 57 50 50 51 58 53 56 73 80 81 65 59 63 42 83 70

GFSGL_con_3kmhel_048.txt.gz
Helicity
256 412 403 352 283 191 201 186 196 231 279 287 272 261 293 340 425 425 295 292 381 453 506 527 202 85 151 165 171 198 214 251 259 260 227 191 195 202 217 219 234 267 262
320 329 218 167 219 215 199 194 214 264 268 254 226 245 302 424 468 392 321 334 370 509 429 212 111 139 148 153 173 197 215 202 249 228 234 230 199 187 217 216 228 248 277
195 275 156 177 275 297 294 268 263 278 260 282 311 345 353 406 397 328 303 273 540 331 221 189 117 128 134 151 147 194 207 193 215 280 299 282 272 260 241 242 254 251 243
190 251 361 363 293 264 284 295 319 340 377 381 337 324 363 385 384 236 324 281 335 258 211 206 152 134 123 130 135 141 148 191 215 278 299 319 303 279 267 294 283 279 271
302 347 356 266 234 230 262 287 298 306 327 329 337 348 350 318 259 243 270 266 227 198 204 166 125 96 68 91 121 149 165 177 194 238 288 333 338 311 294 250 274 284 281
391 417 349 319 270 219 230 200 230 256 261 276 280 295 307 280 268 272 239 196 212 209 168 133 116 79 81 88 114 139 177 220 238 254 239 244 270 281 268 245 253 279 260
409 393 398 403 383 360 321 313 327 293 289 282 266 250 225 204 190 155 171 176 145 125 116 106 106 102 100 121 136 150 158 175 223 286 296 261 229 227 222 200 200 248 244
337 336 299 266 251 278 281 313 299 291 260 234 212 194 202 205 167 144 139 124 110 105 113 115 121 130 148 170 190 212 230 247 252 262 243 216 209 217 241 211 198 231 207
221 198 209 231 268 294 309 281 249 234 223 264 234 210 188 157 150 112 113 108 136 151 137 138 162 182 207 232 250 265 249 248 192 155 130 137 168 186 254 294 314 298 294
215 244 262 279 289 299 271 270 259 237 218 195 165 130 159 254 296 262 187 193 203 180 152 132 127 144 179 232 239 247 244 241 213 175 153 154 207 212 243 244 235 293 309
300 322 325 312 270 214 186 173 173 213 262 267 236 214 216 247 268 255 244 185 162 134 132 136 155 150 159 138 124 169 181 169 149 123 61 46 159 125 176 208 225 260 237
364 317 249 193 184 212 248 263 274 270 260 228 239 241 225 253 251 242 257 235 183 151 150 150 148 127 119 120 141 122 112 160 189 158 135 126 83 140 174 173 185 205 205
270 277 281 264 271 256 272 261 316 284 296 272 254 240 253 240 221 265 222 184 158 153 154 144 108 99 123 173 150 160 166 195 184 146 118 109 98 139 122 130 139 225 196
345 315 285 304 297 319 322 343 346 340 298 256 244 250 242 245 225 173 138 129 138 143 142 127 122 124 138 151 143 122 131 116 126 174 116 109 115 93 112 125 153 223 224
400 384 368 314 308 419 454 382 299 286 257 257 252 237 219 218 190 161 138 126 127 128 123 136 139 159 159 157 126 113 99 48 33 53 134 139 111 97 74 102 167 172 157
531 477 384 408 413 382 320 319 283 168 159 178 192 189 174 187 178 152 139 122 115 96 135 148 169 177 177 160 137 104 89 52 31 5 72 80 92 85 81 101 165 190 154
626 537 514 535 544 477 374 249 179 124 91 95 108 117 151 147 160 140 108 107 94 122 179 190 189 190 184 157 133 106 83 73 29 23 44 96 87 101 119 110 150 153 136
629 649 684 595 440 367 327 257 228 213 149 97 59 54 94 157 156 131 104 120 170 207 223 213 202 194 176 151 120 103 78 66 51 31 127 51 77 77 72 82 105 138 154
738 730 645 558 362 272 253 219 198 179 174 178 173 142 192 224 165 115 132 156 159 174 188 186 186 181 159 129 110 94 79 56 26 8 85 217 116 66 65 64 66 109 141
764 565 284 208 217 216 183 184 191 194 196 194 204 227 238 173 140 159 175 178 183 192 193 177 168 155 136 118 108 88 71 44 34 -14 -4 117 205 210 66 56 47 62 180
219 230 217 195 171 167 179 188 198 201 201 200 197 205 174 152 149 157 182 183 202 194 174 166 155 135 119 110 101 81 65 35 40 58 31 -2 97 298 261 89 26 66 155
222 170 136 137 145 175 197 196 197 190 193 197 213 214 196 166 164 183 180 192 177 171 166 151 134 113 104 98 74 81 59 38 43 26 85 82 63 114 140 89 66 45 130
150 123 126 147 160 154 135 165 186 189 214 209 203 198 202 202 196 179 177 170 165 162 137 124 115 108 92 76 81 70 56 40 28 49 50 72 65 105 114 73 56 121 127
114 132 155 162 163 156 162 206 191 191 194 198 206 204 208 201 187 179 172 164 153 139 117 110 108 86 87 81 66 59 62 70 72 39 35 19 64 81 98 73 44 64 45
122 141 145 150 162 164 175 178 203 213 219 217 207 211 200 186 186 178 160 150 135 119 119 81 84 82 73 67 79 87 79 54 48 51 58 43 41 92 111 95 85 48 94
127 139 153 163 175 195 209 213 214 222 229 224 229 213 196 192 179 163 155 139 137 116 81 86 77 75 74 83 67 55 61 82 88 73 58 35 33 89 109 105 89 47 106

GFSGL_con_3kmhel_051.txt.gz
Helicity
226 254 365 363 385 318 255 195 188 159 179 189 215 268 294 319 329 363 370 361 310 424 318 404 253 277 211 167 189 161 179 215 236 226 234 199 222 195 161 223 251 298 329
160 260 294 383 281 256 402 287 240 223 173 203 248 283 288 319 351 379 360 379 429 368 406 187 195 225 228 157 170 160 166 160 235 205 219 215 241 220 239 265 277 287 307
60 171 291 318 239 302 282 276 251 274 218 261 278 277 307 353 376 365 336 326 419 266 144 239 234 249 191 159 128 135 146 151 200 228 202 256 232 243 264 279 317 313 314
88 304 338 321 361 374 317 249 232 249 305 311 289 305 337 340 362 371 336 226 211 172 214 253 193 175 153 136 119 116 119 177 193 223 246 237 266 215 288 321 295 338 310
365 413 357 344 372 369 338 311 312 331 351 364 379 393 366 347 335 305 245 275 195 227 244 165 163 127 105 110 121 138 184 198 215 240 250 289 302 299 306 280 301 301 319
394 404 423 413 397 354 345 324 338 362 378 364 342 341 319 318 293 264 287 302 248 225 176 141 110 92 91 102 113 118 156 227 248 295 272 293 277 332 307 284 282 334 391
484 480 497 504 463 390 344 355 353 346 339 346 335 331 321 309 262 286 314 257 213 157 128 114 116 130 130 162 161 159 174 186 215 283 287 275 257 261 281 222 216 228 243
537 545 505 448 437 450 433 368 346 319 309 290 294 285 279 252 229 231 200 179 148 135 131 149 168 167 143 154 136 138 163 172 197 228 263 267 260 217 203 192 163 176 243
445 415 401 416 411 395 367 347 314 303 284 271 264 290 287 259 185 170 185 180 187 207 193 170 152 137 158 185 162 151 145 138 151 162 174 182 177 153 124 137 201 225 194
343 331 308 312 349 334 300 271 268 279 278 272 275 309 337 327 291 271 252 221 228 201 172 148 147 144 146 165 173 163 150 156 167 157 161 147 128 126 98 95 124 198 256
309 301 334 340 336 322 321 314 287 285 310 315 385 371 374 338 325 310 266 225 185 148 133 116 103 112 120 124 138 174 193 190 191 208 195 167 146 135 130 162 94 150 147
407 390 381 384 363 330 285 266 299 332 343 357 429 411 374 336 301 291 267 240 192 150 132 112 113 109 112 137 163 177 194 198 210 233 205 195 203 170 149 117 168 199 173
428 415 397 372 353 314 325 372 421 392 379 388 462 421 398 328 280 273 259 220 195 151 127 118 117 123 146 149 175 170 163 198 208 188 178 122 133 123 98 100 61 90 114
432 431 463 482 449 471 495 505 482 457 490 494 466 425 346 288 227 181 168 149 147 139 133 150 145 148 128 141 148 143 156 180 191 162 154 99 39 115 86 104 62 89 120
487 522 527 599 658 676 600 478 511 483 408 435 381 322 291 260 220 185 162 146 134 129 128 149 162 142 152 143 142 139 149 167 170 153 163 107 30 106 149 109 107 83 75
635 651 631 620 636 619 574 571 525 453 416 323 276 256 248 203 189 167 156 159 172 168 164 171 167 172 167 149 147 149 141 154 151 129 132 123 84 62 67 69 97 95 75
760 777 772 732 646 558 472 505 557 364 255 234 233 203 159 158 172 176 165 178 207 215 183 188 190 183 150 166 175 165 152 146 119 101 108 111 90 129 54 58 81 84 97
862 839 766 737 695 659 641 528 450 386 220 195 133 123 149 150 158 165 132 140 163 178 186 181 181 165 160 172 173 161 147 132 113 91 98 104 72 79 133 44 68 84 128
732 695 673 666 666 634 480 342 270 262 245 182 136 200 198 160 173 155 201 172 163 169 190 199 175 155 163 166 164 153 139 128 106 89 81 62 35 98 225 212 57 46 69
668 689 692 472 318 285 263 264 222 180 182 203 234 219 197 174 160 178 223 215 220 212 203 177 161 170 161 155 149 135 124 108 107 93 72 38 3 41 147 272 249 142 56
464 337 290 262 239 206 182 153 161 185 204 207 207 193 188 183 162 180 206 213 202 191 168 153 155 146 140 143 144 127 115 106 92 72 60 48 43 48 88 177 181 108 75
249 228 204 197 172 165 134 146 161 179 197 220 228 207 218 186 189 201 203 196 175 158 147 149 139 134 139 139 126 128 112 93 73 78 79 61 52 101 80 131 144 110 91
185 175 156 137 123 108 127 157 188 201 202 207 213 219 229 236 233 224 207 184 177 169 149 141 142 139 121 109 119 100 89 89 95 90 71 60 82 78 136 107 96 85 67
128 126 122 111 106 130 153 174 192 209 225 227 224 233 240 230 224 218 207 185 165 143 130 132 122 110 112 91 92 102 102 104 96 62 68 64 66 90 88 141 134 123 87
108 107 119 142 156 171 193 212 221 227 232 240 265 257 244 240 238 225 200 168 150 136 138 119 106 107 98 94 96 92 91 76 68 64 66 60 63 84 81 94 126 122 106
119 142 148 155 175 187 196 224 241 247 249 242 234 222 205 209 204 179 167 149 153 127 94 80 92 96 96 88 76 70 60 57 65 80 74 58 56 66 60 72 131 118 107

GFSGL_con_3kmhel_054.txt.gz
Helicity
199 185 188 106 48 122 93 176 209 214 255 114 217 222 216 259 317 326 343 359 346 339 326 359 362 325 191 164 170 227 217 220 261 233 213 197 213 182 168 197 215 246 258
144 290 386 214 236 282 303 79 192 284 250 245 190 188 218 270 290 325 334 323 355 393 337 339 273 266 175 178 214 215 184 201 245 216 209 217 190 155 173 191 212 238 269
300 274 275 280 415 432 186 246 208 277 303 266 205 205 232 275 299 301 324 368 309 365 263 230 266 228 189 202 247 197 193 169 161 190 177 189 196 206 203 207 221 236 239
355 362 265 353 366 323 379 319 224 238 270 219 189 223 278 318 337 345 367 347 288 233 265 250 242 155 174 219 176 176 186 200 185 181 181 192 222 211 255 251 262 288 294
402 336 269 242 248 249 289 380 309 263 226 239 293 319 333 339 335 367 341 333 339 271 245 232 175 184 170 160 187 172 172 178 174 188 199 224 248 258 266 279 324 266 287
245 206 266 307 297 313 372 394 361 314 302 331 361 385 388 346 320 333 331 315 314 259 212 222 225 204 212 215 217 216 177 181 184 213 245 252 241 252 277 279 288 342 302
275 332 328 363 401 404 439 425 401 356 390 397 392 364 344 318 288 299 303 315 306 281 270 258 235 232 234 201 174 151 127 132 156 190 225 240 231 258 278 266 266 267 294
409 437 439 499 483 482 469 415 384 370 357 352 355 366 366 331 325 319 368 350 330 305 277 264 264 255 221 171 149 133 114 126 153 180 193 182 209 216 235 237 233 218 204
458 482 498 511 501 443 404 357 354 371 379 367 359 356 349 328 314 361 382 355 328 329 307 282 245 229 207 205 168 145 128 135 145 138 136 120 104 107 141 205 224 227 241
395 409 429 418 391 352 353 347 341 347 364 346 354 375 383 398 387 379 340 341 380 336 301 277 266 220 200 183 164 154 145 129 127 120 132 132 132 155 125 177 225 206 185
336 370 401 367 328 303 317 319 337 362 390 460 491 481 510 497 481 420 355 334 324 302 270 248 211 187 178 175 190 167 156 150 139 145 144 151 162 167 177 202 191 173 150
378 387 347 304 311 317 349 370 393 430 484 502 541 572 543 494 451 413 373 336 289 260 230 175 154 172 183 192 197 204 208 180 176 179 168 164 171 165 150 148 152 121 141
377 341 334 351 336 338 369 417 441 452 488 501 519 511 495 476 441 408 364 294 244 180 151 160 168 180 193 192 201 221 191 176 181 192 190 175 170 161 139 115 107 97 64
358 367 380 407 464 485 491 454 446 472 491 469 473 462 433 431 389 319 274 199 169 186 170 165 169 166 166 172 176 181 182 183 194 192 185 176 168 166 148 139 136 93 83
426 466 499 517 535 579 626 557 541 516 455 484 467 449 474 457 342 259 256 252 213 163 151 162 184 179 165 159 170 176 175 182 195 190 197 199 184 162 130 88 96 101 96
538 523 530 583 606 621 646 706 709 604 570 522 477 432 389 309 266 270 252 231 218 188 159 161 155 146 147 157 158 164 161 175 177 175 198 201 175 150 120 107 84 80 77
609 610 631 654 641 635 618 581 581 577 527 440 346 283 258 298 285 281 235 192 190 169 167 170 160 162 155 168 171 179 171 160 157 174 185 179 155 132 116 100 92 116 90
799 748 716 699 688 667 612 574 556 553 509 345 308 282 254 299 272 194 169 164 195 201 187 201 201 187 186 197 192 181 168 163 169 164 175 160 133 127 118 93 44 132 82
849 829 809 793 720 634 574 520 412 339 297 241 199 211 171 151 184 188 195 180 181 190 193 197 192 195 199 192 182 173 166 174 169 158 154 141 144 115 107 71 29 227 265
799 651 554 509 481 430 374 337 293 255 238 229 192 165 162 182 175 162 173 182 194 195 187 187 194 201 186 181 182 169 170 176 158 157 141 132 129 103 80 40 38 169 227
415 435 406 375 367 351 321 277 244 233 220 197 184 186 178 177 174 181 190 191 201 202 192 199 195 178 177 173 175 187 180 171 144 140 124 110 103 89 78 53 63 103 160
307 301 292 268 244 237 226 215 198 183 167 160 170 179 209 194 191 204 211 215 206 194 193 184 182 178 168 167 166 163 146 138 140 127 112 93 80 86 82 80 91 82 121
243 218 191 178 173 173 172 164 168 162 157 176 198 220 236 246 247 251 252 234 214 211 202 190 177 183 155 143 131 135 137 121 106 100 87 77 73 83 89 95 115 94 97
174 179 171 151 149 137 136 146 155 181 201 221 234 246 252 244 259 264 249 215 215 196 177 182 174 149 138 136 137 130 109 105 96 75 62 61 67 87 92 98 95 125 102
137 142 143 138 136 139 148 162 180 201 212 216 243 251 243 240 243 233 228 208 182 183 178 163 136 124 122 130 120 106 97 75 62 54 65 58 56 80 94 82 108 95 129
138 142 146 157 176 198 212 230 240 245 240 227 219 208 197 196 193 199 189 190 182 170 143 117 113 118 120 103 87 76 64 59 60 64 64 46 49 69 79 78 94 87 118

GFSGL_con_3kmhel_057.txt.gz
Helicity
146 137 110 131 164 135 116 117 180 173 160 191 109 110 85 107 149 226 265 259 281 323 356 347 361 338 255 316 264 276 265 207 201 229 221 195 189 150 153 163 170 195 208
128 115 168 150 88 114 131 191 261 253 115 138 160 141 104 179 194 222 277 283 329 335 349 335 346 313 217 261 286 298 228 193 227 201 184 167 150 148 154 155 152 186 227
369 164 71 60 125 200 240 277 142 244 104 74 125 173 216 243 224 232 258 295 331 360 362 342 295 265 265 340 306 286 192 205 221 206 189 164 154 150 150 150 161 160 178
490 379 286 249 247 276 323 323 243 140 282 304 199 199 237 253 260 267 302 322 341 335 333 331 276 304 306 308 289 275 198 198 201 220 203 186 162 130 156 179 184 206 201
415 380 318 320 339 294 291 277 239 233 264 296 303 283 289 267 298 321 348 352 376 382 340 368 309 314 354 335 344 265 220 251 238 222 210 188 164 155 158 176 210 194 210
387 386 387 427 397 299 229 286 325 335 314 310 314 327 287 298 311 337 363 378 378 348 348 332 371 442 412 358 345 282 244 240 225 204 191 175 163 155 176 193 206 215 222
376 409 461 427 342 275 335 322 320 354 364 341 336 330 337 329 324 341 372 371 353 324 356 412 484 426 385 348 312 254 212 184 145 170 175 172 165 163 163 169 194 227 238
345 319 338 355 360 334 316 347 389 367 379 365 377 376 388 355 325 362 394 385 413 460 468 455 441 392 362 300 257 235 200 173 165 166 165 157 155 147 159 171 191 197 225
347 309 331 390 417 383 366 391 397 415 424 405 371 382 360 384 389 412 460 498 507 501 471 429 391 357 305 261 253 232 197 168 152 149 133 123 125 117 127 187 207 259 264
385 377 379 377 365 382 378 385 373 374 380 406 422 416 434 464 443 451 459 457 473 466 434 396 372 331 309 274 240 229 225 200 166 149 137 135 117 118 106 179 228 268 289
392 345 310 291 308 351 397 380 383 402 456 498 566 562 556 480 456 435 399 400 415 442 411 383 340 306 272 255 220 204 226 179 157 136 130 132 137 149 153 177 208 243 259
384 361 332 311 311 360 408 400 383 426 477 506 544 592 595 580 528 489 458 420 366 391 379 319 276 254 228 203 226 226 197 161 132 125 121 130 144 152 160 163 170 191 208
404 377 362 383 382 374 373 409 445 446 454 461 502 524 538 531 509 490 475 436 383 332 266 241 228 182 194 214 215 194 173 141 138 137 143 144 145 153 151 159 160 172 172
376 364 385 418 438 434 440 424 424 421 433 442 458 495 489 479 465 434 393 349 290 259 231 232 247 258 214 212 185 178 167 163 149 156 163 160 156 165 168 167 184 159 164
409 420 449 468 488 528 539 457 454 439 369 418 427 445 478 485 458 423 379 346 298 258 295 263 263 263 239 204 187 170 168 162 182 181 176 179 183 175 168 185 185 149 157
412 423 436 457 465 472 515 598 601 470 441 452 453 473 514 466 422 446 474 363 272 219 258 267 251 214 191 191 200 186 164 167 172 167 175 190 186 170 174 175 158 137 121
462 450 431 434 436 443 463 523 610 707 711 659 576 495 505 548 404 330 317 263 253 273 267 234 191 198 216 196 171 167 168 170 159 168 167 173 169 172 180 157 137 119 104
665 686 710 638 549 512 544 578 557 492 471 476 401 333 323 361 371 356 316 253 263 271 229 235 228 176 173 185 189 183 176 182 173 170 161 177 175 184 169 161 140 122 80
717 718 714 665 587 503 419 371 343 325 312 311 307 298 291 318 276 258 250 213 197 202 209 190 184 189 192 191 188 177 175 171 164 168 171 184 181 175 153 136 115 113 62
646 582 431 380 377 355 340 334 317 293 302 299 273 268 242 224 203 164 136 117 132 145 149 158 178 186 184 183 179 167 169 184 188 178 180 176 172 168 146 123 103 86 66
412 413 390 370 376 376 368 358 331 312 290 270 253 245 224 190 156 128 126 132 144 160 183 200 203 204 193 178 178 200 197 189 174 177 162 146 154 144 128 115 89 71 45
338 330 348 354 347 341 304 272 252 234 220 206 197 196 207 183 183 192 205 216 219 235 227 219 209 196 188 192 189 181 173 161 158 150 145 140 130 118 118 101 87 78 66
263 272 276 258 228 215 207 196 190 184 186 192 197 209 210 210 216 233 254 261 246 228 215 210 208 202 186 172 156 154 148 139 132 129 130 117 99 96 91 86 78 79 81
194 186 170 169 169 172 172 178 178 190 181 185 190 198 210 210 228 237 234 229 227 218 206 200 190 175 168 157 151 151 138 123 122 109 96 76 71 67 74 82 88 90 89
130 135 142 144 149 155 167 177 186 190 195 203 213 201 199 196 186 190 195 188 191 183 179 169 155 138 128 123 121 117 117 109 97 77 72 59 50 55 74 83 90 91 86
117 123 120 125 135 149 159 171 183 188 185 171 162 166 184 195 195 180 160 158 147 140 135 129 122 114 107 104 99 97 94 76 68 60 55 52 53 60 65 60 68 76 82

GFSGL_con_3kmhel_060.txt.gz
Helicity
152 120 110 96 88 69 23 -8 19 27 34 66 90 45 25 79 126 126 156 192 195 216 247 263 267 329 340 342 351 318 312 300 300 291 288 194 159 164 144 144 135 138 137
226 171 117 80 62 100 137 106 120 77 109 98 129 175 184 226 157 163 170 198 198 224 264 313 323 346 352 381 391 331 324 339 331 275 244 171 169 166 155 145 129 122 136
323 281 234 181 140 110 178 138 172 171 163 243 130 161 139 186 168 154 214 253 216 242 313 326 354 399 415 432 361 262 277 339 316 248 223 161 169 160 158 142 136 128 131
357 355 341 263 223 224 290 256 246 261 212 136 100 99 158 178 186 216 249 251 204 264 281 320 378 366 386 414 371 364 323 328 298 240 233 213 180 152 158 175 159 121 123
296 358 370 376 268 221 242 282 284 264 240 170 137 184 232 230 242 219 237 237 260 287 315 368 391 388 406 385 329 384 330 343 288 279 258 235 209 198 189 152 151 133 108
258 299 291 300 264 240 269 292 269 244 202 179 272 315 262 267 257 258 281 282 318 340 389 460 518 485 500 372 475 425 357 289 272 274 253 236 215 186 147 148 142 135 130
278 273 281 274 258 249 262 284 275 222 279 316 294 283 235 265 240 267 317 351 379 412 454 486 518 465 496 436 462 427 329 278 279 240 227 208 191 138 157 146 129 148 175
273 292 304 321 283 289 271 262 296 347 356 322 280 261 287 286 301 356 443 482 498 464 457 479 491 489 461 429 420 355 310 267 236 203 169 151 126 133 126 122 124 139 158
305 332 333 345 276 316 324 379 360 336 300 284 290 318 328 341 404 459 544 516 532 546 543 517 488 486 448 378 339 330 299 266 202 207 177 136 141 129 139 159 154 168 185
304 328 325 327 328 307 319 303 292 303 355 365 408 404 407 442 438 478 477 501 520 511 524 512 484 427 385 345 319 287 296 254 226 195 160 170 162 144 146 158 166 192 203
364 370 315 275 258 251 283 282 307 364 445 485 537 558 596 529 483 446 430 428 426 447 458 464 423 383 343 325 292 281 280 223 195 224 226 182 135 133 152 152 160 180 195
325 318 284 271 259 276 338 368 410 466 546 540 567 620 593 545 494 462 459 443 384 413 421 403 383 353 329 317 306 313 274 275 277 222 195 195 150 144 140 140 131 148 156
295 298 315 320 302 300 337 377 438 456 470 436 433 464 494 509 502 476 447 419 392 400 365 366 376 358 340 369 371 386 322 255 222 235 216 147 123 126 114 128 139 133 139
288 305 315 360 390 387 393 378 380 363 358 322 352 378 378 392 417 433 474 492 490 458 417 388 367 412 418 367 327 271 252 258 251 183 150 125 122 138 149 153 168 172 164
283 296 318 339 367 422 437 354 303 287 219 225 264 310 361 415 455 472 476 476 453 440 428 429 419 372 337 288 294 312 257 202 200 171 143 152 163 167 164 173 172 173 182
329 323 329 343 351 370 423 524 538 406 393 430 474 494 533 507 454 420 395 383 383 387 386 349 318 301 310 291 246 218 205 180 169 173 170 167 180 181 177 171 167 174 178
328 327 359 394 432 461 473 511 641 610 574 483 442 445 419 377 354 335 315 321 308 272 277 307 312 278 238 229 207 185 177 178 179 168 171 174 184 174 170 179 174 185 167
495 543 502 483 524 517 483 426 331 318 381 364 343 311 308 307 323 316 263 289 279 253 221 199 195 201 201 201 201 194 178 179 178 177 176 175 175 193 193 181 173 160 130
540 539 529 519 517 471 372 340 317 278 267 266 293 357 342 340 338 316 293 231 203 187 196 200 199 204 201 195 191 181 173 177 172 185 191 185 191 181 164 159 146 127 113
644 667 578 555 500 449 388 330 290 274 257 256 282 280 253 244 237 207 176 159 167 180 184 183 203 208 203 192 184 180 193 182 181 181 181 175 166 160 155 148 130 112 109
478 502 451 406 361 301 280 277 273 278 282 286 285 253 239 201 184 176 169 187 200 199 209 223 216 206 194 181 180 179 173 173 176 173 166 155 159 152 138 120 113 107 82
280 254 240 240 232 249 251 249 246 235 223 217 217 243 255 231 233 233 236 230 230 230 221 215 208 200 201 195 190 184 181 179 179 171 158 149 135 122 119 117 113 100 76
190 194 201 200 190 191 196 192 188 187 197 211 213 215 220 215 213 218 219 222 213 207 205 199 202 196 186 177 169 163 169 164 146 133 131 120 109 111 111 100 91 81 62
136 136 135 135 138 146 161 172 178 202 201 206 201 192 187 182 195 199 191 179 179 174 166 166 161 159 161 156 151 145 129 118 106 105 107 87 84 86 78 72 68 59 53
111 122 139 141 143 140 154 165 171 172 173 179 173 156 155 157 161 153 134 130 130 126 123 122 121 116 112 107 99 90 87 82 93 74 68 61 60 56 57 57 58 57 58
112 121 119 119 123 124 124 132 135 133 134 130 126 132 133 130 117 102 99 99 98 92 87 90 89 85 76 66 58 58 65 56 49 40 47 45 53 55 50 48 46 48 58

GFSGL_con_3kmhel_063.txt.gz
Helicity
119 110 82 63 42 25 6 2 7 -16 -35 -56 -48 -35 -4 55 75 73 49 54 73 96 158 173 164 170 235 272 283 285 295 293 255 326 293 254 230 224 177 150 194 195 162
157 147 138 114 94 60 29 27 75 72 77 72 33 19 68 117 129 142 110 134 177 183 191 143 165 231 242 293 333 320 309 362 403 285 232 175 197 214 174 209 216 183 153
168 188 187 178 171 158 135 103 79 61 42 64 78 104 102 147 187 153 183 203 193 172 202 163 242 267 299 379 379 400 357 360 379 308 312 254 212 223 223 245 199 169 136
190 172 197 236 235 193 151 177 176 185 127 119 127 123 133 166 209 206 208 191 290 181 238 273 276 265 332 374 402 444 470 360 399 278 285 270 230 210 230 245 212 171 140
134 147 219 284 235 209 193 210 221 187 171 189 159 122 137 125 146 204 215 204 242 258 260 261 267 288 338 382 477 482 457 378 401 324 277 285 261 240 234 241 213 203 153
148 151 128 175 224 256 230 217 208 184 171 179 170 150 147 185 184 244 230 248 272 280 304 297 326 354 420 513 565 515 401 348 394 318 302 276 257 236 260 242 225 237 233
144 116 142 164 198 203 186 154 177 201 176 172 173 172 226 241 250 241 267 285 294 313 356 429 499 520 594 662 591 529 487 457 367 296 296 290 285 267 259 237 235 234 180
161 170 183 196 181 186 184 170 154 158 173 181 189 260 248 254 239 263 298 326 358 369 415 463 560 594 556 437 540 470 450 407 378 341 313 300 238 205 185 180 212 208 154
153 143 159 165 172 184 172 145 224 246 260 304 322 284 269 250 249 336 444 453 494 543 534 562 590 523 484 421 459 457 432 415 365 311 253 238 242 221 217 264 240 195 193
166 150 146 172 222 288 320 275 268 289 325 311 320 285 266 296 338 421 469 540 636 647 670 523 473 467 402 397 426 412 404 373 338 315 281 281 219 287 309 247 236 221 165
249 225 214 222 254 269 323 295 314 333 358 380 408 403 383 376 407 420 427 504 551 531 502 463 428 392 392 406 400 405 384 336 322 302 318 308 331 364 240 246 235 186 161
214 236 259 316 341 310 301 304 303 328 371 391 429 501 551 549 510 486 454 388 342 359 376 387 369 348 381 403 394 386 362 332 327 347 362 342 312 266 293 241 151 159 159
307 307 353 368 321 324 314 294 315 343 384 439 503 571 605 578 535 440 423 447 421 397 354 315 313 336 379 423 392 352 328 331 334 266 272 262 271 251 160 148 139 133 133
223 230 245 265 290 283 277 262 276 311 345 358 372 375 372 439 390 441 441 468 494 507 472 418 394 369 341 296 288 307 271 235 229 230 209 196 181 151 144 140 145 154 148
153 156 176 243 264 328 395 340 318 310 254 273 285 261 282 343 356 396 417 437 422 390 354 326 289 258 244 246 234 228 233 227 205 194 201 186 154 149 148 149 157 160 175
204 154 186 226 263 295 337 427 417 307 332 362 387 376 385 360 355 350 325 299 276 262 273 256 267 253 242 227 225 228 211 196 206 193 163 153 156 162 165 165 172 196 207
225 227 252 280 287 311 353 398 447 517 521 428 362 337 291 265 277 263 230 236 249 238 245 237 235 228 233 236 226 217 218 199 181 164 164 167 174 180 177 199 217 203 206
352 405 393 390 393 379 412 419 400 383 426 478 398 299 274 250 231 226 220 209 219 227 236 231 229 222 219 217 210 202 191 182 178 177 178 181 187 216 246 235 217 205 182
442 468 496 473 509 540 496 425 413 417 351 268 240 274 268 285 302 294 259 233 227 221 217 208 203 202 203 201 201 194 192 191 189 187 205 227 230 226 220 209 188 162 147
486 502 441 449 437 414 387 312 230 228 234 227 226 218 211 213 234 237 228 214 207 208 205 203 205 207 209 208 206 204 200 214 221 223 232 230 222 212 198 187 169 155 134
319 339 331 333 277 241 206 198 187 188 194 214 238 243 240 201 196 190 190 207 211 213 217 221 226 231 225 219 214 227 217 211 209 214 217 210 201 194 172 150 129 111 97
223 216 223 213 196 212 201 195 196 194 192 191 191 213 223 191 190 199 213 223 225 225 223 222 214 203 194 196 195 194 189 190 192 193 189 173 155 144 134 120 107 91 77
133 146 154 160 160 171 176 172 174 180 188 196 198 202 208 205 205 207 204 195 185 178 175 171 176 173 169 162 159 156 157 159 159 153 148 137 123 112 99 86 79 71 60
108 118 124 137 150 162 178 189 192 210 195 190 185 177 167 158 157 168 153 149 145 148 139 139 135 134 130 121 119 117 110 110 102 90 81 84 74 73 69 63 54 42 32
113 121 134 133 137 137 146 158 163 160 154 148 151 145 141 137 138 137 131 125 121 117 115 104 101 98 88 81 72 65 65 63 64 67 52 40 38 38 44 39 33 25 17
113 123 122 120 127 127 128 133 133 130 128 122 116 112 109 105 104 102 102 98 100 93 89 89 80 73 59 53 47 49 43 37 34 29 28 25 31 35 31 21 13 19 25

GFSGL_con_3kmhel_066.txt.gz
Helicity
41 37 46 54 58 58 25 -3 -10 21 28 21 7 -18 -49 -65 -11 18 23 45 91 118 140 142 131 141 212 250 264 193 196 260 263 256 360 296 293 327 230 191 209 158 190
72 60 44 30 47 59 52 41 44 23 41 71 73 53 41 45 66 89 107 140 165 153 113 124 155 214 184 242 190 243 252 299 247 299 409 253 352 261 288 229 233 221 202
84 79 74 73 79 78 72 63 64 33 24 1 27 8 26 69 104 116 146 211 244 241 204 176 194 238 246 268 292 292 318 346 409 408 343 417 377 395 332 251 237 266 205
134 119 118 112 115 121 113 84 83 103 114 120 106 75 69 91 110 142 174 239 271 320 316 285 242 310 265 345 384 379 375 461 413 441 491 464 373 341 301 297 249 251 243
117 120 141 162 152 126 121 111 118 134 125 115 123 141 143 153 187 185 198 237 225 181 207 251 267 278 314 310 422 413 447 461 522 509 492 444 385 374 286 310 284 279 245
84 79 45 78 131 180 167 158 144 144 138 137 136 125 129 161 195 214 217 212 101 119 211 281 286 301 345 335 367 397 414 565 544 573 496 405 332 341 316 323 317 299 298
80 48 65 64 86 97 120 136 152 159 152 145 136 132 111 113 197 263 226 202 211 238 274 372 414 389 378 435 554 608 651 645 561 420 389 391 301 331 340 313 287 312 316
110 99 93 111 111 118 121 130 126 145 165 158 134 111 119 126 162 191 194 203 308 328 353 356 385 449 531 611 706 779 751 618 549 410 413 428 418 366 298 304 313 307 271
112 118 127 127 123 131 142 166 159 174 167 172 168 163 162 227 276 323 349 414 437 459 439 434 490 607 660 699 828 599 519 419 457 478 475 483 426 348 307 361 354 317 225
102 116 114 109 134 134 140 174 250 265 312 339 350 309 305 288 235 273 376 450 523 552 572 579 533 604 680 623 664 389 422 375 384 391 390 373 311 345 269 238 270 236 249
117 133 148 124 134 171 239 303 362 410 403 395 418 388 339 296 332 399 438 441 497 555 601 669 776 742 546 499 442 416 368 350 415 413 396 372 304 239 234 248 237 247 248
128 166 252 316 390 376 307 375 338 336 376 411 413 439 436 423 431 424 397 427 447 533 586 618 576 475 385 432 422 382 408 403 394 368 301 215 206 235 225 232 226 206 187
206 273 335 428 457 396 351 336 360 350 345 387 377 432 465 497 559 605 600 622 631 616 475 375 325 371 395 383 400 396 354 263 204 200 237 241 240 246 226 214 179 163 147
268 297 338 392 415 408 361 352 303 294 308 327 356 428 426 464 477 472 452 422 418 420 400 411 350 371 352 296 235 178 195 216 217 223 233 239 235 214 194 186 187 168 161
342 284 308 331 342 377 407 335 323 325 284 308 342 363 399 440 414 355 372 412 396 356 328 281 246 189 144 141 170 178 187 190 220 240 228 226 208 185 181 164 154 161 165
306 339 339 306 304 315 345 388 488 399 429 450 443 369 365 323 344 384 396 344 306 255 244 219 205 185 169 149 153 163 190 211 247 227 207 193 185 179 181 187 179 193 211
199 305 356 347 334 303 454 610 524 615 570 490 424 376 341 310 319 326 323 281 223 181 208 190 184 187 200 223 239 247 248 237 199 190 195 197 197 196 201 209 226 239 263
219 225 219 297 399 464 469 468 391 401 473 483 552 492 367 285 248 227 156 123 155 196 198 201 212 226 236 235 223 215 209 210 209 215 217 223 224 222 249 252 258 268 255
297 308 339 383 444 473 423 376 369 413 424 400 323 295 244 218 208 214 210 209 205 208 205 217 222 222 221 213 224 212 215 223 228 212 219 224 225 239 249 252 254 234 210
325 369 341 321 312 287 250 254 229 230 226 189 181 165 145 149 194 222 237 233 229 222 217 226 217 216 213 209 202 205 201 205 206 219 231 224 220 225 234 237 228 217 199
240 277 278 281 287 257 248 241 226 218 201 204 231 266 291 223 214 204 199 212 215 211 214 206 194 191 189 184 178 182 177 188 190 196 197 198 209 212 205 195 182 165 149
196 197 197 206 204 212 203 194 189 190 189 188 191 210 221 196 196 199 194 187 178 179 168 167 165 164 155 152 150 155 150 147 148 152 161 166 158 156 157 148 134 116 99
133 140 149 152 151 166 173 174 171 173 181 188 186 193 192 183 177 167 159 152 146 140 143 145 137 132 125 118 107 109 107 108 111 112 110 109 109 109 110 97 81 72 66
101 114 121 135 148 154 161 163 172 199 181 172 168 163 156 147 141 136 132 130 121 114 109 110 103 111 119 105 101 94 84 87 81 70 52 54 60 55 56 51 46 38 37
127 133 144 151 152 150 151 158 154 148 145 137 125 118 112 108 109 104 99 94 94 93 102 94 99 96 82 82 63 58 65 65 51 48 47 32 27 24 30 31 28 22 14
137 140 133 127 131 130 128 126 129 123 131 123 116 103 103 97 100 97 97 92 105 99 95 94 78 66 56 53 56 76 64 45 38 32 33 29 26 28 26 17 7 12 6

GFSGL_con_3kmhel_069.txt.gz
Helicity
81 74 69 65 73 54 53 78 87 153 134 143 154 163 140 113 98 84 73 57 28 59 68 91 106 174 194 215 255 265 271 311 292 246 256 324 280 272 460 345 281 293 231
89 77 78 63 45 72 72 65 70 89 100 112 149 170 178 183 150 127 93 107 108 86 94 130 193 263 228 254 275 295 283 219 163 287 293 367 447 499 424 372 263 255 242
101 98 103 103 88 90 77 72 82 80 78 76 85 102 104 112 127 132 145 150 175 160 127 164 290 294 362 365 376 326 324 296 292 276 346 494 509 435 382 402 421 348 344
138 130 136 151 150 147 133 118 118 100 108 114 143 131 91 93 104 102 133 140 139 156 188 241 341 419 390 387 441 412 370 355 399 416 544 604 527 630 451 461 414 283 273
140 149 175 198 147 122 145 165 164 165 166 150 154 158 160 182 192 176 167 170 192 211 256 330 323 318 297 328 392 380 422 446 534 526 561 564 648 494 533 465 456 361 340
109 149 160 164 171 168 182 191 186 178 206 231 228 223 219 223 207 225 205 219 238 257 315 244 244 249 251 273 286 361 487 498 427 500 525 620 541 655 467 468 398 448 408
132 93 120 147 145 148 143 165 173 198 191 204 221 239 250 256 272 295 280 241 265 321 400 380 331 389 361 332 375 554 650 577 472 453 588 642 667 476 460 401 341 353 344
88 116 119 130 143 151 148 132 140 187 207 219 218 234 239 243 246 253 270 267 256 268 301 356 412 446 424 492 580 718 766 800 709 862 846 1071 751 429 307 351 351 340 423
100 97 112 178 169 188 223 205 186 207 223 224 221 212 209 186 267 280 308 315 376 465 481 493 495 516 488 559 683 790 797 755 826 573 687 467 431 377 386 361 384 391 398
62 106 64 115 167 189 205 225 229 242 223 264 387 454 468 315 319 250 275 431 492 508 514 515 479 448 445 483 576 652 714 663 586 553 414 351 333 299 349 422 366 324 291
131 130 183 169 143 164 169 189 206 348 545 605 581 541 452 406 367 364 429 459 480 526 514 534 534 571 601 635 678 597 598 540 355 347 447 333 247 281 268 193 192 234 264
197 218 346 467 430 445 384 534 571 552 567 612 528 463 437 470 544 460 444 479 465 517 523 545 560 628 640 590 531 460 388 326 325 212 181 228 226 185 155 185 226 234 241
223 248 254 325 378 418 409 420 457 484 510 461 414 483 429 487 501 482 470 523 499 520 537 540 571 543 534 537 497 336 266 266 209 207 203 167 171 222 237 216 213 205 202
197 289 325 390 455 511 489 495 477 412 401 443 458 524 447 430 409 359 448 505 558 546 508 477 424 364 294 263 267 248 219 204 187 192 194 201 223 223 208 217 220 208 209
173 229 325 395 437 513 558 484 543 535 437 402 386 427 406 475 488 477 455 452 421 411 403 359 336 312 240 191 174 154 136 142 175 213 227 238 238 228 207 196 189 186 186
250 214 74 251 372 426 398 415 444 383 424 470 473 486 547 487 632 664 596 443 337 278 264 264 257 215 187 158 140 147 178 196 222 216 205 198 195 200 207 206 197 178 192
88 111 198 97 105 312 566 560 553 624 728 710 736 784 733 593 477 309 294 314 283 243 261 256 249 236 232 238 233 224 226 206 158 177 193 191 195 193 195 188 194 209 214
209 227 168 167 174 184 205 272 380 461 526 577 574 443 387 342 304 248 221 212 240 233 215 192 201 209 213 217 222 226 228 220 208 213 188 179 173 175 181 202 230 252 256
248 255 258 322 290 253 258 260 279 275 341 293 234 259 243 280 323 348 345 261 232 229 209 217 227 233 230 227 213 198 181 178 160 147 159 171 190 183 186 198 213 226 230
331 368 322 309 320 327 310 325 291 298 302 295 261 193 169 173 201 230 248 228 223 220 200 187 185 182 194 195 177 178 172 173 173 162 166 160 157 168 178 175 179 196 194
235 254 264 250 247 223 217 212 194 190 196 206 220 243 231 165 170 177 187 204 193 190 202 197 171 161 161 165 163 162 143 139 138 137 135 138 140 135 128 129 146 158 157
171 174 175 179 164 163 158 152 139 132 124 133 139 172 209 176 170 165 169 165 162 168 163 149 151 144 141 128 123 124 127 135 131 133 122 111 103 98 97 98 103 107 98
137 151 153 157 162 182 194 196 186 185 193 197 190 185 178 172 172 152 138 133 124 120 115 119 117 123 132 127 110 112 116 117 114 102 94 87 77 70 70 66 52 48 48
132 139 141 155 174 169 170 168 173 199 175 158 150 144 140 131 126 124 120 113 111 107 106 110 101 110 115 99 98 91 84 96 86 81 64 55 52 49 42 34 31 23 28
126 132 144 151 155 156 156 164 161 156 153 149 144 138 125 112 110 107 105 100 98 95 90 83 93 97 94 98 83 63 87 118 80 60 51 39 31 22 20 24 23 20 14
147 153 145 139 142 143 141 141 143 140 138 130 120 110 102 96 97 86 85 90 95 76 74 88 84 93 87 68 71 120 93 56 45 45 46 39 34 30 28 19 11 12 5

GFSGL_con_3kmhel_072.txt.gz
Helicity
209 172 109 93 104 121 138 139 144 158 146 144 135 186 158 155 139 128 146 200 187 155 151 118 125 185 172 196 225 277 295 285 265 252 356 273 296 321 415 516 392 339 336
228 195 153 108 100 121 157 197 176 163 193 195 154 128 137 105 122 155 171 188 173 127 100 170 166 184 166 211 267 342 342 319 391 318 381 434 402 354 426 450 396 327 397
153 210 206 183 145 131 144 167 178 157 150 130 147 180 188 179 165 156 150 141 149 151 152 184 180 196 212 286 383 397 376 351 391 403 380 522 497 510 534 461 507 514 391
140 187 224 242 217 183 159 145 135 145 171 178 189 158 177 167 164 146 160 186 189 161 167 202 214 227 249 341 417 440 407 364 338 365 349 564 660 586 534 599 603 589 511
145 158 221 245 234 212 181 172 175 168 192 198 210 211 200 195 229 239 254 265 264 255 243 240 252 273 294 390 565 459 396 341 324 301 342 565 662 609 618 680 672 725 684
185 163 174 200 249 252 246 240 233 223 209 213 224 238 254 254 261 284 281 270 264 267 263 289 310 328 406 470 458 385 375 413 366 512 372 460 469 614 801 878 775 861 944
234 218 171 178 194 244 240 232 235 254 254 250 236 255 261 262 283 291 317 319 290 289 285 273 270 334 391 424 377 457 529 611 629 499 565 615 761 760 805 691 798 906 884
183 202 213 180 157 169 205 205 187 183 188 192 202 219 212 202 227 253 287 305 289 273 260 259 314 371 459 538 636 672 659 678 632 688 774 730 692 607 661 587 500 465 358
148 105 160 193 167 164 186 212 207 195 160 159 157 159 180 164 184 186 274 282 254 412 471 449 400 434 472 581 657 652 662 660 719 834 779 687 731 652 573 590 506 389 341
207 204 291 128 188 158 168 197 182 209 207 208 237 453 555 417 477 357 331 420 478 513 534 522 470 484 558 508 510 559 621 563 586 607 696 655 636 510 397 305 232 259 184
209 126 218 340 361 301 172 228 195 239 470 566 602 555 518 466 496 463 434 416 423 515 498 534 506 502 509 530 563 576 588 536 545 526 552 458 323 205 212 190 166 172 220
121 206 126 197 407 450 420 508 564 544 569 582 570 536 513 496 490 411 361 395 491 491 559 597 592 540 545 556 612 506 490 448 465 400 390 238 163 145 190 176 204 218 227
-3 83 121 205 271 334 504 460 451 477 453 501 525 584 579 610 628 580 549 483 651 652 447 524 617 631 603 516 471 430 459 452 425 387 275 196 180 162 159 153 162 171 195
-58 -36 25 53 122 256 298 389 388 384 445 507 577 621 652 703 757 709 604 740 651 571 527 579 660 660 642 535 479 539 473 341 254 192 147 129 139 143 142 160 164 183 196
64 47 15 80 51 120 166 378 390 424 396 484 547 641 747 768 618 472 417 468 619 627 621 701 749 654 643 410 235 164 127 135 136 122 124 124 136 149 172 195 209 217 223
98 67 46 46 146 32 107 186 265 473 428 510 628 559 496 379 402 367 440 512 488 428 373 392 300 193 142 137 107 100 112 126 115 113 149 183 207 220 218 207 206 214 217
177 123 112 134 152 120 102 9 55 231 405 450 444 468 527 525 630 610 582 489 344 274 286 280 251 236 201 173 152 140 133 168 196 206 203 196 194 197 197 198 199 206 220
232 233 191 206 244 261 264 247 211 181 190 233 367 349 404 413 371 312 278 262 285 273 249 239 231 218 206 206 207 199 182 163 152 148 161 168 177 181 177 180 187 213 227
200 180 178 230 285 264 238 271 303 297 286 260 243 308 321 349 354 322 293 235 185 192 196 214 217 210 198 182 186 188 190 180 159 155 159 159 143 137 151 153 154 163 168
237 280 219 195 181 185 170 182 197 199 223 248 194 158 139 172 214 217 230 229 229 202 159 160 179 208 224 226 216 199 183 178 167 158 139 125 116 109 108 100 98 104 121
180 211 236 198 203 180 163 167 181 201 209 222 228 198 191 152 160 169 182 202 211 237 243 232 188 176 164 166 162 154 145 132 126 118 117 118 114 94 81 83 92 100 108
136 133 150 172 186 176 158 159 151 148 153 145 146 179 206 163 158 167 171 168 154 163 167 184 166 155 144 144 134 126 125 126 124 121 114 106 104 103 100 93 87 77 67
72 93 117 113 118 144 173 183 152 138 142 146 146 139 138 149 153 140 145 144 125 110 116 133 119 117 110 111 114 118 118 126 129 118 118 109 95 89 80 71 60 54 51
132 137 116 117 137 154 159 165 153 174 167 155 142 135 125 118 115 118 109 105 106 91 76 80 84 85 85 105 101 100 114 109 102 111 103 89 79 69 62 53 50 48 49
131 127 135 135 135 131 139 152 162 156 156 157 152 151 141 122 115 94 87 95 104 98 87 84 91 100 109 90 82 145 138 109 82 83 81 67 55 44 44 52 48 35 14
113 130 137 133 139 140 135 136 143 137 135 130 135 132 121 123 118 107 96 101 92 86 91 91 98 99 86 90 144 99 64 64 63 59 63 60 58 57 47 26 5 15 22

GFSGL_con_3kmhel_075.txt.gz
Helicity
153 151 141 139 151 154 226 195 184 169 193 222 189 188 197 129 113 154 145 164 110 127 150 209 240 248 241 229 235 227 231 248 229 197 274 301 319 312 371 347 369 306 274
140 150 155 158 141 152 169 222 205 198 205 220 205 217 225 195 180 177 173 186 177 147 173 235 190 286 259 264 270 222 230 260 321 266 282 326 341 322 338 417 463 418 432
211 194 174 160 171 167 154 132 166 187 214 198 213 198 218 226 175 152 160 183 176 190 217 290 265 328 325 313 308 301 295 290 301 305 265 281 327 420 404 384 401 462 470
227 235 233 215 189 173 157 145 159 184 203 248 247 238 217 200 178 160 174 198 191 193 222 271 280 291 295 297 339 327 337 348 337 361 263 300 348 473 471 381 449 446 567
166 263 278 259 233 201 196 192 198 214 215 204 214 220 212 221 219 213 222 233 228 217 228 260 277 301 314 314 340 310 333 381 364 370 390 354 433 607 565 487 419 435 661
243 174 237 291 300 277 236 220 216 208 220 222 220 216 206 216 216 266 265 245 248 256 263 269 272 256 247 277 315 334 383 428 400 415 383 356 396 459 576 552 600 744 765
191 270 260 257 278 309 314 277 255 251 239 222 194 218 225 235 246 238 256 245 234 241 246 247 263 301 312 296 287 462 678 767 654 487 430 385 427 687 939 748 719 746 643
340 252 176 166 200 291 310 299 303 298 289 278 269 233 210 190 201 203 252 273 266 273 291 306 321 303 359 378 505 568 616 621 580 551 553 579 575 670 686 683 574 652 706
240 282 365 236 189 169 255 230 297 339 323 303 282 287 275 212 232 192 229 235 233 228 394 448 408 402 382 487 540 612 692 748 730 750 764 766 766 696 680 614 688 605 687
158 135 163 195 200 216 337 280 169 315 309 316 325 414 468 318 390 310 262 306 330 439 470 457 429 411 459 531 642 724 789 776 832 836 734 768 744 697 714 546 503 515 426
177 127 56 119 148 253 279 326 287 290 339 477 501 502 479 490 428 457 367 353 404 532 548 563 577 570 593 653 661 706 695 649 680 567 553 544 563 503 505 429 346 334 253
121 131 156 93 79 140 218 337 335 345 478 535 498 548 613 636 653 568 505 534 543 606 648 763 834 864 780 775 776 704 648 669 575 617 558 542 515 508 314 296 220 179 167
71 87 110 104 45 16 79 128 229 266 306 428 512 587 543 581 629 727 773 775 827 890 924 1053 1095 909 835 785 713 664 485 499 533 579 492 467 230 181 118 116 129 130 138
86 92 81 75 109 120 88 117 109 79 131 223 299 359 452 399 452 642 639 701 751 644 763 786 803 849 753 507 546 675 671 588 485 371 244 177 146 135 139 137 138 160 149
95 99 114 97 98 116 199 191 125 126 35 -5 46 155 322 413 392 414 319 505 514 503 532 656 510 423 436 504 554 394 259 216 205 182 170 162 167 164 158 153 152 139 138
143 146 170 156 131 119 127 180 396 417 399 378 287 163 189 197 225 207 225 317 353 311 367 348 296 248 234 204 176 161 137 140 131 140 156 150 141 137 135 147 175 198 215
159 187 191 190 189 187 167 147 198 316 452 494 410 369 376 312 309 322 314 308 304 263 211 188 182 168 156 154 130 131 137 123 117 113 111 119 125 150 164 179 178 176 189
212 246 207 195 191 201 188 189 202 237 234 259 387 343 333 350 335 284 263 288 284 299 249 215 199 190 173 158 147 136 124 122 126 143 154 160 162 164 166 180 184 176 189
171 186 221 229 242 260 257 263 257 245 235 229 229 281 283 298 327 337 320 262 229 228 211 218 204 198 183 178 177 172 174 179 166 172 162 157 156 149 158 153 155 164 155
231 272 218 178 179 196 206 206 206 193 186 180 173 155 145 177 210 220 230 222 225 196 168 171 175 186 198 200 190 161 148 144 145 143 145 151 155 143 147 133 123 92 79
178 203 199 164 156 128 114 120 119 126 130 138 145 140 152 141 155 167 177 195 191 201 190 174 172 173 164 160 165 158 155 151 155 144 131 119 121 112 103 93 86 76 68
141 136 146 151 145 147 124 116 113 114 104 101 105 134 150 134 141 153 161 161 162 165 154 133 138 137 134 145 154 141 126 124 115 107 111 108 102 104 94 86 88 91 90
120 139 140 143 142 157 163 157 143 136 132 120 116 120 123 121 125 132 146 148 143 141 125 107 95 104 100 101 106 96 107 98 74 68 91 95 88 90 91 89 90 92 93
144 148 142 148 159 169 174 171 162 167 152 144 134 110 103 89 83 92 108 103 114 120 90 49 53 73 77 74 93 91 74 72 60 63 81 96 93 88 88 87 84 89 76
153 157 162 164 164 161 163 170 164 149 143 148 150 123 114 118 96 99 106 106 113 129 115 96 89 74 78 101 103 87 80 82 77 85 90 101 87 74 73 70 73 57 50
121 126 129 128 130 129 118 122 147 136 115 114 125 108 99 105 98 108 110 111 126 125 117 99 102 109 91 79 71 69 88 92 89 82 81 77 62 57 56 55 46 55 61

GFSGL_con_3kmhel_078.txt.gz
Helicity
138 161 162 151 126 93 101 81 71 70 91 97 81 82 134 131 106 119 126 116 93 77 129 140 135 250 303 289 251 294 291 294 283 214 242 217 256 250 281 311 295 275 286
148 141 151 162 170 163 104 92 99 97 95 118 87 84 93 130 132 129 128 137 145 168 242 259 224 292 258 271 309 268 308 330 345 236 181 223 269 298 299 306 293 305 311
149 141 123 137 178 169 150 127 105 103 93 89 111 120 107 111 129 133 124 128 170 169 203 248 276 297 260 277 289 278 292 295 292 283 220 211 225 269 297 348 312 274 323
133 132 138 146 155 152 150 166 176 138 124 128 123 124 134 135 114 121 153 167 158 190 200 203 228 269 278 253 258 258 251 259 255 255 239 221 240 257 334 301 281 306 306
168 143 153 157 159 157 164 177 197 207 186 160 149 155 151 154 184 182 170 167 171 172 187 225 256 290 297 306 320 252 265 276 269 264 242 218 219 379 393 303 323 307 420
178 194 183 161 163 163 166 162 175 184 205 201 201 208 207 223 213 241 245 229 215 203 185 194 212 233 223 242 295 273 280 282 255 254 238 241 246 312 402 425 388 592 504
157 167 141 97 142 184 207 212 213 221 206 213 220 229 243 231 240 265 258 228 206 194 193 191 190 204 208 220 225 265 275 357 387 272 244 269 273 314 469 680 750 734 612
211 242 237 220 210 189 134 193 225 258 277 276 255 246 227 212 234 229 260 253 229 212 217 213 228 202 227 266 272 318 375 480 425 416 408 405 481 594 632 506 663 736 859
332 272 242 207 185 166 209 267 203 174 249 297 307 283 261 257 284 229 310 285 254 231 240 243 260 246 230 297 350 506 586 601 624 741 875 993 959 874 728 608 708 533 496
240 252 222 206 199 186 123 117 162 203 226 229 400 538 554 473 495 409 337 260 282 322 410 501 536 453 418 347 382 573 747 799 881 962 1052 1039 896 875 760 573 499 336 351
183 174 225 227 175 183 182 161 135 159 237 377 528 537 514 535 428 397 417 315 248 394 535 570 577 642 699 762 825 827 838 1009 1057 1053 1072 1083 914 843 686 569 563 587 542
136 155 157 151 167 215 228 228 194 121 169 285 385 485 495 506 535 428 377 429 407 501 628 658 726 726 789 824 867 991 1055 1018 1044 1019 1014 817 617 449 346 358 385 322 262
37 67 88 111 123 116 150 192 211 244 178 146 177 234 269 290 271 367 413 433 469 453 481 480 543 703 757 640 747 792 783 787 727 612 504 477 477 383 325 228 199 181 193
31 13 21 44 82 120 121 141 137 148 158 194 199 183 164 168 120 67 52 145 184 296 431 465 593 530 774 830 770 739 609 592 512 373 293 224 196 208 233 190 173 172 179
82 68 48 34 42 66 154 178 171 243 214 180 186 186 194 191 148 137 81 127 95 171 253 319 386 388 389 382 353 316 296 280 248 218 162 165 162 155 160 158 158 156 178
101 107 108 90 93 103 123 211 463 434 418 422 391 300 305 301 298 300 305 336 327 265 294 298 321 327 332 294 274 249 231 225 207 198 192 186 183 188 191 188 174 180 182
109 124 136 168 168 146 151 168 182 264 457 459 411 372 345 312 298 299 313 335 335 315 308 279 271 261 235 217 206 187 167 152 149 165 170 161 151 155 157 157 167 157 147
140 166 143 155 167 169 172 182 193 207 245 274 354 328 336 347 336 305 262 284 299 303 258 234 216 206 205 191 170 147 135 131 127 123 144 149 140 129 132 141 133 122 135
158 165 166 172 179 177 188 211 207 211 216 211 209 238 242 265 298 329 325 268 234 231 217 225 210 194 179 162 150 156 161 162 148 141 138 138 131 121 140 141 143 151 146
180 187 174 171 183 204 208 212 200 190 182 175 175 161 139 144 207 209 209 194 186 177 173 184 193 192 186 168 153 139 146 151 142 140 146 150 135 122 139 131 131 125 136
168 185 200 197 189 185 174 178 162 150 147 149 145 139 159 140 153 181 202 211 192 179 163 155 155 154 148 144 135 143 148 135 127 118 108 104 109 126 135 132 133 124 111
153 151 157 160 155 155 147 137 131 117 111 105 113 145 166 152 158 158 167 173 155 140 126 119 128 131 124 117 115 121 122 119 112 104 115 114 119 122 116 110 99 84 82
152 152 154 159 155 159 156 141 132 127 118 113 106 110 114 114 126 134 134 130 111 100 91 83 82 95 93 95 93 82 91 103 83 81 101 97 94 94 92 81 75 80 83
138 149 147 151 153 154 153 149 146 149 133 123 114 108 102 95 104 109 107 113 124 117 113 89 88 93 89 84 85 82 77 71 67 69 78 94 95 94 84 76 90 86 69
147 151 154 144 141 136 144 141 137 130 129 123 114 107 101 99 125 130 116 113 127 135 127 120 109 105 100 106 104 106 102 92 80 76 80 86 86 85 86 86 85 79 75
147 140 129 120 119 110 111 126 133 126 121 105 99 109 96 105 101 104 102 108 113 120 123 119 113 97 57 59 64 71 75 86 88 84 86 88 84 84 88 83 81 81 74

GFSGL_con_3kmhel_081.txt.gz
Helicity
108 88 42 42 57 51 32 32 29 23 26 25 51 75 99 136 185 157 187 158 80 34 125 168 143 171 209 282 247 248 210 238 187 173 215 219 224 235 244 261 256 245 251
104 95 90 66 52 53 38 31 34 37 36 40 48 54 60 70 86 115 139 185 190 157 171 187 95 173 172 201 273 302 280 306 373 233 243 227 275 278 311 275 285 274 246
70 92 86 96 82 57 26 17 36 44 45 43 47 44 37 42 33 91 130 148 175 149 152 165 146 182 196 258 302 293 315 329 344 334 277 236 243 273 278 264 210 162 179
75 85 92 93 108 105 88 77 58 45 46 50 62 63 55 50 65 100 127 136 143 133 114 141 172 200 178 207 251 251 258 286 279 294 293 253 230 223 261 181 151 188 221
89 83 92 107 111 114 112 117 136 137 114 95 76 66 79 96 105 102 103 94 111 121 144 175 182 201 197 222 258 236 268 284 276 266 269 265 228 212 289 222 233 227 284
96 115 115 104 108 116 125 140 168 187 166 144 142 144 125 125 120 136 157 155 166 178 166 168 179 190 177 208 257 247 248 277 267 284 274 252 225 255 218 281 306 291 290
263 207 174 95 66 88 94 106 114 147 196 214 204 193 180 184 197 212 209 182 170 188 183 165 155 182 186 198 201 254 243 261 259 235 219 236 233 255 248 254 316 351 328
269 264 261 246 211 169 153 71 95 118 131 163 185 214 211 215 244 216 260 276 242 215 223 231 238 205 220 249 248 247 271 265 285 286 258 258 292 347 407 434 460 671 772
218 198 193 178 193 203 205 215 206 200 160 115 132 142 165 273 321 327 261 230 242 243 246 220 226 200 186 225 234 276 362 551 513 550 648 651 636 685 563 515 577 673 760
291 258 215 208 206 211 216 228 190 165 189 234 359 407 438 415 384 331 246 223 224 214 345 457 438 357 370 335 321 340 487 649 681 704 785 826 757 756 765 689 701 708 772
248 265 279 275 254 259 218 214 222 185 170 208 258 322 366 409 390 345 242 159 262 359 415 438 425 256 320 383 387 399 552 889 981 922 975 844 863 839 849 806 797 690 596
166 196 220 220 206 200 211 226 244 217 224 240 231 267 308 322 366 311 240 148 88 164 241 361 372 370 161 269 354 455 564 706 692 636 728 660 775 435 462 486 486 443 447
103 90 88 86 98 135 175 195 202 209 199 201 199 199 200 212 221 277 288 276 291 211 207 289 419 482 500 589 606 694 575 482 497 528 453 605 510 400 328 275 205 152 171
87 91 84 90 74 60 46 81 112 129 141 164 186 200 205 218 206 180 166 170 227 228 146 285 421 523 603 607 617 623 566 517 489 467 449 366 290 256 230 187 176 112 134
88 90 105 112 122 156 232 203 213 280 218 200 225 220 212 210 186 206 188 185 204 220 248 314 361 401 414 399 379 370 352 342 323 273 239 216 189 156 148 134 141 129 129
119 123 124 120 117 110 124 205 408 405 417 401 359 289 301 336 332 322 315 306 294 269 307 325 334 318 297 253 240 234 229 214 190 168 159 150 148 137 123 130 128 132 134
121 118 128 146 149 143 137 127 130 204 348 356 355 334 315 281 275 268 281 339 326 309 312 290 272 251 226 209 192 179 175 166 159 153 141 132 113 115 119 128 140 153 156
141 158 135 136 143 155 152 151 149 174 209 227 313 302 319 318 306 272 223 246 272 277 226 203 190 173 161 152 143 129 121 123 130 137 148 149 150 141 142 140 140 132 130
140 139 145 155 169 169 163 172 175 182 195 202 206 236 241 259 291 319 289 231 191 187 171 177 165 152 140 129 130 141 151 155 141 136 133 129 127 113 124 126 118 132 126
147 159 165 165 175 186 183 182 182 184 193 204 220 216 188 185 260 254 237 212 201 181 170 169 165 168 155 144 146 134 136 141 134 122 120 117 121 118 133 132 132 111 105
136 147 158 161 160 151 147 150 141 142 145 152 158 161 168 153 167 188 196 208 204 200 187 174 162 153 152 142 130 125 118 115 118 117 119 118 125 123 114 111 107 102 104
124 129 137 137 126 133 127 118 116 111 106 104 108 143 165 154 155 167 170 162 153 147 130 115 118 121 119 112 97 98 110 122 117 108 109 101 103 113 112 115 119 109 91
122 124 129 127 117 121 122 112 109 106 113 121 117 127 135 129 127 132 130 123 122 122 112 107 101 101 96 100 100 91 98 100 85 77 99 101 106 116 113 103 103 105 108
110 117 111 112 113 117 119 123 117 125 115 114 110 105 100 99 109 111 108 108 118 123 119 111 98 94 82 89 89 86 80 68 67 74 86 95 103 108 111 110 117 106 93
125 129 131 122 117 114 121 121 120 111 105 99 101 80 70 75 80 81 87 91 96 105 106 100 94 77 64 67 79 88 89 105 94 91 100 109 110 112 113 107 101 92 79
131 131 124 114 113 106 104 106 108 101 93 84 80 79 79 82 80 81 83 92 106 115 124 126 135 139 119 111 100 100 115 122 117 114 105 112 116 109 100 90 87 83 72

GFSGL_con_3kmhel_084.txt.gz
Helicity
71 78 62 35 52 64 32 8 43 67 75 74 83 112 123 113 98 82 67 108 172 247 203 160 157 121 125 89 113 191 233 244 217 213 116 121 215 168 230 277 272 257 260
77 65 61 63 46 23 17 25 37 43 65 82 76 43 40 82 81 107 150 148 133 163 172 178 73 101 124 151 226 202 234 257 291 219 191 198 254 272 300 253 258 267 261
54 34 32 54 52 40 9 11 41 57 54 59 70 55 61 73 82 103 98 130 122 114 141 159 164 190 183 217 236 254 268 303 339 349 300 272 275 274 258 248 208 151 188
55 41 32 18 34 54 42 30 35 43 55 60 64 58 60 63 81 92 113 113 112 121 137 147 150 150 144 152 190 196 215 224 220 233 251 225 200 177 218 163 143 165 186
84 70 49 40 27 34 36 45 57 65 60 66 77 79 85 96 101 112 125 124 134 152 176 183 184 182 185 178 182 147 183 215 217 231 241 251 227 212 223 204 181 158 155
93 80 60 69 62 60 60 59 58 56 63 82 90 91 89 95 95 120 140 143 136 127 124 151 178 193 196 228 250 225 187 240 257 261 260 257 262 281 233 215 216 188 149
224 183 185 155 96 83 67 84 97 93 106 115 127 136 130 143 140 124 161 170 159 156 142 139 150 184 194 206 191 202 192 212 240 224 229 270 277 280 271 236 264 285 276
270 228 224 175 169 156 128 153 131 85 56 81 102 117 117 274 268 259 227 172 181 170 186 207 225 190 198 202 198 204 225 250 313 296 286 345 370 407 386 404 423 410 518
220 200 203 197 214 220 206 207 207 184 200 226 254 273 263 298 299 253 152 107 118 118 139 301 243 255 263 225 224 212 286 527 547 616 712 742 764 615 415 255 323 326 455
229 218 218 216 247 207 182 175 168 176 218 243 325 389 441 390 430 343 215 148 170 226 265 294 329 300 358 186 106 116 278 379 398 301 292 395 473 439 313 227 183 254 343
256 264 269 254 250 245 259 285 265 244 256 263 260 275 278 312 308 337 291 192 165 246 309 353 403 423 368 383 257 275 129 264 482 448 436 492 587 638 594 539 557 398 344
212 255 278 280 252 235 230 231 230 205 223 237 230 246 251 252 321 329 339 335 314 307 320 276 263 376 409 428 366 506 570 577 632 641 686 675 641 549 443 397 405 385 418
153 158 169 161 174 199 221 226 223 227 202 202 198 199 212 208 193 238 272 294 299 254 255 298 331 312 325 371 421 448 426 395 400 449 429 398 357 310 284 262 237 222 227
122 140 149 179 182 188 194 216 215 219 203 202 200 196 199 230 212 201 202 200 217 229 268 331 337 360 389 342 348 386 361 349 328 296 268 229 212 221 222 179 152 114 121
85 90 91 80 86 113 170 171 200 250 204 198 203 175 165 195 204 201 182 182 202 214 271 319 359 361 358 359 354 342 312 289 268 216 191 168 148 129 128 121 128 126 122
122 124 128 111 91 83 92 158 285 279 309 282 247 214 207 224 223 223 234 232 228 205 256 257 265 260 254 237 234 228 224 215 177 142 129 121 119 119 116 124 124 128 125
109 103 111 140 149 148 149 137 141 219 328 330 309 289 271 229 219 222 242 283 286 280 292 272 257 244 226 214 190 168 146 122 108 108 103 102 97 105 121 131 135 129 129
144 171 144 153 155 161 162 169 168 189 214 239 283 301 291 288 277 243 223 255 304 326 275 257 241 223 208 192 175 155 147 144 147 151 158 158 152 142 136 131 125 117 110
126 131 131 138 149 149 152 171 175 181 184 182 177 185 198 213 247 295 282 227 206 216 197 197 181 172 163 151 139 137 141 150 145 149 157 152 145 132 130 122 114 126 118
131 146 145 143 152 160 156 154 157 160 168 178 195 194 164 156 232 235 231 204 191 180 172 170 169 164 158 152 150 138 145 148 144 133 127 122 113 108 113 107 109 99 98
112 125 135 138 143 138 137 140 133 135 136 141 150 154 171 160 174 186 190 203 188 179 165 156 159 155 144 138 127 122 122 116 117 113 108 100 97 99 83 84 95 97 97
89 99 111 115 111 123 119 112 109 104 104 107 115 151 171 154 152 152 155 152 141 136 125 115 116 116 113 107 96 94 100 104 102 101 100 93 99 100 98 98 100 99 95
88 94 102 108 102 113 121 116 113 112 112 120 123 131 137 130 125 119 115 112 109 113 103 96 90 84 83 83 84 83 90 97 85 78 106 108 106 106 103 101 105 104 105
101 111 109 111 116 116 121 123 120 124 118 114 111 106 101 93 95 91 86 87 94 93 88 79 69 58 59 71 76 74 72 67 70 78 89 97 100 104 102 100 103 99 94
118 124 128 118 116 117 128 127 123 115 113 97 86 76 74 77 86 86 70 75 81 87 87 90 83 75 75 69 66 67 72 89 80 76 83 90 100 102 105 102 103 98 89
111 108 100 94 99 101 103 106 102 91 88 76 66 60 54 53 50 50 55 66 76 81 85 86 84 88 85 79 81 90 100 104 101 95 87 91 101 105 105 101 100 96 91

GFSGL_con_3kmhel_087.txt.gz
Helicity
62 74 75 54 40 33 1 -6 35 55 75 87 149 198 189 214 134 152 139 76 42 37 72 95 148 158 135 99 148 70 113 173 134 151 65 151 282 275 239 268 268 208 95
62 56 56 59 49 17 -11 -19 -7 4 5 32 72 75 119 159 134 142 71 41 50 65 89 134 121 193 86 117 178 127 133 94 144 118 112 163 183 212 240 204 215 184 151
50 39 23 27 36 28 16 -5 -20 -13 -6 7 16 19 39 53 90 82 111 85 109 66 87 114 112 166 185 153 143 134 140 152 186 225 166 163 163 196 217 188 204 186 196
39 19 22 15 11 14 15 14 10 8 9 12 12 8 5 15 23 70 86 121 107 101 112 137 123 117 97 115 157 173 185 236 231 230 239 184 168 163 197 210 224 250 205
70 41 33 39 27 11 1 -3 0 11 13 18 23 24 28 30 38 50 65 93 102 92 108 103 80 92 142 158 177 130 130 164 194 208 206 203 201 192 210 222 226 214 170
133 125 93 71 49 27 21 22 17 13 11 18 21 23 30 47 44 60 68 77 86 87 75 69 71 109 122 143 156 140 143 191 235 247 235 242 240 283 243 241 227 239 251
240 215 212 183 158 135 86 61 51 53 65 67 63 73 92 155 191 123 56 78 91 99 103 112 122 142 133 120 104 131 114 126 160 150 176 234 249 286 332 320 298 292 259
228 219 213 205 211 194 182 180 181 152 162 164 185 179 265 250 229 207 168 134 139 132 192 227 223 223 292 277 231 216 234 346 300 243 285 320 305 282 293 340 358 296 311
303 208 227 203 214 204 198 190 172 174 210 231 230 252 292 285 250 185 110 108 180 267 247 260 240 235 254 215 206 170 253 338 335 310 375 366 385 395 307 163 166 106 220
266 226 215 221 211 206 203 204 187 187 206 222 274 299 313 321 355 297 210 227 289 336 379 359 427 348 344 281 192 172 330 264 315 340 465 558 566 490 484 309 236 206 357
197 205 219 241 247 244 252 277 277 268 232 213 224 257 280 299 282 286 246 211 225 270 311 324 321 358 332 383 327 356 349 422 456 466 471 498 507 458 389 333 326 314 245
184 191 213 243 220 198 199 208 205 191 202 221 228 240 246 239 271 285 263 236 197 212 227 213 237 325 333 322 313 366 393 371 386 408 383 390 367 346 310 291 299 277 264
117 150 176 183 172 174 200 208 211 220 215 220 209 199 198 182 163 231 248 258 254 220 200 205 212 243 266 295 327 316 293 273 270 296 302 305 298 267 221 185 160 156 174
129 159 173 182 173 192 222 232 231 237 218 206 198 190 201 219 212 186 172 167 176 167 187 227 253 243 252 247 274 311 286 268 253 236 225 192 153 154 151 124 112 71 106
99 116 118 134 150 166 224 212 199 233 189 164 179 178 182 216 233 220 188 165 153 158 166 185 220 238 252 257 265 267 248 237 238 201 178 164 163 154 161 144 140 131 136
76 87 92 86 87 91 99 163 320 302 318 307 283 213 207 225 210 196 185 177 171 132 164 187 210 219 228 218 215 210 213 214 196 179 180 184 187 193 189 185 179 184 174
71 63 66 73 66 62 64 71 88 166 263 287 255 241 226 186 175 172 187 232 234 182 203 201 198 189 176 168 162 158 158 159 152 156 155 155 150 154 164 173 171 166 167
112 127 102 100 99 99 102 102 96 109 136 151 217 247 231 229 226 185 157 167 222 248 211 194 181 165 154 143 134 132 133 137 145 148 153 152 150 150 153 159 162 162 155
117 116 115 121 132 133 129 136 142 150 158 158 148 166 182 200 231 276 256 209 195 194 181 176 163 154 150 144 137 133 132 135 130 124 133 135 138 134 139 140 139 150 135
103 121 115 111 115 124 125 130 133 140 147 157 170 174 146 129 181 189 187 176 169 161 153 150 145 138 126 118 114 111 114 125 123 117 114 115 115 119 123 122 123 130 132
81 95 111 112 122 124 126 133 127 128 134 141 149 155 160 142 150 157 157 162 157 153 148 138 129 125 119 118 115 115 117 113 112 107 106 106 102 109 98 98 107 105 107
79 87 98 106 103 109 110 106 106 107 107 106 107 133 150 134 134 139 145 150 143 135 126 123 119 116 114 116 112 108 107 105 104 104 102 91 88 94 91 92 95 97 100
83 86 92 97 95 92 100 100 101 102 103 103 102 110 121 122 121 121 117 113 113 113 109 105 101 97 95 96 95 94 96 106 97 89 99 97 97 101 97 99 103 104 116
94 97 96 95 89 90 91 93 92 99 92 91 92 96 100 100 101 100 94 93 92 95 97 98 98 97 89 88 88 87 91 89 87 91 98 101 99 100 102 105 106 108 107
117 118 118 111 107 103 101 106 106 102 100 105 103 102 85 81 85 86 87 90 94 97 99 95 88 83 78 74 72 70 75 79 76 82 85 84 96 96 98 99 106 102 104
113 111 104 98 102 107 113 113 114 111 109 98 87 82 83 86 88 88 88 90 92 91 87 79 74 68 61 54 64 72 66 67 69 71 69 71 81 92 94 94 95 92 91

GFSGL_con_3kmhel_090.txt.gz
Helicity
106 90 78 89 72 70 51 36 79 80 92 86 93 85 124 132 114 130 142 158 146 134 122 94 99 74 66 66 89 92 87 46 99 38 113 155 169 132 91 132 181 213 217
100 78 60 67 56 55 44 25 28 60 90 70 139 45 106 78 53 79 113 130 134 106 56 71 71 29 46 113 114 113 127 77 151 140 112 120 139 130 126 104 152 142 154
82 74 57 51 33 40 29 21 25 13 20 33 65 94 109 112 138 116 90 110 105 54 60 54 43 59 97 109 167 178 109 93 148 164 113 85 96 115 120 157 176 165 187
73 65 57 46 16 10 -2 -1 8 22 25 14 9 29 52 73 100 99 94 55 58 2 26 54 63 97 102 99 120 136 180 165 181 249 240 168 179 166 148 151 163 192 198
69 79 73 55 26 9 -3 -15 -1 -0 5 8 15 19 30 53 61 59 59 89 84 56 74 55 40 80 119 113 132 122 123 144 152 158 187 181 162 166 209 220 220 206 183
182 172 123 85 59 30 4 -14 -8 -3 5 13 27 21 6 35 101 42 4 43 45 53 58 64 72 87 71 57 48 19 28 78 106 155 201 264 291 298 257 228 234 252 219
319 307 289 247 206 184 116 73 45 35 22 42 47 40 136 130 131 101 76 48 59 77 76 82 95 118 145 124 97 76 55 148 158 165 169 208 297 344 340 320 317 261 218
338 330 295 262 241 208 198 198 197 202 232 225 244 245 225 201 166 129 106 91 114 223 275 279 268 280 284 245 212 250 299 302 263 243 279 310 281 237 173 190 246 261 268
375 337 313 263 254 241 246 241 228 248 300 302 281 274 224 210 221 157 96 174 231 258 238 239 224 242 252 176 177 213 265 295 357 439 389 440 367 384 343 211 298 281 253
393 334 246 242 262 251 231 240 231 264 294 329 370 366 352 289 327 292 207 219 261 255 254 292 344 303 316 289 204 257 367 334 347 296 417 279 398 374 436 312 246 188 193
551 326 195 221 263 224 240 257 254 266 278 290 309 319 300 316 317 326 273 252 246 278 278 247 258 280 324 350 354 312 245 272 284 255 312 331 309 308 280 261 266 240 245
412 363 338 296 218 201 208 208 236 263 278 279 277 289 305 330 375 363 347 284 210 208 223 224 252 306 322 322 284 283 276 254 228 232 241 261 268 279 273 262 235 228 217
179 198 244 157 145 173 179 199 208 200 185 191 195 200 202 182 190 270 285 280 269 223 201 209 231 245 261 304 350 326 274 245 251 263 275 265 246 211 169 147 141 133 163
112 96 71 88 92 118 128 195 206 175 165 163 157 164 173 192 192 176 158 152 151 162 160 176 177 186 223 244 259 281 273 275 266 257 242 217 194 194 192 173 165 145 153
89 89 98 91 95 128 220 213 204 262 224 177 200 206 198 236 256 260 216 186 181 183 176 203 230 242 254 253 247 251 253 244 246 225 213 197 188 178 179 169 170 163 176
111 124 131 117 138 121 118 170 307 303 307 310 304 221 221 246 232 224 218 218 211 179 195 213 220 223 230 234 242 237 236 240 229 210 204 200 195 194 186 178 175 180 178
117 118 114 124 115 115 108 101 104 145 235 305 279 273 258 222 205 206 216 237 225 170 201 214 222 222 215 213 209 206 198 192 183 190 192 190 183 173 176 175 172 164 160
102 118 105 107 105 105 104 104 110 121 137 159 216 222 235 245 242 196 181 153 189 215 194 188 187 181 179 180 179 179 172 165 164 161 159 158 155 148 148 150 154 151 138
82 77 75 79 87 92 93 98 102 110 121 128 119 141 158 172 205 230 218 186 181 181 174 174 166 161 160 153 148 144 146 145 144 140 144 143 143 144 147 145 140 129 126
99 117 107 97 99 106 109 111 112 116 117 125 138 146 124 115 154 170 173 172 175 173 164 163 160 160 160 153 147 145 136 141 140 137 133 131 130 124 128 130 134 136 138
75 83 100 99 107 109 111 120 119 120 125 131 138 154 173 144 151 158 156 166 169 169 168 165 162 163 155 151 150 152 151 143 138 130 127 120 114 118 119 114 113 113 121
98 104 111 119 121 130 129 129 131 131 132 130 123 129 151 145 147 147 152 155 156 159 154 152 149 148 147 146 143 135 131 130 127 125 119 108 105 103 102 108 115 124 124
105 109 112 116 115 112 123 128 129 131 133 136 134 137 142 144 147 147 145 141 139 138 138 132 126 120 118 116 116 117 117 116 110 108 106 105 105 113 107 112 117 120 135
118 119 120 123 127 120 122 122 116 134 134 131 131 132 134 133 134 131 126 125 120 117 114 111 115 125 116 110 107 100 104 102 91 93 96 100 100 109 105 104 105 116 115
125 123 124 126 124 118 111 120 118 118 118 119 120 120 117 112 111 108 103 98 99 99 102 99 104 101 100 90 86 76 93 83 81 76 72 77 77 78 78 87 93 100 103
120 124 122 117 118 119 124 131 130 127 123 117 107 98 91 91 90 87 89 88 92 90 89 90 90 85 80 66 90 85 68 66 66 71 66 57 65 70 77 77 76 87 89

GFSGL_con_3kmhel_093.txt.gz
Helicity
104 118 119 139 168 146 121 108 126 183 206 141 132 164 256 320 286 330 221 186 154 142 179 260 186 122 141 114 130 144 149 106 55 66 104 116 128 55 111 156 172 164 192
135 113 105 120 154 132 114 94 107 140 119 88 54 89 134 130 134 158 162 166 162 150 156 164 115 116 100 100 80 114 27 38 72 45 43 65 67 58 92 127 202 180 183
128 101 87 86 128 111 97 68 74 97 74 93 64 83 28 53 98 109 125 104 81 65 38 47 40 34 47 81 76 68 50 92 117 103 35 39 34 82 107 127 138 147 192
98 96 76 70 108 75 77 66 40 39 54 48 28 73 57 70 68 57 48 13 64 77 40 18 3 51 64 102 112 100 100 97 62 82 125 132 146 139 160 164 172 203 165
134 95 84 71 104 71 75 70 60 35 21 17 18 42 82 98 101 82 92 101 100 75 55 38 60 102 83 82 118 84 102 111 114 158 161 171 129 124 132 140 142 148 185
133 138 90 96 107 73 58 56 65 64 65 59 33 25 31 158 172 176 89 74 63 41 57 45 31 80 81 76 61 27 98 97 91 144 131 161 142 180 209 232 269 283 291
355 314 301 285 292 246 159 143 128 61 77 123 139 157 172 153 179 133 110 75 75 126 128 139 139 188 212 180 132 172 221 238 216 175 163 216 255 257 226 191 186 185 196
375 352 326 299 281 247 235 237 223 263 248 202 185 168 152 148 183 139 121 108 130 184 188 186 188 199 221 204 214 277 310 321 250 226 232 267 237 164 147 134 165 193 253
390 347 341 301 291 266 275 262 239 243 291 290 258 237 207 212 253 187 162 224 252 273 288 289 252 244 228 156 194 278 314 299 320 284 326 342 381 397 343 193 221 208 193
445 389 382 365 365 365 326 341 324 333 354 347 362 334 334 288 308 241 220 269 348 348 354 323 343 263 261 248 188 253 276 284 287 289 304 326 304 292 421 330 305 262 250
568 571 556 474 439 392 378 408 389 362 358 378 362 365 360 364 367 310 254 269 285 301 307 308 310 267 335 378 344 216 265 216 243 234 212 245 272 292 290 300 320 313 304
516 528 561 427 588 464 368 367 395 369 369 323 277 275 282 300 357 357 366 284 297 242 239 260 286 324 356 367 339 291 252 228 230 248 261 262 260 268 245 233 204 206 192
328 227 447 445 536 406 362 383 361 159 252 222 218 199 192 198 203 264 281 284 269 244 249 267 283 298 321 362 390 385 335 286 272 269 271 268 246 221 172 167 135 134 140
82 127 152 182 235 236 224 288 383 260 214 204 189 204 228 265 292 245 229 219 214 216 216 218 210 224 267 275 280 279 281 291 284 270 250 223 206 214 222 213 204 192 169
48 24 39 55 68 134 190 155 144 221 205 139 169 218 185 230 246 242 211 196 195 196 192 213 235 243 248 247 256 272 279 268 271 262 259 251 240 227 210 189 186 184 184
58 70 51 43 33 36 43 77 167 166 200 221 213 119 131 169 178 183 186 192 194 171 183 210 230 239 246 248 250 247 259 265 252 235 228 228 225 221 222 199 192 189 192
117 120 117 119 121 120 91 64 54 111 189 226 225 234 222 199 227 209 206 237 214 159 192 214 224 234 231 230 225 224 221 221 221 227 234 235 222 200 198 197 194 194 182
124 149 127 124 120 122 124 127 128 122 131 137 172 187 226 237 250 253 194 166 193 213 202 207 208 208 209 212 217 223 217 217 215 207 201 194 195 186 184 184 169 165 166
99 89 84 85 97 103 100 108 117 128 141 157 147 151 163 188 222 255 250 213 208 211 207 210 210 211 209 201 193 178 179 175 171 163 162 164 166 164 158 160 157 151 130
72 100 88 76 81 90 102 110 114 122 133 148 166 188 167 163 182 196 202 200 200 196 183 180 171 164 162 151 137 147 139 147 154 153 152 152 152 147 151 142 138 134 137
57 63 80 80 93 98 104 111 109 108 111 116 131 147 174 135 141 150 151 162 161 156 152 142 137 143 140 143 146 142 154 154 152 152 151 145 136 133 131 123 123 114 115
97 102 104 107 108 121 111 111 117 122 125 123 112 120 146 135 132 134 135 136 137 143 138 139 137 140 149 156 157 156 151 158 157 155 145 129 121 114 116 103 104 113 106
122 131 133 134 128 131 144 152 147 134 130 131 127 128 132 133 139 134 125 124 124 129 134 140 137 136 141 134 138 140 145 146 133 124 122 113 107 114 96 97 97 90 104
147 151 147 136 153 152 149 140 120 141 155 146 141 137 140 136 139 133 131 127 121 118 120 114 114 124 123 126 124 123 138 120 103 106 92 83 89 97 92 86 84 85 80
121 117 117 119 125 122 116 127 126 128 126 127 123 117 114 109 109 110 106 100 94 94 91 86 103 107 124 95 104 118 122 96 84 74 70 61 71 70 67 70 71 74 72
102 105 106 105 106 108 109 111 115 105 114 102 96 95 91 92 90 84 82 75 85 77 77 90 91 96 94 75 128 108 79 71 69 72 59 59 63 71 76 78 70 70 66

GFSGL_con_3kmhel_096.txt.gz
Helicity
248 162 190 194 181 194 140 139 141 169 166 156 164 163 178 185 275 199 244 268 156 151 153 162 176 211 214 192 194 210 205 211 176 184 209 172 155 131 130 136 141 168 167
187 200 187 170 136 143 147 114 146 127 128 132 150 168 226 260 184 186 322 199 285 177 188 198 177 215 226 197 197 153 105 122 165 145 140 111 99 131 135 134 146 143 184
158 193 168 125 119 133 117 106 129 114 117 76 109 115 169 213 507 405 376 311 249 183 213 209 188 181 215 175 142 133 176 165 153 112 71 83 77 90 89 52 55 80 145
168 132 150 114 109 109 86 95 101 84 80 77 40 7 29 77 121 196 216 310 187 128 132 108 89 85 87 151 144 114 154 162 149 118 86 69 50 17 55 57 47 114 136
106 134 134 100 74 55 79 83 71 50 30 31 31 5 37 62 50 71 98 100 105 79 18 37 37 24 37 70 77 86 129 125 115 103 76 65 61 65 84 97 116 114 210
147 191 186 123 113 114 109 102 57 18 28 24 42 49 128 226 167 71 56 36 33 47 41 52 31 46 48 69 93 229 187 109 84 97 67 45 98 188 135 181 200 171 166
352 343 334 318 318 312 268 274 269 208 219 255 265 265 244 188 197 151 103 109 107 151 118 123 158 160 203 204 226 257 230 232 191 155 157 201 188 211 164 179 159 190 207
482 496 392 323 320 311 303 303 307 292 242 221 240 226 199 197 180 143 205 209 234 243 226 233 213 185 269 271 326 371 358 309 265 270 320 319 244 197 153 185 196 255 225
546 533 417 336 317 325 371 343 334 357 359 303 251 235 201 222 276 259 206 244 253 249 261 272 219 190 188 122 227 300 338 330 283 242 244 288 339 308 319 209 276 235 281
680 576 462 372 349 333 314 328 337 349 354 361 375 342 329 266 294 260 230 257 296 283 294 300 378 308 253 217 214 205 205 214 242 268 248 323 320 329 431 395 326 360 319
676 651 630 579 455 433 419 413 420 430 412 399 392 393 392 381 361 359 362 361 350 370 355 332 339 323 337 344 315 284 217 253 375 316 355 307 301 317 306 316 306 291 262
175 370 461 577 633 668 642 605 555 528 519 491 458 474 458 433 368 375 373 352 330 333 287 277 315 396 405 397 334 297 298 274 273 280 275 271 276 263 225 187 167 154 171
226 181 286 335 335 434 546 798 679 586 501 458 451 469 478 319 357 333 340 285 271 260 247 272 315 335 359 356 366 347 314 276 267 262 258 245 232 216 186 186 131 115 120
70 109 149 141 163 143 161 199 208 346 512 229 314 210 210 273 166 150 115 82 105 126 146 157 155 177 215 225 249 244 217 228 235 225 208 224 213 207 223 222 213 185 176
79 69 80 86 106 139 151 92 70 120 87 58 125 172 155 135 153 153 142 160 156 152 158 174 185 191 183 179 219 250 263 235 231 232 236 215 202 229 191 202 210 205 216
16 31 49 2 -20 -13 26 81 180 165 167 152 117 95 131 162 171 179 190 210 210 187 204 210 212 209 205 204 197 207 238 253 242 230 236 245 216 200 206 186 211 240 227
64 55 44 54 57 55 -22 -1 19 99 160 176 191 197 211 197 197 193 178 197 163 156 162 188 198 186 189 204 191 196 202 214 202 210 214 228 261 218 217 227 176 209 231
78 98 86 87 85 96 101 101 79 60 76 103 174 168 204 236 259 250 166 159 171 199 179 182 186 186 173 180 165 178 172 208 223 190 194 208 256 226 188 216 197 181 211
86 72 61 65 80 82 73 83 91 99 115 130 145 160 136 185 222 253 252 194 170 176 181 193 202 200 166 160 187 145 150 162 198 171 181 191 228 250 198 205 191 193 199
48 80 71 69 71 72 76 74 73 71 87 109 139 181 125 114 141 175 208 201 198 202 169 172 173 174 192 175 143 191 177 169 205 209 183 178 197 210 174 182 171 164 168
69 75 97 99 120 99 94 104 93 71 76 108 141 186 176 130 133 148 168 195 200 199 196 157 158 193 209 196 194 150 164 165 166 179 171 167 172 180 153 160 147 140 138
92 89 90 92 98 136 130 121 120 127 121 92 89 136 182 157 143 138 146 151 151 175 198 165 137 130 145 168 163 167 142 152 142 137 143 154 156 144 140 152 142 141 133
110 111 114 117 139 116 115 130 157 122 107 117 112 117 119 122 137 135 129 139 114 110 128 152 173 152 164 162 151 140 148 153 148 112 123 135 133 121 115 131 130 131 117
114 115 124 88 109 109 126 89 79 107 121 106 98 86 91 91 95 93 98 113 133 101 114 115 103 108 119 130 134 122 125 119 130 111 116 101 113 112 104 100 94 93 88
107 120 110 101 100 106 101 99 100 109 108 106 109 108 106 99 89 86 83 69 77 92 75 70 96 99 94 84 126 127 113 112 90 88 79 71 79 83 83 89 86 87 84
87 96 101 100 100 105 107 116 114 95 112 98 92 88 85 87 87 82 62 85 97 74 55 72 75 74 79 108 131 92 65 72 89 86 67 67 86 79 87 89 80 77 74

GFSGL_con_3kmhel_099.txt.gz
Helicity
248 283 291 256 254 204 193 166 166 162 157 150 134 134 127 152 207 197 177 188 180 272 270 231 148 166 121 128 179 225 252 245 260 247 238 185 177 160 154 111 124 100 118
319 310 254 228 175 167 132 122 139 131 131 123 126 126 111 138 225 230 246 227 166 220 290 327 154 140 128 99 164 194 200 222 246 266 149 200 179 148 142 153 130 120 123
178 182 213 184 161 147 132 138 112 114 116 118 124 146 157 148 150 102 119 146 194 237 231 131 131 131 131 147 177 174 205 208 150 116 97 128 134 176 147 134 106 99 86
114 105 101 106 131 130 116 115 90 96 107 91 104 67 84 133 193 309 306 267 305 362 214 170 183 149 177 201 220 165 172 195 211 129 95 114 64 79 89 69 82 67 134
140 80 85 90 101 117 116 106 77 80 98 87 62 57 36 68 147 272 300 285 283 248 226 163 155 175 200 182 160 155 172 184 166 164 140 104 77 109 109 83 94 112 195
352 168 149 152 96 127 110 102 75 79 105 69 44 31 64 56 111 114 79 174 259 159 167 126 107 126 62 72 143 254 204 150 149 141 100 96 111 143 148 117 121 167 163
326 379 267 279 216 278 274 292 274 251 246 264 256 222 180 118 118 82 56 69 124 170 175 114 57 106 126 181 278 310 326 330 281 184 139 181 150 149 121 131 209 196 213
417 462 426 345 322 393 371 316 300 272 287 299 297 259 210 173 110 157 260 257 332 291 260 230 194 155 207 215 253 328 326 305 250 251 257 223 176 153 180 207 198 213 249
424 597 490 515 422 443 388 416 337 321 301 315 303 290 286 278 235 237 328 301 317 310 294 255 220 210 167 204 312 362 398 400 381 375 411 405 393 395 301 233 184 170 192
292 417 656 513 503 474 413 435 389 399 386 341 375 368 308 278 264 241 301 359 371 341 323 330 324 281 282 244 293 299 326 307 306 333 374 379 355 340 337 246 209 223 274
184 269 418 627 647 553 497 486 463 464 459 452 431 431 405 346 282 271 292 337 375 407 395 358 286 251 217 229 281 292 268 315 326 273 258 268 329 291 253 283 298 198 223
158 197 316 485 475 511 530 541 479 469 527 535 503 462 445 444 394 338 327 349 376 383 408 418 416 440 436 374 338 316 305 259 259 254 236 222 207 207 248 231 227 207 190
69 124 177 206 232 356 451 423 355 339 377 479 476 466 488 506 509 504 466 467 453 404 428 442 513 478 472 412 432 357 301 267 232 238 272 292 270 234 259 187 165 161 153
53 69 85 121 134 156 195 297 341 319 284 352 284 353 379 442 439 345 357 272 232 249 210 192 217 237 285 315 350 380 361 342 320 287 262 258 232 247 278 264 260 206 159
79 40 40 36 62 94 137 143 132 159 150 137 128 101 124 109 101 118 100 108 112 129 157 203 208 219 256 291 310 321 303 290 283 273 259 243 259 234 233 235 260 265 250
33 34 37 -7 -4 5 30 66 148 138 148 147 151 167 155 136 124 134 109 102 99 100 115 115 128 132 145 169 203 229 240 240 234 236 255 251 231 221 195 205 207 234 248
48 46 44 50 42 12 4 16 28 101 176 197 211 208 214 132 129 176 192 196 171 165 168 151 134 135 126 134 145 174 202 195 186 207 233 257 228 194 207 198 214 226 244
26 42 34 35 38 43 52 61 64 88 114 174 205 173 219 229 208 147 125 154 183 216 193 177 159 166 180 180 184 187 208 201 189 191 216 252 269 212 216 203 194 218 238
38 40 36 36 37 24 17 32 50 73 93 116 141 141 152 181 207 231 235 208 188 184 169 171 171 153 132 143 128 133 150 175 162 164 192 221 249 196 208 212 207 228 234
62 83 83 86 79 70 44 22 32 63 99 138 163 131 107 136 178 195 213 212 203 170 147 156 172 187 186 161 137 125 146 165 172 179 203 243 253 215 221 240 231 202 211
78 68 92 98 124 111 100 70 35 53 81 127 152 153 147 121 137 156 167 182 187 195 162 140 153 170 175 174 153 141 150 161 162 173 198 236 228 219 207 208 220 199 169
122 83 86 116 98 92 102 120 99 59 51 86 100 114 132 119 122 137 148 146 136 155 159 150 155 167 180 173 141 134 151 153 166 167 173 193 194 169 150 166 169 158 151
136 112 111 124 105 104 101 107 111 101 83 72 68 72 75 76 80 90 108 127 121 122 112 109 121 136 150 132 134 122 113 120 120 117 144 150 158 154 140 153 137 129 133
136 151 126 110 120 125 102 94 108 112 103 101 88 78 72 68 69 71 82 87 103 113 103 86 85 107 106 89 85 81 74 85 94 105 105 108 124 134 137 117 109 110 107
104 110 120 118 111 112 127 124 110 99 105 97 76 69 54 51 49 42 44 69 79 81 77 61 51 52 71 76 83 79 81 88 85 90 87 96 130 128 110 97 99 97 106
91 92 90 90 87 93 87 92 78 90 94 87 82 95 96 83 83 60 65 70 61 69 74 44 42 42 62 65 63 73 85 84 83 87 87 100 110 104 84 90 102 91 90

GFSGL_con_3kmhel_102.txt.gz
Helicity
144 147 197 251 236 221 193 163 142 164 166 157 169 175 162 167 170 160 174 155 179 194 251 219 278 238 397 247 226 246 184 254 155 186 146 122 138 129 117 117 127 123 104
349 181 243 284 247 238 175 125 121 108 122 130 139 141 129 122 119 122 125 307 254 302 302 257 297 373 342 268 285 232 147 159 189 247 239 216 192 131 189 121 116 72 112
382 182 254 211 204 159 114 87 86 83 111 116 115 117 102 102 68 64 115 255 262 256 173 216 239 340 263 252 226 215 169 142 324 207 219 278 257 224 121 129 135 124 200
359 158 132 120 97 92 82 92 86 104 99 108 111 101 74 84 72 112 151 126 144 177 208 220 216 264 221 228 295 184 213 171 276 247 237 180 186 135 97 138 134 149 198
366 344 233 82 66 68 83 89 118 111 108 127 116 102 106 99 101 89 129 122 142 169 149 203 303 315 376 332 196 219 164 130 260 203 201 96 116 163 167 142 84 144 176
267 312 305 292 142 110 120 154 166 183 165 165 136 130 116 55 46 122 161 299 229 254 271 266 279 272 225 214 203 233 206 154 156 89 33 124 213 216 172 132 154 171 176
155 336 327 325 264 237 203 251 239 229 226 210 178 159 121 89 77 48 110 121 297 349 321 354 290 258 238 187 209 258 347 358 290 163 132 210 206 193 165 194 213 239 271
196 206 377 332 350 313 306 346 301 270 300 254 215 195 168 154 167 117 162 140 140 155 219 237 177 212 166 176 297 329 344 335 285 281 288 278 237 201 214 218 206 245 298
276 235 258 478 368 383 442 455 325 342 352 306 271 241 202 163 188 208 218 176 208 216 182 206 239 267 213 157 265 379 366 335 353 389 381 406 366 312 258 252 260 303 285
276 266 273 311 600 544 498 506 451 421 398 359 320 321 315 229 251 284 288 268 275 257 273 325 281 251 206 203 310 346 385 324 337 352 390 380 389 339 370 344 272 266 255
199 189 253 282 358 328 636 622 492 451 437 422 408 384 395 337 271 274 293 314 339 375 371 339 284 289 284 339 385 393 393 383 421 425 391 445 423 483 489 427 437 295 280
110 165 219 229 207 252 359 581 558 462 448 475 444 426 416 385 366 371 380 365 354 349 407 465 453 458 449 447 440 439 431 433 395 414 453 455 415 386 352 336 318 296 248
71 102 134 154 197 182 204 257 375 467 464 369 336 394 403 394 315 384 386 435 455 429 445 450 511 523 536 564 541 545 464 439 419 413 340 292 251 212 167 200 242 235 232
47 65 68 99 128 153 143 153 146 180 256 283 286 279 263 291 324 375 271 300 286 319 361 375 464 458 486 481 493 447 391 335 254 184 165 210 244 268 261 200 161 165 187
19 -3 15 17 43 60 98 108 119 150 131 147 186 228 290 291 248 196 220 210 186 201 178 206 239 263 296 258 239 235 223 214 222 213 227 215 220 227 259 250 247 231 211
23 11 6 -16 -10 6 18 49 141 145 176 198 190 129 148 158 141 154 166 167 159 152 192 195 206 207 202 175 192 209 213 208 216 218 225 222 207 199 203 227 235 233 244
27 24 16 20 17 21 30 42 51 105 183 234 203 198 151 116 117 122 136 158 153 161 172 172 165 173 188 205 222 242 252 235 224 228 217 210 188 206 223 251 260 262 266
32 43 23 18 17 22 26 33 42 69 91 128 192 189 176 167 165 152 139 159 172 195 170 158 164 157 163 171 180 184 193 207 221 228 246 241 237 227 237 226 216 209 205
33 36 43 49 44 41 50 66 74 90 99 93 108 129 145 158 170 201 215 191 172 180 174 185 177 168 158 152 159 172 189 205 209 216 231 223 217 188 191 188 174 197 197
77 95 94 78 75 70 67 69 80 111 134 137 137 127 126 154 199 200 203 197 189 178 172 176 176 180 175 160 158 155 176 196 196 193 206 211 207 195 197 191 196 189 180
93 104 116 111 101 81 71 68 78 99 108 111 117 120 141 145 158 178 187 198 189 182 174 172 178 181 176 161 163 174 174 178 182 183 190 197 205 201 187 179 175 167 165
103 98 104 106 106 110 98 79 60 77 91 93 98 106 121 109 125 134 146 157 162 158 151 142 151 154 154 151 136 135 142 156 159 159 173 177 171 172 157 153 159 164 161
133 138 133 122 105 98 109 97 82 71 68 76 78 79 75 74 87 95 97 108 107 108 109 108 112 119 116 117 106 90 98 101 97 100 122 137 143 146 146 155 156 156 149
118 130 133 139 137 129 129 125 102 93 70 53 44 39 36 29 35 40 51 70 91 79 76 72 71 64 79 97 86 72 71 83 96 99 100 118 137 140 143 137 133 126 116
122 125 122 112 117 119 115 102 115 114 103 88 79 55 39 39 45 43 37 36 57 73 62 49 51 43 43 65 72 82 86 91 100 104 106 120 147 149 123 111 108 104 110
109 112 97 94 108 98 90 81 78 79 74 52 64 64 45 55 47 48 54 76 68 70 77 62 74 65 51 54 57 64 75 90 100 98 94 108 120 121 109 108 108 102 103

GFSGL_con_3kmhel_105.txt.gz
Helicity
366 361 251 191 190 202 196 208 186 166 142 131 154 134 123 125 165 184 180 175 192 177 196 307 260 255 263 334 380 322 218 260 259 223 178 156 132 153 154 171 150 146 111
361 355 153 172 194 199 201 182 157 139 109 120 121 126 141 148 143 152 146 159 179 170 189 162 186 309 271 367 340 325 264 259 310 304 266 188 146 119 135 149 127 114 173
356 407 140 157 195 200 171 149 137 93 87 88 95 99 112 124 124 94 90 85 142 161 135 238 310 295 309 292 427 392 308 340 298 224 232 168 191 183 189 213 217 240 230
353 409 342 218 139 138 107 85 53 11 35 65 82 94 115 128 101 81 76 65 70 116 131 298 243 367 254 295 432 386 355 301 265 190 226 236 195 180 251 263 239 222 179
360 468 421 444 163 95 80 54 63 52 87 92 121 142 157 145 112 59 28 71 114 141 265 269 298 258 280 301 410 452 464 373 329 269 293 313 338 275 204 212 162 172 175
293 393 330 359 356 336 219 118 110 136 176 192 224 208 172 135 112 51 29 76 92 87 167 171 175 176 280 377 403 586 403 390 328 244 251 258 292 297 209 161 202 238 229
175 248 245 296 323 314 289 228 213 175 182 214 237 198 175 125 126 78 98 82 101 163 227 265 305 264 421 519 822 928 492 477 297 195 224 201 225 268 314 258 333 286 281
174 268 296 287 230 324 300 321 300 259 262 229 214 197 180 128 143 153 169 149 151 145 241 393 385 360 370 588 675 707 515 384 328 260 238 261 266 250 243 242 328 369 304
231 185 241 188 177 192 380 364 363 388 354 321 260 239 187 136 156 142 150 196 202 199 162 191 315 238 338 208 230 233 261 252 310 414 527 495 401 345 341 306 351 358 336
204 183 213 214 220 151 229 283 477 391 457 372 376 309 288 168 167 151 172 189 232 245 249 243 250 166 171 250 219 235 298 274 315 370 452 492 446 466 485 411 328 357 349
159 137 155 225 156 216 214 261 111 387 442 472 472 413 370 285 249 265 243 240 208 251 257 281 255 302 291 302 298 371 339 337 406 423 445 407 455 476 476 448 436 343 328
32 57 92 130 160 176 208 246 293 307 217 505 497 496 430 358 348 315 357 292 305 285 333 313 360 404 496 481 455 505 467 437 421 365 400 400 440 442 446 489 388 358 409
44 61 69 67 70 88 145 171 181 232 145 185 230 573 489 472 427 380 406 376 348 297 253 309 348 461 419 486 496 523 485 438 388 388 424 418 386 297 324 341 285 298 354
14 39 42 52 81 92 69 70 104 117 138 165 136 181 283 387 446 449 377 304 369 356 353 364 367 376 415 448 478 523 438 420 396 412 404 385 331 292 316 232 223 191 203
5 4 1 -4 22 38 60 81 62 88 94 40 60 81 94 119 124 170 207 197 301 340 329 388 478 481 481 505 527 498 462 467 442 352 327 310 267 232 232 199 196 196 184
0 -1 -5 -13 -5 3 10 23 104 158 183 175 146 89 62 84 75 71 82 106 153 168 194 235 262 264 288 287 300 309 308 289 243 210 219 219 216 210 210 221 197 181 171
4 2 5 19 15 16 19 25 41 52 112 200 192 167 148 128 117 99 101 134 137 135 147 159 162 178 182 190 197 213 233 243 242 266 266 262 243 247 255 244 204 174 165
20 27 6 10 22 37 43 52 57 69 81 101 116 145 162 169 166 157 127 144 157 178 140 129 128 132 142 152 168 172 179 190 202 205 210 204 201 180 172 175 176 176 164
18 17 14 15 19 26 42 70 82 89 98 108 115 123 145 153 166 202 199 157 153 173 164 168 162 151 149 153 163 175 183 194 192 193 200 193 194 171 189 187 188 203 191
45 64 65 56 57 57 52 53 66 84 102 111 124 135 130 146 185 184 178 169 167 160 157 159 162 164 169 168 166 164 170 179 180 177 181 174 173 170 167 155 159 153 155
60 72 84 83 78 71 76 79 64 55 51 66 83 89 112 108 132 149 159 170 163 156 148 143 151 151 144 141 136 136 138 142 148 147 145 157 162 151 148 148 148 153 146
86 94 100 96 84 82 73 83 86 77 73 60 51 63 90 67 76 91 112 126 126 125 126 122 131 138 133 120 103 103 115 127 138 137 135 140 137 138 131 133 144 141 134
111 121 125 120 108 106 107 84 80 80 73 62 45 49 54 55 63 70 78 89 97 104 104 98 103 116 121 119 115 105 107 115 115 110 126 137 137 135 136 147 138 146 139
125 136 135 132 132 123 118 108 88 79 70 67 69 54 47 40 48 50 47 53 73 84 90 90 85 82 88 99 101 98 87 94 105 104 100 109 129 128 119 112 111 107 110
129 134 138 134 144 128 116 108 103 88 68 57 50 47 52 47 45 46 51 60 59 47 61 64 61 53 59 62 66 68 67 85 87 82 87 98 117 116 108 108 108 102 105
125 118 112 117 119 113 108 99 90 83 70 60 53 38 34 40 37 43 50 57 59 60 54 65 55 43 36 42 41 46 60 81 86 87 90 98 108 109 104 103 99 99 106

GFSGL_con_3kmhel_111.txt.gz
Helicity
349 389 311 105 120 118 121 103 134 196 204 199 164 162 195 202 211 265 189 170 131 141 161 161 179 219 242 231 235 155 206 206 125 165 207 278 205 194 169 118 101 97 95
301 418 385 311 126 146 183 198 227 233 192 195 187 188 175 168 208 202 145 126 114 94 100 142 160 218 203 178 200 219 183 186 180 134 239 247 258 163 174 160 139 111 113
293 401 449 422 396 145 180 227 246 223 216 193 172 146 143 168 181 164 121 105 104 114 120 128 101 104 154 160 251 240 279 244 243 226 292 275 221 175 201 243 162 168 280
299 308 458 502 540 558 409 338 299 253 214 204 218 230 206 217 225 178 127 114 100 87 74 57 76 79 122 136 224 239 241 254 332 282 357 350 270 237 236 312 439 403 364
505 390 404 321 442 502 545 512 484 483 482 501 436 422 327 231 183 164 130 102 91 82 84 60 60 62 83 111 129 114 247 288 336 332 340 352 342 379 367 370 407 489 436
373 410 493 491 432 587 569 567 492 465 383 341 435 412 322 196 270 243 176 105 100 96 88 80 72 70 63 119 102 100 238 294 329 383 341 326 339 396 403 471 554 506 423
381 380 332 484 304 553 670 476 453 433 460 510 318 273 257 271 298 221 224 157 131 133 110 83 84 80 70 84 107 169 202 383 323 306 327 265 381 470 457 547 562 471 445
283 311 350 369 357 343 336 608 542 369 366 333 302 219 170 175 278 241 169 178 185 182 160 114 63 60 58 75 130 167 256 320 494 352 317 352 462 417 519 561 506 616 502
354 329 316 301 292 311 270 166 237 208 259 272 217 172 137 190 289 380 303 235 224 238 217 206 150 107 106 101 135 193 265 295 429 563 828 782 833 923 854 668 579 562 425
255 193 133 128 185 225 205 199 131 76 103 137 181 258 255 192 196 300 312 275 298 267 214 230 304 230 214 174 134 151 277 202 276 503 741 1014 1057 935 956 699 583 506 605
56 50 79 84 92 100 102 121 132 147 117 127 142 131 169 254 291 238 500 258 169 292 248 249 218 325 311 283 293 264 234 212 215 217 346 515 708 661 527 521 466 451 483
21 20 35 38 23 29 37 43 58 53 85 119 138 170 211 208 211 184 129 83 202 195 256 184 192 262 380 428 424 396 407 406 404 436 330 305 292 273 247 300 415 499 653
10 21 16 1 4 14 33 42 42 44 31 35 39 56 92 132 144 177 145 104 105 67 148 260 313 273 368 384 429 478 440 374 370 415 435 456 458 493 541 462 561 651 698
17 21 9 7 8 10 -4 -4 3 23 16 19 28 29 16 32 61 69 63 63 74 43 61 133 119 167 253 300 395 400 385 414 421 452 435 414 454 496 532 503 507 549 626
-15 -9 -9 -15 -13 -26 -25 -5 -14 14 30 8 10 12 28 25 31 48 40 24 15 40 35 61 111 175 212 261 265 295 309 370 418 394 386 381 430 451 474 478 490 482 488
-16 -14 -11 -12 -15 -20 -29 -29 36 61 90 107 111 75 31 82 76 85 96 91 95 83 67 89 112 107 110 126 151 170 188 177 175 192 216 233 255 280 304 318 301 308 309
-16 -15 -19 -12 -8 2 8 10 11 17 60 101 122 126 137 128 130 104 97 131 161 101 98 100 99 118 128 124 123 137 142 155 142 145 145 151 146 145 132 149 175 183 202
-17 -17 -26 -22 -15 -6 3 9 15 37 54 63 92 121 137 149 159 172 117 98 126 153 128 120 118 126 134 134 129 116 111 125 143 146 150 151 145 134 137 153 156 155 155
-5 -15 -20 -14 -8 -3 4 16 23 35 41 50 56 95 118 123 160 198 193 137 123 134 129 130 132 126 125 126 135 137 151 159 147 140 154 155 151 130 138 134 139 137 115
5 18 10 11 16 24 29 41 48 57 63 68 75 91 100 103 129 134 133 127 131 132 132 135 136 138 140 136 131 129 126 139 148 154 162 155 148 141 143 146 147 150 158
31 35 34 36 37 39 45 54 59 68 73 68 55 44 61 76 90 94 102 114 123 127 131 125 126 130 132 137 141 141 144 147 157 153 151 153 150 146 144 139 139 142 140
62 62 63 65 66 73 72 72 69 70 68 71 53 41 42 51 60 67 74 81 88 94 96 103 106 114 124 133 136 133 136 141 146 150 149 146 142 141 139 144 148 150 146
73 77 78 76 76 81 88 84 85 95 93 85 71 64 59 55 53 59 61 46 57 69 76 77 79 85 90 100 110 120 122 126 127 128 129 125 127 129 132 135 136 145 153
72 80 85 82 83 85 101 91 79 77 67 63 59 51 47 45 44 47 45 48 41 45 47 51 58 67 68 77 81 85 93 98 95 103 109 106 105 108 120 124 128 133 132
94 94 91 85 95 88 77 76 61 56 58 59 56 57 59 55 45 48 45 44 45 45 50 45 39 38 50 60 66 77 86 98 99 92 90 96 107 109 109 105 105 105 106
87 85 81 89 81 72 65 63 60 59 61 63 58 56 57 60 56 53 47 43 45 50 50 46 46 44 38 38 43 49 55 66 83 89 78 81 83 84 82 85 89 85 89

GFSGL_con_3kmhel_114.txt.gz
Helicity
203 179 199 186 117 46 90 125 82 94 85 103 101 164 207 216 206 210 224 211 201 189 218 197 127 139 170 196 200 219 241 246 226 165 152 159 179 171 176 218 171 147 127
284 244 332 352 363 121 97 116 95 99 148 142 152 199 239 208 195 204 210 209 195 232 205 163 121 152 111 98 136 195 222 196 216 178 164 254 189 188 213 256 261 217 207
344 372 385 538 436 412 263 176 170 166 193 205 222 218 250 253 220 256 222 202 219 237 150 115 75 81 79 103 128 170 186 185 174 203 189 211 226 180 216 226 216 196 236
408 528 404 425 465 469 485 500 498 461 367 423 453 432 470 471 469 445 360 295 265 193 130 94 87 85 75 75 99 99 127 195 194 283 230 293 337 277 265 233 230 252 360
355 466 555 413 451 535 612 578 569 600 588 569 587 609 570 567 501 397 297 232 187 114 82 110 128 153 124 89 83 77 100 163 202 287 227 259 307 356 294 312 289 429 536
439 385 488 503 440 596 702 736 751 681 679 645 606 526 482 384 448 412 298 284 186 194 189 198 187 145 140 112 64 55 56 100 187 196 206 203 297 371 350 333 386 526 413
370 341 361 505 444 553 523 849 891 796 694 644 562 389 317 333 391 350 353 275 216 208 187 162 145 136 126 113 106 83 136 202 188 156 182 312 253 354 372 391 427 486 487
248 259 283 295 347 223 469 431 630 505 637 601 473 432 380 402 380 227 291 230 210 190 168 166 153 147 138 122 79 69 129 161 144 150 179 225 338 376 436 495 462 625 692
323 244 230 200 192 192 255 285 320 385 462 496 410 428 307 315 311 235 155 192 169 182 186 228 216 178 229 162 90 87 132 147 85 180 351 445 540 630 420 431 606 734 933
133 104 113 127 135 171 175 117 122 141 189 196 175 201 275 252 362 308 224 171 165 197 219 167 274 215 243 231 158 169 167 170 169 196 180 259 407 453 750 829 645 627 795
13 31 43 53 65 61 35 58 60 87 99 94 110 142 153 186 208 236 223 157 141 191 198 238 203 198 298 275 253 226 181 167 189 237 237 252 337 373 513 678 781 776 820
-1 13 34 40 35 30 29 30 48 36 29 26 27 26 57 85 151 138 140 119 99 105 132 121 116 159 227 290 201 269 297 275 289 316 339 378 390 436 465 591 727 756 753
-13 -1 -4 1 15 17 31 38 40 43 31 33 35 29 35 58 67 108 96 86 81 46 49 104 141 153 168 206 353 346 300 277 297 364 353 377 397 393 356 441 471 464 587
-15 -26 -30 -23 -11 4 -10 -10 3 19 12 20 20 33 29 41 75 83 63 42 41 26 30 35 56 68 108 125 172 202 177 217 203 226 299 322 323 424 483 447 407 518 726
-8 -13 -14 -20 -20 -33 -36 -49 -47 -24 -5 -10 -6 -10 17 28 42 73 83 67 59 46 34 54 72 78 84 91 102 140 150 165 225 258 282 233 283 334 399 402 431 474 478
-16 -17 -15 -19 -23 -24 -28 -21 30 23 45 59 67 53 16 74 92 87 103 137 118 112 81 96 108 118 125 121 124 118 141 165 150 157 190 200 183 218 255 294 305 311 313
-6 -12 -8 2 1 6 9 10 8 9 46 75 101 107 118 117 143 139 104 100 165 127 118 128 133 137 139 140 155 158 165 161 159 166 157 159 162 180 203 214 214 227 260
-16 5 -2 4 7 11 14 13 15 32 47 60 88 111 144 148 171 195 192 130 140 166 156 161 167 171 172 173 168 172 176 179 183 183 183 183 178 171 170 177 180 179 185
3 2 3 11 14 15 22 28 38 52 65 78 97 127 147 158 160 190 220 181 185 182 184 181 177 184 190 187 186 179 182 185 185 178 192 199 198 182 180 175 173 162 147
33 51 42 47 53 65 72 83 91 95 99 106 121 141 148 151 177 188 176 178 173 172 179 178 181 184 184 188 182 187 175 186 187 177 181 179 177 168 177 174 165 158 154
40 60 56 56 60 57 62 82 88 98 116 127 135 133 135 133 139 137 137 142 147 148 146 149 145 154 165 172 173 176 181 177 184 184 182 167 174 170 159 150 151 156 153
82 83 79 86 94 106 106 108 100 93 95 109 92 83 59 85 98 103 108 107 104 107 106 110 113 119 125 137 148 155 152 164 175 178 171 170 166 161 161 162 156 154 147
97 96 101 114 116 106 113 108 105 108 111 105 99 92 85 94 90 93 96 86 88 89 90 94 95 97 105 102 109 121 134 137 139 149 155 154 156 153 156 156 159 174 182
92 102 114 123 131 109 117 114 109 98 94 97 100 96 98 94 86 81 80 86 76 77 80 80 79 92 98 101 105 106 109 116 113 118 137 139 135 135 139 157 164 172 166
111 113 114 114 110 122 106 105 103 104 104 102 100 96 93 89 87 86 84 76 77 74 81 63 71 70 76 92 91 101 103 120 120 115 103 105 125 127 139 136 142 133 142
113 106 110 114 118 117 118 119 119 120 116 109 103 93 87 84 81 82 79 71 66 67 68 72 66 69 66 53 68 76 84 101 115 121 101 98 111 109 106 108 112 109 116

GFSGL_con_3kmhel_117.txt.gz
Helicity
178 147 150 60 67 72 91 46 74 76 110 107 102 158 181 193 221 222 239 281 251 229 227 176 159 175 177 189 204 163 128 144 149 95 121 178 174 199 157 180 148 186 155
208 262 144 120 175 149 184 54 52 72 89 85 79 81 98 171 199 196 236 247 258 210 183 195 196 197 150 175 188 132 140 156 164 133 142 170 160 159 170 171 209 192 184
263 372 230 273 364 387 380 387 363 196 154 218 198 265 249 241 218 241 212 256 229 208 221 191 187 174 175 172 121 90 95 115 126 149 156 168 179 166 193 182 173 181 203
293 502 420 396 382 404 469 571 474 513 520 433 454 534 543 518 535 543 330 311 305 335 285 255 250 229 238 275 173 133 128 96 132 166 192 160 179 205 238 278 240 235 225
300 370 649 479 410 369 501 584 631 639 630 647 596 575 594 622 632 563 512 428 459 424 450 497 422 416 336 188 123 116 115 95 104 132 165 192 227 304 394 260 258 242 331
293 358 461 475 459 425 435 553 673 749 763 730 727 572 515 481 557 609 547 475 430 408 427 406 342 266 237 177 181 130 116 114 104 137 130 149 184 260 327 289 289 402 386
185 206 238 325 376 454 504 596 689 673 736 820 825 861 837 732 583 487 434 401 449 467 445 352 295 203 203 204 165 99 93 127 147 146 164 145 153 184 220 314 345 348 303
204 236 242 245 242 301 329 483 516 655 558 684 666 633 644 619 546 476 346 232 214 340 414 435 328 296 225 180 132 110 106 133 154 168 183 149 139 97 128 184 346 381 585
140 138 137 115 150 181 193 224 191 175 268 262 247 342 416 375 550 430 402 490 435 460 365 292 239 203 226 234 143 95 122 153 130 167 200 239 262 273 230 88 125 511 587
80 40 19 38 39 42 69 113 127 109 129 133 157 204 268 322 432 378 377 306 242 179 163 175 229 155 138 165 132 155 157 163 155 150 162 184 203 207 284 307 234 364 679
14 16 22 21 17 14 28 46 32 29 24 51 78 101 134 146 138 158 195 121 86 114 131 146 132 210 190 133 149 151 146 147 143 123 139 149 179 206 221 286 290 307 461
-0 -5 10 13 -5 7 8 13 39 41 31 17 17 16 43 82 135 150 124 92 54 -5 27 39 46 109 126 181 128 141 151 179 179 167 194 206 208 241 273 293 320 396 522
-0 11 3 -11 11 8 20 35 13 2 -5 -1 5 8 4 17 46 114 103 105 95 29 16 36 68 87 105 122 194 189 159 147 168 192 217 263 267 256 241 275 345 361 558
-2 -9 -16 -8 -15 -9 -19 -17 -0 19 11 6 -2 1 -5 -0 27 43 53 47 56 58 42 39 58 53 79 63 90 130 125 139 162 157 192 227 219 270 274 272 312 315 412
-28 -34 -41 -39 -47 -53 -25 -67 -84 -75 -55 -54 -31 -28 -0 9 22 35 36 36 33 35 36 56 91 104 115 138 139 135 135 150 150 151 141 141 159 209 265 281 291 281 318
-29 -34 -32 -34 -32 -28 -29 -23 23 6 15 20 23 2 -35 25 74 97 84 103 154 106 60 68 88 110 123 140 151 159 162 179 160 146 144 150 153 176 199 212 220 240 223
-25 -27 -26 -17 -17 -7 -2 -0 1 8 36 57 73 81 88 82 111 137 126 84 126 134 123 134 145 156 160 161 178 197 202 202 197 196 184 184 185 177 188 197 198 194 225
-21 -10 -12 -8 -13 -5 3 12 16 21 26 36 77 97 122 109 119 156 192 145 142 162 146 149 158 176 192 201 215 213 222 224 234 226 225 223 210 197 210 224 219 224 232
-14 -17 -19 -0 23 34 39 44 46 53 61 69 73 101 127 120 137 156 172 136 132 132 142 148 165 181 182 185 182 206 202 227 231 229 245 243 221 210 205 194 196 222 218
5 29 6 29 49 58 55 63 71 87 99 103 108 101 94 90 103 98 96 117 130 130 126 135 124 127 149 160 165 169 198 191 214 232 217 221 242 227 217 217 221 200 189
10 20 29 55 76 72 63 80 92 96 95 91 91 86 60 75 92 92 90 85 93 102 111 115 118 112 117 131 139 149 146 164 177 183 174 203 192 212 201 190 188 190 181
31 32 48 66 76 86 84 93 98 92 84 84 79 82 88 88 96 98 104 97 86 86 87 99 106 108 112 114 121 129 134 133 140 166 175 151 166 157 163 178 182 173 173
42 45 63 90 95 85 99 100 97 98 93 90 93 91 89 103 98 101 103 87 87 86 82 83 88 102 112 116 117 115 125 135 125 124 177 166 145 182 159 155 165 185 180
45 58 73 93 108 88 96 92 87 94 95 96 93 100 102 102 97 95 97 86 76 78 75 77 81 81 83 99 107 105 103 104 107 119 143 149 174 182 151 145 144 168 162
69 78 89 102 104 99 104 107 111 113 113 113 108 108 99 96 92 86 87 86 79 69 74 72 70 84 94 90 88 95 92 109 120 124 131 112 117 120 132 139 170 134 162
96 100 106 107 104 105 116 120 125 125 127 132 124 130 115 106 101 90 86 79 75 81 68 61 69 65 65 62 85 85 87 102 119 141 144 112 122 125 148 119 135 121 130

GFSGL_con_3kmhel_120.txt.gz
Helicity
153 157 189 142 107 76 60 46 98 94 57 140 123 178 244 98 111 170 229 292 271 262 287 276 205 209 234 235 215 177 185 231 205 168 184 169 191 246 281 225 150 167 165
182 115 125 134 147 172 195 171 169 84 61 114 94 160 136 47 107 153 192 264 272 234 241 243 212 249 223 205 246 220 218 218 218 139 130 125 129 195 225 267 212 194 195
212 214 295 247 235 283 271 316 348 390 298 245 242 295 237 304 158 160 210 270 256 239 222 214 227 241 249 291 298 195 149 139 179 171 84 102 139 176 196 235 261 207 181
188 207 382 469 355 275 312 401 400 370 466 414 417 457 476 470 448 420 196 232 269 233 247 323 403 419 451 422 385 319 232 247 224 147 115 99 118 138 155 197 240 292 227
191 262 292 509 448 364 424 434 478 535 525 463 508 616 499 539 554 540 588 667 684 647 639 613 681 672 606 531 430 309 211 187 159 124 100 104 91 109 172 168 227 222 257
141 105 178 244 410 572 437 516 580 625 702 556 677 742 692 668 704 550 694 718 752 784 791 746 570 547 521 510 325 337 361 181 119 107 118 122 94 103 124 190 187 226 363
190 194 160 162 227 535 456 452 552 480 442 525 580 588 700 674 714 680 629 718 647 626 641 635 602 504 490 418 301 176 166 184 176 151 147 157 116 189 108 88 142 161 322
82 108 127 109 118 180 244 334 251 471 389 379 459 521 532 754 719 580 398 362 562 738 577 365 261 407 558 489 364 330 331 204 180 146 135 124 113 102 98 78 77 99 152
78 59 57 57 65 74 77 147 169 84 192 244 234 298 404 493 667 684 483 415 181 279 280 311 399 249 281 369 299 286 296 247 138 168 136 158 157 165 131 89 151 186 190
80 43 9 14 27 49 68 61 14 0 -10 4 34 55 118 158 179 231 158 201 260 318 308 256 339 387 428 421 210 219 185 242 208 154 176 180 190 171 179 142 125 137 190
0 17 41 27 18 -8 -23 -5 2 13 4 5 18 47 67 80 82 106 106 39 20 39 82 179 132 141 147 152 111 68 91 122 189 198 173 191 205 194 184 154 125 114 142
-12 -5 3 10 15 31 40 44 32 1 -7 24 19 13 29 59 106 114 109 79 55 -4 14 18 10 56 77 116 81 122 121 80 118 139 207 249 230 199 194 194 178 127 132
-23 -18 -14 -15 -21 -15 10 23 30 36 30 15 10 12 39 56 53 88 83 74 69 -2 -20 30 56 64 67 61 138 160 128 119 95 81 101 120 163 206 204 214 204 197 217
-24 -34 -40 -41 -28 -45 -55 -69 -62 -37 -36 -26 -20 -6 4 26 53 55 35 53 50 22 15 30 61 58 81 84 82 106 120 138 132 108 95 110 123 184 223 259 251 228 235
-38 -36 -47 -48 -56 -54 -76 -107 -133 -102 -90 -95 -78 -62 -31 -12 0 27 24 18 36 36 23 40 55 66 63 80 109 126 155 176 170 164 154 142 147 153 167 190 216 208 215
-31 -32 -34 -39 -42 -47 -59 -75 -20 -11 15 8 12 -17 -60 19 58 76 75 93 138 126 58 74 104 132 135 119 113 134 159 202 202 193 186 192 157 161 165 168 178 205 227
-23 -28 -32 -27 -23 -19 -16 -17 -16 -9 30 66 65 72 44 29 65 107 128 117 141 120 78 102 115 123 135 121 143 154 154 160 203 211 210 227 207 202 199 188 195 205 219
-16 -21 -24 -20 -16 -16 -23 -24 -11 6 15 28 68 86 86 76 93 106 128 119 108 112 111 87 82 103 135 135 127 150 166 158 187 170 192 227 215 187 190 204 224 227 226
-20 -25 -27 -19 -13 -4 12 25 33 37 42 42 42 29 63 102 126 126 95 38 90 96 108 112 78 58 78 106 131 129 150 152 165 171 179 186 242 205 172 200 189 191 223
-27 -20 -31 -19 -10 -2 5 19 41 47 57 65 63 29 36 70 78 89 53 32 65 74 75 90 92 64 57 81 96 108 106 109 133 194 179 189 214 198 198 158 182 184 170
-22 -15 -4 6 16 9 5 24 43 53 63 67 66 60 57 61 66 78 83 71 77 70 62 75 86 82 56 69 82 86 102 82 73 102 174 211 206 174 164 168 153 151 191
0 6 4 14 26 31 26 53 50 60 63 69 64 61 64 66 74 84 91 78 68 65 56 43 46 48 50 85 94 70 79 92 121 146 149 227 161 153 178 158 172 193 171
23 27 22 30 39 51 55 63 61 74 75 75 76 73 71 72 71 74 82 85 70 56 44 45 26 30 34 47 68 56 65 86 85 102 136 205 173 169 191 115 121 135 162
45 43 34 38 54 62 69 73 82 89 96 98 102 100 101 93 86 82 86 90 75 57 42 45 41 46 26 23 50 55 54 58 79 105 131 186 102 127 137 142 156 156 176
68 55 50 54 71 78 81 93 98 101 113 115 122 123 124 122 111 111 104 88 84 86 75 49 55 45 41 25 56 79 42 61 81 114 136 171 115 132 148 111 126 105 132
76 84 74 86 93 100 104 111 115 123 128 135 138 135 134 123 117 129 125 122 122 100 74 61 60 60 29 35 88 54 34 53 73 107 132 106 123 100 114 149 148 145 98

GFSGL_con_3kmhel_123.txt.gz
Helicity
93 83 70 89 84 74 85 86 80 52 48 93 75 70 78 157 160 152 139 138 143 218 262 233 203 184 191 217 221 230 269 320 281 249 193 192 207 224 207 188 192 199 172
102 116 107 116 131 96 99 140 187 237 231 151 141 140 146 133 166 162 183 206 119 105 174 248 230 218 204 209 242 212 230 271 320 268 216 177 162 193 168 173 193 166 169
94 100 153 235 233 236 211 234 246 307 359 340 371 376 394 361 274 276 159 147 129 139 172 237 270 240 207 221 259 252 303 308 311 359 251 239 168 188 200 143 186 191 209
85 95 179 278 366 356 313 303 323 390 437 459 465 404 442 460 399 242 203 103 110 158 288 390 444 405 271 234 228 291 315 378 353 322 268 180 190 152 132 126 143 162 174
67 75 107 203 296 495 340 359 440 469 480 417 479 596 495 379 375 430 508 590 589 619 704 667 746 760 703 591 441 462 424 396 386 372 328 258 206 158 134 127 126 134 154
94 53 111 150 211 290 446 273 283 426 524 585 344 333 613 580 462 431 704 811 955 986 689 612 723 823 775 636 613 642 595 419 362 302 291 253 202 215 170 171 175 150 128
59 77 68 63 72 82 124 263 362 255 482 541 555 707 490 628 702 645 512 443 722 777 670 648 691 720 636 378 506 503 555 623 526 326 219 250 152 175 141 122 117 142 151
79 76 79 52 -1 -15 -15 22 29 20 30 131 147 158 298 483 473 577 444 463 274 489 526 548 592 600 539 436 416 362 382 448 471 326 335 295 278 175 155 112 112 97 68
124 99 77 72 74 66 43 14 -19 -22 -23 -27 0 90 123 178 190 171 139 205 235 179 170 261 386 311 291 395 404 236 245 229 242 342 272 354 400 252 198 157 132 95 73
65 48 10 15 33 28 17 26 29 15 -10 5 39 72 100 92 132 98 34 -6 40 93 81 83 152 140 191 241 236 183 173 348 344 293 244 335 245 293 222 155 160 125 112
-11 -4 13 27 31 0 2 11 -2 9 40 57 56 83 118 139 123 140 122 47 8 -9 18 29 12 80 112 119 123 120 152 117 156 159 190 237 286 213 240 214 158 161 164
-16 -36 -28 -20 2 17 21 33 35 15 17 30 41 36 55 74 105 106 104 88 45 -7 8 1 31 88 95 129 113 158 154 99 88 86 114 150 179 199 193 198 185 141 134
-11 -12 -33 -39 -35 -23 -19 -3 -4 -5 -8 11 8 23 45 68 77 82 89 83 47 -10 2 53 92 109 104 90 159 171 143 125 104 102 107 108 96 94 111 119 130 98 99
-3 -3 -9 -33 -43 -61 -73 -70 -71 -63 -60 -44 -31 -21 1 33 61 41 3 22 46 33 42 54 68 79 90 101 123 150 140 137 128 133 124 117 108 100 105 112 112 161 121
-38 -29 -44 -48 -63 -91 -110 -123 -119 -87 -81 -101 -86 -64 -49 -33 -14 24 21 6 1 14 15 50 78 89 112 128 139 165 190 202 202 174 157 149 128 124 126 124 117 115 112
-9 -25 -25 -27 -38 -52 -64 -74 -31 3 29 36 32 -16 -52 43 80 100 98 113 129 107 55 74 82 88 96 119 147 179 180 216 216 213 202 196 174 158 150 139 143 149 168
-4 -27 -29 -18 -14 -19 -27 -23 -21 -28 25 81 60 51 46 65 78 99 91 90 148 127 96 86 90 103 120 132 141 144 162 172 186 200 210 228 225 200 193 187 186 183 189
2 3 -33 -25 -17 4 -2 -8 -2 7 9 -32 45 73 92 121 122 121 99 68 72 95 72 90 82 92 95 100 121 138 137 137 163 183 204 226 248 216 173 168 161 177 186
-12 -12 -19 -13 0 12 10 5 0 6 10 12 4 44 54 120 123 110 74 -23 29 59 76 86 90 77 80 94 104 108 109 120 128 149 183 212 253 218 180 173 160 106 131
-15 -13 -18 -20 -16 -2 7 16 23 33 37 43 44 39 52 65 81 65 30 7 0 4 13 51 51 54 65 84 95 96 104 131 155 151 178 205 235 202 164 148 145 151 135
-8 -5 7 -16 -22 -13 -1 12 7 14 21 33 32 31 55 53 42 52 45 44 43 28 17 22 32 45 38 35 84 100 112 109 120 139 175 212 206 205 176 118 107 130 145
9 6 16 8 3 15 22 25 26 23 26 35 35 41 49 56 54 54 49 38 32 28 14 23 31 32 34 31 34 63 83 108 124 136 152 170 173 188 175 134 114 104 120
28 39 40 38 46 56 57 55 55 54 55 59 61 69 70 77 72 62 60 44 47 40 41 41 50 41 10 6 21 25 62 82 100 106 129 147 148 149 130 107 92 94 116
58 68 65 80 93 86 83 66 60 76 88 108 113 105 104 98 107 102 96 86 76 57 43 34 40 41 32 22 24 35 48 54 70 76 96 114 130 110 118 101 109 107 102
95 95 98 97 108 103 96 91 99 97 103 115 125 145 162 161 153 140 148 139 144 125 90 58 40 45 18 29 44 36 41 48 57 69 72 84 96 101 104 97 102 107 85
114 113 110 111 107 105 106 108 106 103 103 118 132 131 134 143 151 142 141 151 161 202 145 116 74 47 59 59 13 2 -1 10 43 67 70 75 80 62 88 109 118 116 105

GFSGL_con_3kmhel_126.txt.gz
Helicity
67 107 97 75 89 71 30 65 76 80 100 113 79 100 91 85 90 124 178 211 146 142 195 220 241 180 147 138 178 49 87 183 171 199 198 246 276 201 184 174 176 147 142
58 103 142 122 108 75 86 87 85 71 94 128 175 254 229 147 120 127 158 244 209 173 231 163 165 192 218 182 130 68 124 173 194 142 267 256 271 233 203 185 376 130 136
37 88 178 197 146 157 174 197 209 202 196 234 262 269 262 235 215 215 238 186 211 195 166 160 173 219 111 209 179 240 209 177 184 215 279 307 296 319 275 209 227 220 151
-2 64 112 219 211 196 253 258 268 320 343 318 297 307 308 305 313 279 273 322 366 359 395 388 423 363 268 143 205 275 263 226 216 217 269 321 324 278 283 255 227 223 144
29 13 46 69 106 160 280 367 396 359 388 492 525 484 405 321 295 261 193 295 384 429 494 478 573 585 711 679 366 421 308 241 256 313 330 350 331 324 331 296 226 214 173
10 -15 50 86 94 61 90 147 229 224 340 514 618 671 608 479 459 426 336 322 379 539 557 615 613 598 566 723 1076 1032 702 545 461 418 421 384 410 384 397 319 273 253 163
77 91 69 53 30 -8 -24 -24 14 77 97 101 239 445 583 542 444 381 345 394 457 389 438 572 472 430 462 477 606 649 992 972 824 712 486 531 493 438 433 349 253 203 192
110 110 86 66 55 68 59 57 58 35 26 46 66 82 125 180 197 291 313 346 385 435 450 472 511 505 450 486 272 213 358 387 625 581 648 547 488 449 344 272 333 214 150
133 110 83 68 59 69 77 55 44 46 66 73 82 110 95 90 86 59 59 69 151 260 294 302 292 307 398 327 289 227 273 196 317 223 397 364 399 411 336 340 198 181 168
51 11 3 10 12 16 -3 1 -4 -5 9 39 75 102 124 123 119 99 59 22 37 12 52 85 145 192 178 190 181 197 241 148 144 139 87 162 134 210 203 206 191 230 251
-37 -26 -5 -1 5 -1 12 18 8 16 28 26 40 78 95 98 95 114 99 52 35 17 38 64 78 112 114 130 136 95 116 106 135 136 143 163 203 190 188 182 183 117 135
-32 -15 -5 -3 -5 2 10 25 32 16 19 28 35 40 53 42 76 76 74 71 47 15 33 32 53 124 142 180 153 187 198 148 122 101 95 109 99 109 173 131 130 104 84
3 13 -6 -17 -5 -15 6 27 37 38 27 16 2 17 26 26 25 72 71 70 61 7 11 48 98 128 134 141 200 209 189 150 131 133 137 141 147 131 118 119 118 100 56
24 37 30 4 -10 -25 -61 -41 -8 19 14 -8 -13 -20 -14 8 10 -2 0 -1 23 23 40 51 64 87 113 122 156 180 171 165 144 139 134 125 120 115 121 129 109 161 98
16 12 3 -4 -14 -30 -53 -79 -89 -59 -38 -56 -49 -24 -34 -27 -15 15 15 -19 -18 6 17 42 72 90 118 139 153 165 179 188 189 187 184 180 160 140 129 130 113 109 89
19 12 2 -11 -27 -42 -56 -46 12 39 28 33 30 4 -27 48 66 69 63 85 91 57 12 29 42 63 87 106 126 146 156 192 203 190 184 183 194 189 165 137 95 97 133
-6 -9 -18 -19 -29 -32 -33 -37 -35 -40 27 48 56 63 62 59 66 66 63 70 108 45 3 34 57 77 81 88 102 113 148 158 165 164 169 182 195 193 176 148 127 121 126
-6 -15 -19 -16 -21 -19 -16 -8 -20 -17 -26 -23 -6 43 70 73 72 77 73 13 -2 25 10 32 57 74 90 94 106 114 116 120 139 153 169 173 173 170 173 175 176 131 122
14 4 -1 4 12 17 18 19 11 3 -2 -8 -5 9 9 71 60 51 28 -54 -35 -18 11 28 27 40 61 65 77 79 76 104 115 124 151 167 184 182 173 157 152 163 152
47 40 22 31 39 44 51 52 49 49 45 41 40 34 46 43 42 12 -10 -12 -8 -15 -14 2 5 18 25 23 50 80 97 108 130 144 161 179 198 181 190 183 153 158 162
44 61 53 50 53 56 63 66 63 67 68 71 62 44 42 48 32 44 43 46 43 40 16 8 -1 12 26 36 37 50 70 77 94 130 161 175 185 195 198 170 161 138 133
52 52 61 62 65 74 69 77 84 92 98 98 86 79 84 76 68 63 55 43 31 38 44 44 58 39 28 35 31 34 46 72 78 100 139 155 159 162 155 144 149 123 117
73 79 85 85 82 87 104 113 114 118 118 119 116 121 134 129 115 106 98 108 91 73 67 73 66 56 46 49 38 32 44 53 44 56 99 122 140 148 136 122 122 124 121
100 105 95 94 104 119 127 126 120 126 126 141 141 134 139 131 126 138 142 139 141 140 103 100 95 67 59 48 44 21 7 26 31 50 61 75 94 108 99 106 110 117 103
119 121 111 113 125 117 126 133 129 147 146 133 141 135 136 130 115 125 129 135 145 164 185 193 160 99 69 38 35 16 10 15 39 46 60 60 67 81 72 77 90 106 94
133 118 121 125 132 134 139 141 138 140 137 135 135 133 133 140 136 114 126 139 144 149 162 167 189 200 115 80 56 24 16 21 27 36 47 58 62 66 68 72 86 89 92